[[{"header":{"parameterUnit":"m.s-1","parameterCategory":1,"la1":30.6,"la2":28.766,"lo1":-90.7593,"lo2":-88.6598,"dy":0.0162,"dx":0.0183,"nx":116,"ny":114,"refTime":"2024-06-27T18:00:00:Z","depth":0,"parameterNumber":2,"parameterNumberName":"U-component_of_WINDS"},"data":[0.0,0.0,0.0,0.0,0.0,0.0,0.0,0.0,0.0,0.0,0.0,0.0,0.0,0.0,0.0,0.0,0.0,0.0,0.0,0.0,0.0,0.0,0.0,0.0,0.0,0.0,0.0,0.0,0.0,0.0,0.0,0.0,0.0,0.0,0.0,0.0,0.0,0.0,0.0,0.0,0.0,0.0,0.0,0.0,0.0,0.0,0.0,0.0,0.0,0.0,0.0,0.0,0.0,0.0,0.0,0.0,0.0,0.0,0.0,0.0,0.0,0.0,0.0,0.0,0.0,0.0,0.0,0.0,0.0,0.0,0.0,0.0,0.0,0.0,0.0,0.0,0.0,0.0,0.0,0.0,0.0,0.0,0.0,0.0,0.0,0.0,0.0,0.0,0.0,0.0,0.0,0.0,0.0,0.0,0.0,0.0,0.0,0.0,0.0,0.0,0.0,0.0,0.0,0.0,0.0,0.0,0.0,0.0,0.0,0.0,0.0,0.0,0.0,0.0,0.0,0.0,0.0,0.0,0.0,0.0,0.0,0.0,0.0,0.0,0.0,0.0,0.0,0.0,0.0,0.0,0.0,0.0,0.0,0.0,0.0,0.0,0.0,0.0,0.0,0.0,0.0,0.0,0.0,0.0,0.0,0.0,0.0,0.0,0.0,0.0,0.0,0.0,0.0,0.0,0.0,0.0,0.0,0.0,0.0,0.0,0.0,0.0,0.0,0.0,0.0,0.0,0.0,0.0,0.0,0.0,0.0,0.0,0.0,0.0,0.0,0.0,0.0,0.0,0.0,0.0,0.0,0.0,0.0,0.0,0.0,0.0,0.0,0.0,0.0,0.0,0.0,0.0,0.0,0.0,0.0,0.0,0.0,0.0,0.0,0.0,0.0,0.0,0.0,0.0,0.0,0.0,0.0,0.0,0.0,0.0,0.0,0.0,0.0,0.0,0.0,0.0,0.0,0.0,0.0,0.0,0.0,0.0,0.0,0.0,0.0,0.0,0.0,0.0,0.0,0.0,0.0,0.0,0.0,0.0,0.0,0.0,0.0,0.0,0.0,0.0,0.0,0.0,0.0,0.0,0.0,0.0,0.0,0.0,0.0,0.0,0.0,0.0,0.0,0.0,0.0,0.0,0.0,0.0,0.0,0.0,0.0,0.0,0.0,0.0,0.0,0.0,0.0,0.0,0.0,0.0,0.0,0.0,0.0,0.0,0.0,0.0,0.0,0.0,0.0,0.0,0.0,0.0,0.0,0.0,0.0,0.0,0.0,0.0,0.0,0.0,0.0,0.0,0.0,0.0,0.0,0.0,0.0,0.0,0.0,0.0,0.0,0.0,0.0,0.0,0.0,0.0,0.0,0.0,0.0,0.0,0.0,0.0,0.0,0.0,0.0,0.0,0.0,0.0,0.0,0.0,0.0,0.0,0.0,0.0,0.0,0.0,0.0,0.0,0.0,0.0,0.0,0.0,0.0,0.0,0.0,0.0,0.0,0.0,0.0,0.0,0.0,0.0,0.0,0.0,0.0,0.0,0.0,0.0,0.0,0.0,0.0,0.0,0.0,0.0,0.0,0.0,0.0,0.0,0.0,0.0,0.0,0.0,0.0,0.0,0.0,0.0,0.0,0.0,0.0,0.0,0.0,0.0,0.0,0.0,0.0,0.0,0.0,0.0,0.0,0.0,0.0,0.0,0.0,0.0,0.0,0.0,0.0,0.0,0.0,0.0,0.0,0.0,0.0,0.0,0.0,0.0,0.0,0.0,0.0,0.0,0.0,0.0,0.0,0.0,0.0,0.0,0.0,0.0,0.0,0.0,0.0,0.0,0.0,0.0,0.0,0.0,0.0,0.0,0.0,0.0,0.0,0.0,0.0,0.0,0.0,0.0,0.0,0.0,0.0,0.0,0.0,0.0,0.0,0.0,0.0,0.0,0.0,0.0,0.0,0.0,0.0,0.0,0.0,0.0,0.0,0.0,0.0,0.0,0.0,0.0,0.0,0.0,0.0,0.0,0.0,0.0,0.0,0.0,0.0,0.0,0.0,0.0,0.0,0.0,0.0,0.0,0.0,0.0,0.0,0.0,0.0,0.0,0.0,0.0,0.0,0.0,0.0,0.0,0.0,0.0,0.0,0.0,0.0,0.0,0.0,0.0,0.0,0.0,0.0,0.0,0.0,0.0,0.0,0.0,0.0,0.0,0.0,0.0,0.0,0.0,0.0,0.0,0.0,0.0,0.0,0.0,0.0,0.0,0.0,0.0,0.0,0.0,0.0,0.0,0.0,0.0,0.0,0.0,0.0,0.0,0.0,0.0,0.0,0.0,0.0,0.0,0.0,0.0,0.0,0.0,0.0,0.0,0.0,0.0,0.0,0.0,0.0,0.0,0.0,0.0,0.0,0.0,0.0,0.0,0.0,0.0,0.0,0.0,0.0,0.0,0.0,0.0,0.0,0.0,0.0,0.0,0.0,0.0,0.0,0.0,0.0,0.0,0.0,0.0,0.0,0.0,0.0,0.0,0.0,0.0,0.0,0.0,0.0,0.0,0.0,0.0,0.0,0.0,0.0,0.0,0.0,0.0,0.0,0.0,0.0,0.0,0.0,0.0,0.0,0.0,0.0,0.0,0.0,0.0,0.0,0.0,0.0,0.0,0.0,0.0,0.0,0.0,0.0,0.0,0.0,0.0,0.0,0.0,0.0,0.0,0.0,0.0,0.0,0.0,0.0,0.0,0.0,0.0,0.0,0.0,0.0,0.0,0.0,0.0,0.0,0.0,0.0,0.0,0.0,0.0,0.0,0.0,0.0,0.0,0.0,0.0,0.0,0.0,0.0,0.0,0.0,0.0,0.0,0.0,0.0,0.0,0.0,0.0,0.0,0.0,0.0,0.0,0.0,0.0,0.0,0.0,0.0,0.0,0.0,0.0,0.0,0.0,0.0,0.0,0.0,0.0,0.0,0.0,0.0,0.0,0.0,0.0,0.0,0.0,0.0,0.0,0.0,0.0,0.0,0.0,0.0,0.0,0.0,0.0,0.0,0.0,0.0,0.0,0.0,0.0,0.0,0.0,0.0,0.0,0.0,0.0,0.0,0.0,0.0,0.0,0.0,0.0,0.0,0.0,0.0,0.0,0.0,0.0,0.0,0.0,0.0,0.0,0.0,0.0,0.0,0.0,0.0,0.0,0.0,0.0,0.0,0.0,0.0,0.0,0.0,0.0,0.0,0.0,0.0,0.0,0.0,0.0,0.0,0.0,0.0,0.0,0.0,0.0,0.0,0.0,0.0,0.0,0.0,0.0,0.0,0.0,0.0,0.0,0.0,0.0,0.0,0.0,0.0,0.0,0.0,0.0,0.0,0.0,0.0,0.0,0.0,0.0,0.0,0.0,0.0,0.0,0.0,0.0,0.0,0.0,0.0,0.0,0.0,0.0,0.0,0.0,0.0,0.0,0.0,0.0,0.0,0.0,0.0,0.0,0.0,0.0,0.0,0.0,0.0,0.0,0.0,0.0,0.0,0.0,0.0,0.0,0.0,0.0,0.0,0.0,0.0,0.0,0.0,0.0,0.0,0.0,0.0,0.0,0.0,0.0,0.0,0.0,0.0,0.0,0.0,0.0,0.0,0.0,0.0,0.0,0.0,0.0,0.0,0.0,0.0,0.0,0.0,0.0,0.0,0.0,0.0,0.0,0.0,0.0,0.0,0.0,0.0,0.0,0.0,0.0,0.0,0.0,0.0,0.0,0.0,0.0,0.0,0.0,0.0,0.0,0.0,0.0,0.0,0.0,0.0,0.0,0.0,0.0,0.0,0.0,0.0,0.0,0.0,0.0,0.0,0.0,0.0,0.0,0.0,0.0,0.0,0.0,0.0,0.0,0.0,0.0,0.0,0.0,0.0,0.0,0.0,0.0,0.0,0.0,0.0,0.0,0.0,0.0,0.0,0.0,0.0,0.0,0.0,0.0,0.0,0.0,0.0,0.0,0.0,0.0,0.0,0.0,0.0,0.0,0.0,0.0,0.0,0.0,0.0,0.0,0.0,0.0,0.0,0.0,0.0,0.0,0.0,0.0,0.0,0.0,0.0,0.0,0.0,0.0,0.0,0.0,0.0,0.0,0.0,0.0,0.0,0.0,0.0,0.0,0.0,0.0,0.0,0.0,0.0,0.0,0.0,0.0,0.0,0.0,0.0,0.0,0.0,0.0,0.0,0.0,0.0,0.0,0.0,0.0,0.0,0.0,0.0,0.0,0.0,0.0,0.0,0.0,0.0,0.0,0.0,0.0,0.0,0.0,0.0,0.0,0.0,0.0,0.0,0.0,0.0,0.0,0.0,0.0,0.0,0.0,0.0,0.0,0.0,0.0,0.0,0.0,0.0,0.0,0.0,0.0,0.0,0.0,0.0,0.0,0.0,0.0,0.0,0.0,0.0,0.0,0.0,0.0,0.0,0.0,0.0,0.0,0.0,0.0,0.0,0.0,0.0,0.0,0.0,0.0,0.0,0.0,0.0,0.0,0.0,0.0,0.0,0.0,0.0,0.0,0.0,0.0,0.0,0.0,0.0,0.0,0.0,0.0,0.0,0.0,0.0,0.0,0.0,0.0,0.0,0.0,0.0,0.0,0.0,0.0,0.0,0.0,0.0,0.0,0.0,0.0,0.0,0.0,0.0,0.0,0.0,0.0,0.0,0.0,0.0,0.0,0.0,0.0,0.0,0.0,0.0,0.0,0.0,0.0,0.0,0.0,0.0,0.0,0.0,0.0,0.0,0.0,0.0,0.0,0.0,0.0,0.0,0.0,0.0,0.0,0.0,0.0,0.0,0.0,0.0,0.0,0.0,0.0,0.0,0.0,0.0,0.0,0.0,0.0,0.0,0.0,0.0,0.0,0.0,0.0,0.0,0.0,0.0,0.0,0.0,0.0,0.0,0.0,0.0,0.0,0.0,0.0,0.0,0.0,0.0,0.0,0.0,0.0,0.0,0.0,0.0,0.0,0.0,0.0,0.0,0.0,0.0,0.0,0.0,0.0,0.0,0.0,0.0,0.0,0.0,0.0,0.0,0.0,0.0,0.0,0.0,0.0,0.0,0.0,0.0,0.0,0.0,0.0,0.0,0.0,0.0,0.0,0.0,0.0,0.0,0.0,0.0,0.0,0.0,0.0,0.0,0.0,0.0,0.0,0.0,0.0,0.0,0.0,0.0,0.0,0.0,0.0,0.0,0.0,0.0,0.0,0.0,0.0,0.0,0.0,0.0,0.0,0.0,0.0,0.0,0.0,0.0,0.0,0.0,0.0,0.0,0.0,0.0,0.0,0.0,0.0,0.0,0.0,0.0,0.0,0.0,0.0,0.0,0.0,0.0,0.0,0.0,0.0,0.0,0.0,0.0,0.0,0.0,0.0,0.0,0.0,0.0,0.0,0.0,0.0,0.0,0.0,0.0,0.0,0.0,0.0,0.0,0.0,0.0,0.0,0.0,0.0,0.0,0.0,0.0,0.0,0.0,0.0,0.0,0.0,0.0,0.0,0.0,0.0,0.0,0.0,0.0,0.0,0.0,0.0,0.0,0.0,0.0,0.0,0.0,0.0,0.0,0.0,0.0,0.0,0.0,0.0,0.0,0.0,0.0,0.0,0.0,0.0,0.0,0.0,0.0,0.0,0.0,0.0,0.0,0.0,0.0,0.0,0.0,0.0,0.0,0.0,0.0,0.0,0.0,0.0,0.0,0.0,0.0,0.0,0.0,0.0,0.0,0.0,0.0,0.0,0.0,0.0,0.0,0.0,0.0,0.0,0.0,0.0,0.0,0.0,0.0,0.0,0.0,0.0,0.0,0.0,0.0,0.0,0.0,0.0,0.0,0.0,0.0,0.0,0.0,0.0,0.0,0.0,0.0,0.0,0.0,0.0,0.0,0.0,0.0,0.0,0.0,0.0,0.0,0.0,0.0,0.0,0.0,0.0,0.0,0.0,0.0,0.0,0.0,0.0,0.0,0.0,0.0,0.0,0.0,0.0,0.0,0.0,0.0,0.0,0.0,0.0,0.0,0.0,0.0,0.0,0.0,0.0,0.0,0.0,0.0,0.0,0.0,0.0,0.0,0.0,0.0,0.0,0.0,0.0,-2.9552,0.0,0.0,0.0,0.0,0.0,0.0,0.0,0.0,0.0,0.0,0.0,0.0,0.0,0.0,0.0,0.0,0.0,0.0,0.0,0.0,0.0,0.0,0.0,0.0,-1.5308,-1.5984,-1.6369,-1.6407,-1.6234,-1.5849,0.0,0.0,0.0,0.0,0.0,-1.583,-1.583,-1.6445,-1.7699,-1.7696,-1.8561,-2.0181,-1.9313,-1.821,-1.6977,0.0,0.0,0.0,0.0,0.0,0.0,0.0,0.0,0.0,0.0,0.0,0.0,0.0,0.0,0.0,0.0,0.0,0.0,0.0,0.0,0.0,0.0,0.0,0.0,0.0,0.0,0.0,0.0,0.0,0.0,0.0,0.0,0.0,0.0,0.0,0.0,0.0,0.0,0.0,0.0,0.0,0.0,0.0,0.0,0.0,0.0,0.0,0.0,0.0,0.0,0.0,0.0,0.0,0.0,0.0,0.0,0.0,0.0,0.0,0.0,0.0,0.0,0.0,0.0,0.0,0.0,0.0,0.0,0.0,0.0,0.0,-3.2305,0.0,0.0,0.0,0.0,0.0,0.0,0.0,0.0,0.0,0.0,0.0,0.0,0.0,0.0,0.0,0.0,0.0,0.0,0.0,0.0,0.0,-1.3335,-1.5019,-1.5984,-1.6891,-1.7834,-1.7795,-1.7487,-1.6968,0.0,0.0,0.0,0.0,-1.5965,-1.6699,-1.6853,-1.768,-1.9223,-1.9808,-2.0897,-2.2427,-2.3371,-2.3016,-2.1617,-2.1012,0.0,0.0,0.0,0.0,0.0,0.0,0.0,0.0,0.0,0.0,0.0,0.0,0.0,0.0,0.0,0.0,0.0,0.0,0.0,0.0,0.0,0.0,0.0,0.0,0.0,0.0,0.0,0.0,0.0,0.0,0.0,0.0,0.0,0.0,0.0,0.0,0.0,0.0,0.0,0.0,0.0,0.0,0.0,0.0,0.0,0.0,0.0,0.0,0.0,0.0,0.0,0.0,0.0,0.0,0.0,0.0,0.0,0.0,0.0,0.0,0.0,0.0,0.0,0.0,-3.9566,-4.0155,-4.015,-4.0525,-4.102,-3.8658,-3.7647,-3.743,0.0,0.0,0.0,0.0,0.0,0.0,0.0,0.0,0.0,0.0,0.0,0.0,0.0,0.0,0.0,0.0,0.0,0.0,0.0,0.0,-1.3335,-1.5019,-1.5984,-1.7122,-1.8684,-1.8145,-1.7988,-1.8626,-1.7949,0.0,0.0,-1.7372,-1.743,-1.7545,-1.828,-1.9142,-2.0139,-2.3038,-2.5007,-2.6022,-2.6924,-2.721,-2.6846,-2.3812,-2.2336,-2.1989,0.0,0.0,0.0,0.0,0.0,0.0,0.0,0.0,0.0,0.0,0.0,0.0,0.0,0.0,0.0,0.0,0.0,0.0,0.0,0.0,0.0,0.0,0.0,0.0,0.0,0.0,0.0,0.0,0.0,0.0,0.0,0.0,0.0,0.0,0.0,0.0,0.0,0.0,0.0,0.0,0.0,-2.6325,-2.7301,0.0,0.0,0.0,0.0,0.0,0.0,0.0,0.0,0.0,0.0,0.0,0.0,0.0,0.0,-3.8903,-4.1343,-4.3001,-4.3892,-4.6245,-4.7402,-4.7479,-4.6758,-4.6465,-4.6504,-4.5409,0.0,-3.9394,-3.7401,0.0,0.0,0.0,0.0,0.0,0.0,0.0,0.0,0.0,0.0,0.0,0.0,0.0,0.0,0.0,0.0,0.0,0.0,0.0,0.0,0.0,-1.8119,-1.9311,-2.0989,-2.0796,-2.0335,-1.9773,0.0,0.0,-1.7738,-1.7699,-1.8161,-1.9138,-1.9571,-2.0927,-2.3223,-2.6178,-2.808,-2.8978,-2.9839,-3.0495,-3.0821,-2.8815,-2.6537,-2.4101,-2.2528,0.0,0.0,0.0,0.0,0.0,0.0,0.0,0.0,0.0,0.0,0.0,0.0,0.0,0.0,0.0,0.0,0.0,0.0,0.0,0.0,0.0,0.0,0.0,0.0,0.0,0.0,0.0,0.0,0.0,0.0,0.0,0.0,0.0,0.0,0.0,0.0,0.0,0.0,0.0,-2.5901,-2.8565,-2.9507,-2.9689,-2.9525,0.0,0.0,0.0,0.0,0.0,0.0,0.0,0.0,0.0,-4.0005,-4.1509,-4.2855,-4.4084,-4.5755,-4.6773,-4.7162,-4.8339,-4.8906,-4.8887,-4.8496,-4.832,-4.8301,-4.793,-4.6426,-4.4023,-4.1289,-3.916,-3.7441,0.0,0.0,0.0,0.0,0.0,-3.5349,0.0,0.0,0.0,0.0,0.0,0.0,0.0,0.0,0.0,0.0,0.0,0.0,-1.9046,-2.0292,-2.1523,-2.3009,-2.3124,0.0,0.0,0.0,-2.0023,-1.8738,-1.868,-1.9273,-2.0577,-2.1314,-2.3365,-2.6829,-2.8787,-3.0297,-3.1388,-3.2032,-3.2652,-3.32,-3.254,-3.028,-2.6877,-2.5633,-2.3741,0.0,0.0,0.0,0.0,0.0,0.0,0.0,0.0,0.0,0.0,0.0,0.0,0.0,0.0,0.0,0.0,0.0,0.0,0.0,0.0,0.0,0.0,0.0,0.0,0.0,0.0,0.0,0.0,0.0,0.0,0.0,0.0,0.0,0.0,0.0,0.0,0.0,0.0,-2.8746,-3.0772,-3.1997,-3.3041,-3.3257,0.0,0.0,0.0,0.0,0.0,0.0,-3.876,-4.0519,-4.2262,-4.4004,-4.5957,-4.7285,-4.793,-4.8808,-4.9238,-4.9238,-4.9433,-4.9531,-4.9531,-4.9336,-4.9238,-4.9219,-4.9004,-4.8535,-4.7695,-4.4648,-4.2402,-4.0723,-3.9199,-3.8086,-3.7519,-3.9023,-3.916,-3.9004,0.0,0.0,0.0,0.0,0.0,0.0,0.0,0.0,0.0,0.0,0.0,-1.7407,-1.9962,0.0,-2.3047,0.0,0.0,0.0,0.0,0.0,-2.1408,-2.1312,-2.1312,-2.135,-2.1446,-2.3871,-2.6896,-3.0447,-3.0561,-3.1493,-3.3175,-3.3216,-3.3254,-3.3292,-3.3253,-3.2572,-3.131,-2.8846,-2.6745,-2.4827,0.0,0.0,0.0,0.0,0.0,0.0,0.0,0.0,0.0,0.0,0.0,0.0,0.0,0.0,0.0,0.0,0.0,0.0,0.0,0.0,0.0,0.0,0.0,0.0,0.0,0.0,0.0,0.0,0.0,0.0,0.0,0.0,0.0,0.0,0.0,0.0,0.0,0.0,0.0,-3.5527,-3.7246,0.0,0.0,0.0,0.0,-3.6937,-3.8629,-4.0722,-4.3242,-4.5039,-4.6777,-4.8516,-4.8691,-4.8789,-4.8828,-4.9707,-5.0137,-5.0137,-5.0918,-5.1269,-5.125,-5.0488,-5.0137,-5.0098,-4.9258,-4.8887,-4.8691,-4.6855,-4.5078,-4.3418,-4.25,-4.1641,-4.1035,-4.1894,-4.2187,-4.2285,0.0,0.0,0.0,-1.0094,-1.0094,-1.0288,-1.0848,-1.1678,-1.2639,-1.3745,-1.6369,-1.8661,0.0,-2.275,0.0,0.0,0.0,0.0,0.0,0.0,-2.2586,-2.3144,-2.2643,-2.34,-2.5709,-2.7756,-2.9749,-3.1667,-3.2702,-3.355,-3.4216,-3.4782,-3.5036,-3.5036,-3.5036,-3.4493,-3.3434,-3.0749,-2.8613,-2.6811,-2.4227,-2.2297,0.0,0.0,0.0,0.0,0.0,0.0,0.0,0.0,0.0,0.0,0.0,0.0,0.0,0.0,0.0,0.0,0.0,0.0,0.0,0.0,0.0,0.0,0.0,0.0,0.0,0.0,0.0,0.0,0.0,0.0,0.0,0.0,0.0,0.0,0.0,0.0,0.0,-3.9121,-4.0351,0.0,0.0,-4.0312,-4.1308,-4.2166,-4.3867,-4.5508,-4.6973,-4.8164,-4.9336,-5.0469,-5.1055,-5.1601,-5.2187,-5.248,-5.2363,-5.1816,-5.2109,-5.1933,-5.1387,-5.1094,-5.0976,-5.0957,-5.0644,-5.0215,-4.9687,-4.9062,-4.7773,-4.6113,-4.5254,-4.4726,-4.4512,-4.4805,-4.4902,-4.4941,-1.0094,-1.0094,0.0,-1.0094,-1.0094,-1.0385,-1.1274,-1.2142,-1.3296,-1.4962,-1.7676,-1.9988,0.0,0.0,0.0,0.0,0.0,0.0,0.0,0.0,-2.349,-2.4072,-2.4105,-2.5633,-2.8912,-3.0414,-3.1788,-3.3047,-3.4116,-3.4819,-3.5156,-3.5723,-3.5996,-3.5996,-3.5996,-3.5643,-3.4928,-3.2786,-3.0892,-2.9114,-2.6792,-2.5153,-2.3836,0.0,0.0,0.0,0.0,0.0,0.0,0.0,0.0,0.0,0.0,0.0,0.0,0.0,0.0,0.0,0.0,0.0,0.0,0.0,0.0,0.0,0.0,0.0,0.0,0.0,0.0,0.0,0.0,0.0,0.0,0.0,0.0,0.0,0.0,0.0,-4.0343,-4.1855,-4.3555,-4.4141,-4.3027,-4.4453,-4.5683,-4.6269,-4.791,-4.9121,-4.9707,-5.0859,-5.1738,-5.2266,-5.2832,-5.3418,-5.3984,-5.4004,-5.3711,-5.3144,-5.3144,-5.2832,-5.2266,-5.1973,-5.1836,-5.1816,-5.1523,-5.1094,-5.0586,-5.0312,-4.9512,-4.8359,-4.7187,-4.6738,-4.6699,-4.6406,-4.6308,-4.6308,-1.0094,-1.0094,-1.0094,-1.0094,-1.0094,-1.0404,-1.1293,-1.2161,-1.3893,-1.7257,-1.9215,0.0,0.0,0.0,0.0,0.0,0.0,0.0,0.0,-2.4548,-2.4149,-2.4225,-2.5917,-2.8091,-3.0756,-3.1719,-3.3019,-3.4746,-3.4746,-3.5176,-3.5996,-3.5996,-3.5996,-3.5996,-3.5996,-3.6016,-3.5976,-3.5047,-3.3647,-3.1916,-3.0093,-2.8349,-2.6546,0.0,0.0,0.0,0.0,0.0,0.0,0.0,0.0,0.0,0.0,0.0,0.0,0.0,0.0,0.0,0.0,0.0,0.0,0.0,0.0,0.0,0.0,0.0,0.0,0.0,0.0,0.0,0.0,0.0,0.0,0.0,0.0,0.0,-3.8657,-4.0826,-4.2786,-4.375,-4.6836,-4.8242,-4.6543,-4.7969,-4.8984,-4.8984,-5.0527,-5.1484,-5.1484,-5.3086,-5.4004,-5.4043,-5.4043,-5.4043,-5.4082,-5.4082,-5.4062,-5.4043,-5.4043,-5.4023,-5.3965,-5.3125,-5.2734,-5.2656,-5.1816,-5.1426,-5.1348,-5.0566,-5.0234,-5.0058,-4.832,-4.7637,-4.7539,-4.666,-4.6328,-4.6308,-1.0094,-1.0094,-1.0094,-1.0094,-1.0094,-1.0615,-1.2103,-1.2548,-1.3893,-1.7257,-1.9215,0.0,0.0,0.0,0.0,0.0,0.0,0.0,-2.5365,-2.4548,-2.4918,-2.678,-2.9187,-3.1417,-3.342,-3.3809,-3.4531,-3.5644,-3.5644,-3.5762,-3.5996,-3.5996,-3.5996,-3.5996,-3.5996,-3.6348,-3.6875,-3.5995,-3.568,-3.5536,-3.238,-3.0451,-2.9241,0.0,0.0,0.0,0.0,0.0,0.0,0.0,0.0,0.0,0.0,0.0,0.0,0.0,0.0,0.0,0.0,0.0,0.0,0.0,0.0,0.0,0.0,0.0,0.0,0.0,0.0,0.0,0.0,0.0,0.0,0.0,0.0,-4.2264,-4.2264,-4.3964,-4.5761,-4.7285,-4.832,-4.8711,-4.8223,-4.9726,-5.0703,-5.0703,-5.2305,-5.3281,-5.3281,-5.373,-5.4297,-5.4922,-5.4941,-5.5254,-5.5879,-5.5898,-5.5566,-5.4941,-5.4941,-5.4609,-5.3984,-5.375,-5.3301,-5.2695,-5.2441,-5.1973,-5.1387,-5.1152,-5.1074,-5.0898,-4.9199,-4.8535,-4.8437,-4.7558,-4.6836,-4.6308,-1.0094,-1.0094,-1.0094,-1.0094,-1.0094,-1.0694,-1.243,-1.2702,-1.4162,-1.8254,-1.9677,0.0,0.0,0.0,0.0,0.0,0.0,-2.5846,-2.5327,-2.5197,-2.629,-2.8879,0.0,-3.2736,-3.4499,-3.4992,-3.5488,-3.5996,-3.5996,-3.6191,-3.6543,-3.6543,-3.6738,-3.709,-3.709,-3.7363,-3.7812,-3.7305,-3.7168,-3.7109,-3.4932,-3.3306,-3.1977,-3.0211,-2.8974,-2.7942,-2.6101,-2.5317,-2.499,-2.3985,0.0,0.0,0.0,0.0,0.0,0.0,0.0,0.0,0.0,0.0,0.0,0.0,0.0,0.0,0.0,0.0,0.0,0.0,0.0,0.0,0.0,0.0,0.0,0.0,-4.24,-4.5176,-4.6269,-4.7305,-4.8301,-4.9316,-4.9746,-5.0098,-5.0469,-5.1367,-5.2109,-5.2461,-5.3769,-5.4531,-5.4531,-5.4883,-5.5312,-5.582,-5.584,-5.6094,-5.6601,-5.6601,-5.6348,-5.584,-5.584,-5.5586,-5.5078,-5.4707,-5.4277,0.0,-5.3398,-5.2754,-5.1933,-5.1933,-5.1738,0.0,0.0,0.0,0.0,0.0,-4.7598,-4.6836,-1.0094,-1.0094,-1.0094,-1.0094,-1.0094,-1.0694,-1.243,-1.2702,-1.4489,-1.9504,0.0,0.0,0.0,0.0,0.0,0.0,0.0,0.0,0.0,0.0,0.0,-3.0539,-3.1634,-3.2996,-3.47,-3.5563,-3.6055,-3.6152,-3.6152,-3.6582,-3.7441,-3.7441,-3.7851,-3.8594,-3.8594,-3.8652,-3.873,-3.8633,-3.8203,-3.7578,-3.731,-3.6116,-3.4322,-3.2694,-3.1496,-3.0577,-2.9698,-2.8429,-2.7159,-2.7063,0.0,0.0,0.0,0.0,0.0,0.0,0.0,0.0,0.0,0.0,0.0,0.0,0.0,0.0,0.0,0.0,0.0,0.0,0.0,0.0,0.0,0.0,0.0,0.0,-4.4939,-4.7558,-4.9863,-5.0273,-5.0332,-5.0332,-5.1055,-5.1855,-5.2617,-5.2871,-5.3301,-5.4082,-5.4941,-5.5449,-5.5449,0.0,0.0,0.0,0.0,-5.6601,-5.6601,-5.6601,-5.6601,-5.6601,-5.6601,-5.6601,-5.6562,-5.5801,-5.539,-5.5254,-5.4473,-5.3594,-5.2695,-5.2695,-5.2187,-5.1328,-5.0605,-5.0273,-5.0117,-4.9336,-4.8496,0.0,-1.0094,-1.0094,-1.0094,-1.0094,-1.0094,-1.0694,-1.243,-1.2702,-1.4277,-1.8684,-1.985,0.0,0.0,0.0,0.0,0.0,0.0,0.0,0.0,0.0,-2.949,-3.1465,-3.3124,-3.4525,-3.5611,-3.5875,-3.6348,-3.7051,-3.7051,-3.748,-3.8359,-3.8359,-3.8437,-3.8594,-3.8594,-3.8984,-3.9609,-3.8906,-3.8906,-3.9277,-3.7851,-3.6166,-3.4458,-3.3981,-3.3225,-3.2314,-3.1487,-3.0987,-3.0621,-2.9904,-2.9083,-2.8203,-2.7222,0.0,0.0,0.0,0.0,0.0,0.0,0.0,0.0,0.0,0.0,0.0,0.0,0.0,0.0,0.0,0.0,0.0,0.0,0.0,0.0,-4.4159,-4.7265,-4.9629,-5.0137,-5.0762,-5.1172,-5.1172,-5.1933,-5.2519,-5.2676,-5.3965,-5.4863,-5.5039,-5.5859,-5.6348,-5.6348,-5.6504,0.0,-5.6601,-5.6601,-5.6601,-5.6601,-5.6601,-5.6601,-5.6601,0.0,0.0,-5.6582,-5.6426,-5.5957,-5.5293,-5.5117,-5.416,-5.2695,-5.2695,-5.2187,-5.1387,-5.123,-5.0762,-5.0176,-5.0019,-4.9394,-4.8555,-1.0094,-1.0094,-1.0094,-1.0094,-1.0462,-1.1194,-1.2507,-1.3043,-1.4676,-1.8491,-1.9388,0.0,0.0,0.0,0.0,0.0,0.0,0.0,0.0,-2.8415,-3.0108,-3.2356,-3.3762,-3.4931,-3.5882,-3.5972,-3.6426,-3.7305,-3.7305,-3.7969,-3.9258,-3.9258,-3.9473,-3.9902,-3.9902,-4.0137,-4.0527,-4.0098,-3.9902,-3.9785,-3.8476,-3.7118,-3.5783,-3.5228,-3.439,-3.3506,-3.3103,-3.241,-3.1641,-3.1192,-3.0467,-2.9602,-2.8761,-2.789,-2.6871,0.0,0.0,0.0,0.0,0.0,0.0,0.0,0.0,0.0,0.0,0.0,0.0,0.0,0.0,-3.9135,0.0,0.0,-4.5525,-4.7305,-4.9062,-5.0332,-5.0742,-5.1152,-5.1406,-5.1406,-5.2168,-5.2871,-5.3301,-5.4531,-5.5488,-5.5918,-5.6348,-5.6601,-5.6601,-5.6601,-5.6601,-5.6601,-5.6601,-5.6601,-5.6601,-5.6601,-5.6601,-5.6601,-5.6601,-5.6601,-5.6601,-5.6601,-5.6367,-5.5957,-5.5957,-5.5215,-5.3926,-5.3066,-5.2187,-5.1406,-5.1406,-5.1152,-5.0801,-5.0801,-5.0273,-4.9492,-1.0094,-1.0094,-1.0094,-1.0094,-1.0829,-1.1697,-1.2567,-1.3385,-1.5016,-1.8107,-1.8657,-1.9654,-2.2043,-2.2447,-2.2682,0.0,0.0,0.0,0.0,-2.8819,-3.0474,-3.2991,-3.4147,-3.5104,-3.5882,-3.5972,-3.6504,-3.7559,-3.7559,-3.8437,-4.0156,-4.0156,-4.0527,-4.1191,-4.1191,-4.1191,-4.1191,-4.1191,-4.0781,-4.0059,-3.9023,-3.8139,-3.7304,-3.6147,-3.5199,-3.4449,-3.4269,-3.3134,-3.1698,-3.1698,-3.1006,-3.0038,-2.9525,-2.9239,-2.8727,-2.666,-2.6493,0.0,0.0,0.0,0.0,0.0,0.0,0.0,0.0,0.0,-3.7035,-3.9714,-4.1513,-4.3256,-4.5371,-4.7031,-4.8555,-4.9961,-5.0332,-5.0664,-5.1308,-5.1406,-5.1406,-5.1406,-5.2168,-5.3047,-5.3926,-5.4785,-5.5664,-5.6523,-5.6601,-5.6601,-5.6601,-5.6758,-5.6855,-5.6855,-5.6855,-5.6855,-5.6855,-5.668,-5.6601,-5.6601,-5.6601,-5.6601,-5.6601,-5.6601,-5.6601,-5.6582,-5.6426,-5.5957,-5.5156,-5.3418,-5.2285,-5.1641,-5.1465,-5.1406,-5.1406,-5.1406,-5.0996,-5.041,-1.0094,-1.0094,-1.0094,-1.0094,-1.0829,-1.1697,-1.2567,-1.3385,-1.4593,-1.6522,-1.7411,-1.8542,-2.0385,-2.1216,-2.2274,0.0,0.0,0.0,0.0,-2.939,-3.11,-3.301,-3.4688,-3.5666,-3.5901,-3.5972,-3.6816,-3.8457,-3.8457,-3.9355,-4.1055,-4.1055,-4.1113,-4.1191,-4.1191,-4.1191,-4.1191,-4.1191,-4.1133,-4.0918,-3.9258,-3.8471,-3.8087,-3.6345,-3.5596,-3.5333,-3.4564,-3.317,-3.1698,-3.1698,-3.0602,-2.9352,-3.0038,-2.9766,-2.913,-2.8859,0.0,-2.8226,-2.9482,-3.1191,-3.3241,-3.5833,-3.6034,-3.7232,0.0,0.0,-4.3417,-4.6035,-4.7344,-4.8125,-4.8418,-4.9258,-4.9961,-5.0176,-5.0801,-5.1308,-5.1387,-5.1406,-5.1406,-5.1406,-5.2168,-5.3047,-5.3926,-5.4785,-5.5664,-5.6523,-5.6601,-5.6601,-5.6601,-5.7324,-5.7754,-5.7754,-5.7754,-5.7754,-5.7754,-5.6992,-5.6601,-5.6601,-5.6601,-5.6601,-5.6601,-5.6601,-5.6601,-5.6562,-5.5781,-5.539,-5.5156,-5.3418,-5.2637,-5.248,-5.1699,-5.1406,-5.1406,-5.1406,-5.1348,-5.1152,-1.0094,-1.0094,-1.0269,-1.0771,-1.1581,-1.2447,-1.3269,-1.4113,-1.5096,-1.633,-1.6795,-1.7468,-1.8657,-1.9546,-2.0931,-2.3144,-2.3336,0.0,-2.7703,-2.8986,-3.0637,-3.2883,-3.4216,-3.5162,0.0,0.0,0.0,0.0,0.0,0.0,0.0,-4.1191,-4.1191,-4.1191,-4.1191,-4.1191,-4.1191,-4.1126,-4.0788,-4.0222,-3.8947,-3.8083,-3.7397,-3.5668,-3.4661,-3.4081,-3.3644,-3.2393,0.0,0.0,-3.0158,-2.9226,-2.9598,-2.9507,-2.9168,-2.8702,-2.9416,0.0,-3.4398,-3.5808,0.0,0.0,-4.0369,-4.1834,-4.4238,-4.5019,-4.5664,-4.7266,-4.8691,-4.9668,-4.9668,-5.0332,-5.0898,0.0,-5.1601,-5.1973,-5.1465,-5.1836,-5.1797,-5.082,-5.1445,-5.248,-5.3867,-5.4785,-5.5664,-5.6523,-5.6601,-5.6601,-5.6601,-5.7422,-5.789,-5.789,-5.789,-5.789,-5.789,-5.7031,-5.6601,-5.6601,-5.6601,-5.6601,-5.6601,-5.6601,-5.6601,-5.6582,-5.6211,-5.5762,-5.5195,-5.3965,-5.3164,-5.2617,-5.1738,-5.1406,-5.1406,-5.1406,-5.1406,-5.1348,-1.0094,-1.0288,-1.0733,-1.1601,-1.2466,-1.3233,-1.3802,-1.4632,-1.5423,-1.6061,-1.6349,-1.6891,-1.793,-1.8834,-2.0181,-2.2259,-2.2663,-2.4048,-2.6986,-2.8396,-3.0031,0.0,0.0,0.0,0.0,0.0,0.0,0.0,0.0,0.0,0.0,0.0,0.0,0.0,0.0,0.0,-4.038,-4.0292,-3.9887,-3.9221,0.0,0.0,-3.6472,-3.4775,-3.3398,-3.2367,-3.2276,-3.1143,0.0,0.0,-2.9152,-2.8524,-2.8788,-2.8927,-2.9007,-2.9131,-3.1209,-3.4111,-3.7089,0.0,0.0,-4.1152,-4.3281,-4.4902,-4.4512,-4.5586,-4.6836,-4.7461,-4.8808,-4.9844,-4.9844,-5.0508,0.0,-5.1074,-5.1992,-5.2402,-5.1523,-5.1933,-5.1894,-5.0683,-5.0859,-5.1758,-5.3476,-5.4433,-5.539,-5.6523,-5.6601,-5.6699,-5.6953,-5.7773,-5.8359,-5.8574,-5.8594,-5.8476,-5.8262,-5.7383,-5.6836,-5.6601,-5.6601,-5.6601,-5.6601,-5.6601,-5.6601,-5.6601,-5.6601,-5.623,-5.5586,-5.4726,-5.3848,-5.2969,-5.2109,-5.1601,-5.1406,-5.1406,-5.1406,-5.1406,-1.0094,-1.0771,-1.1639,-1.2507,-1.3327,-1.3879,-1.3898,-1.4632,-1.5212,-1.5231,-1.5984,-1.7122,-1.878,-1.9735,-2.0615,-2.1466,-2.2312,-2.3524,-2.5269,-2.7717,-2.9506,0.0,0.0,0.0,0.0,0.0,0.0,0.0,0.0,0.0,0.0,0.0,0.0,0.0,0.0,0.0,0.0,0.0,0.0,0.0,0.0,0.0,-3.5636,-3.3824,-3.2075,-3.0582,-3.0578,0.0,0.0,0.0,-2.7395,-2.6838,-2.7742,-2.808,0.0,-3.1133,-3.4387,0.0,0.0,0.0,-4.1328,-4.2168,-4.3691,-4.5215,-4.6035,-4.6914,-4.7578,-4.7598,-4.8301,-4.8945,-4.8945,-4.9648,-5.0234,-5.0234,-5.1621,-5.2402,-5.1523,-5.1426,-5.1426,-5.1367,-5.0703,-5.0898,0.0,-5.3535,-5.4746,-5.6465,-5.6601,-5.6973,-5.7812,-5.8691,-5.9512,-6.0293,-6.0312,-5.9941,-5.918,-5.8301,-5.7441,-5.6601,-5.6601,-5.6601,-5.6601,-5.6601,-5.6601,-5.6601,-5.6601,-5.6582,-5.6484,-5.5625,-5.4746,-5.3867,-5.3008,-5.2148,-5.1406,-5.1406,-5.1406,-5.1406,-1.0848,-1.1194,-1.1848,-1.325,-1.3728,-1.4091,-1.467,-1.5019,-1.5404,-1.5984,-1.6776,0.0,0.0,0.0,0.0,0.0,-2.1773,-2.2889,-2.5154,-2.6096,-2.7467,0.0,0.0,0.0,0.0,0.0,0.0,0.0,0.0,0.0,0.0,0.0,0.0,0.0,0.0,0.0,0.0,0.0,0.0,0.0,0.0,0.0,-3.5347,-3.3043,-3.1097,-2.9501,0.0,0.0,0.0,0.0,-2.6877,0.0,-2.7087,0.0,0.0,-3.2688,0.0,0.0,0.0,0.0,-4.3066,-4.3906,-4.5,-4.5937,-4.623,-4.6973,-4.7598,-4.7598,-4.8281,-4.8906,-4.8906,-4.9141,-4.9531,-5.0117,-5.1601,-5.2598,-5.2305,-5.3262,-5.334,-5.1601,-5.2187,0.0,0.0,0.0,0.0,-5.5605,-5.6269,-5.6973,-5.7851,-5.9238,-6.0117,-6.039,-6.039,-6.0019,-5.9219,-5.834,-5.7461,-5.6601,-5.6601,-5.6601,-5.6601,-5.6601,-5.6601,-5.6601,-5.6601,-5.6601,-5.6523,-5.5664,-5.4785,-5.3906,-5.3047,-5.2168,-5.1406,-5.1406,-5.1406,-5.1406,-1.1293,-1.1887,-1.2635,-1.3706,-1.4168,0.0,0.0,0.0,0.0,0.0,0.0,0.0,0.0,0.0,0.0,0.0,0.0,-2.2192,-2.3827,-2.4788,-2.6038,0.0,0.0,0.0,0.0,0.0,0.0,0.0,0.0,0.0,0.0,0.0,0.0,0.0,0.0,0.0,0.0,0.0,0.0,0.0,0.0,0.0,-3.3423,-3.1198,-2.9448,0.0,0.0,0.0,0.0,0.0,0.0,0.0,0.0,0.0,0.0,0.0,0.0,-3.8594,0.0,-4.3262,-4.3984,-4.5176,-4.5898,-4.6308,-4.6308,-4.6738,-4.7051,-4.6738,-4.6875,-4.7031,-4.7031,-4.7031,-4.7539,-4.9023,-5.0937,-5.2344,-5.2656,-5.3926,-5.4219,-5.2539,-5.3047,0.0,0.0,0.0,0.0,-5.5625,-5.6562,-5.7441,-5.832,-5.9668,-6.0547,-6.0859,-6.0859,-6.0469,-5.9648,-5.8789,-5.7773,-5.6601,-5.6601,-5.6601,-5.6601,-5.6601,-5.6601,-5.6601,-5.6601,-5.6601,-5.6562,-5.5996,-5.5078,-5.3945,-5.3379,-5.2441,-5.1406,-5.1406,-5.1406,-5.1406,-1.1466,-1.2788,-1.3918,0.0,0.0,0.0,0.0,0.0,0.0,0.0,0.0,0.0,0.0,0.0,0.0,0.0,0.0,0.0,-2.1504,0.0,0.0,0.0,-2.7582,-2.8989,-2.9163,-2.9929,-3.0353,0.0,0.0,0.0,0.0,0.0,0.0,0.0,0.0,0.0,0.0,0.0,0.0,0.0,0.0,0.0,-3.0212,-2.8544,0.0,0.0,0.0,0.0,0.0,0.0,0.0,0.0,0.0,0.0,0.0,0.0,0.0,-4.1641,-4.3359,-4.3867,-4.4297,-4.5957,-4.6367,-4.6348,-4.6308,-4.6269,-4.5996,-4.5117,-4.4238,-4.3613,0.0,0.0,-4.4531,-4.7051,-4.9687,-5.1719,-5.2637,-5.3555,-5.4121,0.0,0.0,0.0,0.0,0.0,0.0,-5.6601,0.0,-5.8301,-5.9219,-6.0039,-6.0859,-6.168,-6.1699,-6.1289,-6.041,-5.9551,-5.8281,-5.6601,-5.6601,-5.6601,-5.6601,-5.6601,-5.6601,-5.6601,-5.6601,-5.6601,-5.6601,-5.6601,-5.5566,-5.4004,-5.4004,-5.293,-5.1406,-5.1406,-5.1406,-5.1406,0.0,0.0,0.0,0.0,0.0,0.0,0.0,0.0,0.0,0.0,0.0,0.0,0.0,0.0,0.0,0.0,0.0,0.0,0.0,0.0,0.0,0.0,0.0,0.0,-2.7263,-2.87,0.0,0.0,0.0,0.0,0.0,0.0,0.0,0.0,0.0,0.0,0.0,0.0,0.0,0.0,0.0,0.0,-3.0212,0.0,0.0,0.0,0.0,0.0,0.0,0.0,0.0,0.0,0.0,0.0,-3.7344,0.0,0.0,-4.2617,-4.498,-4.6113,-4.6719,-4.7168,-4.7266,-4.7109,-4.6445,-4.5801,-4.5078,-4.4219,-4.334,-4.2344,-4.1094,0.0,0.0,-4.5449,-4.8887,0.0,-5.3457,-5.498,0.0,0.0,0.0,-5.6406,-5.5976,-5.7109,0.0,0.0,-5.8144,-5.8535,-6.0019,-6.0898,-6.1465,-6.1699,-6.1699,-6.1289,-6.041,-5.8965,-5.7676,-5.6601,-5.6601,-5.6601,-5.6601,-5.6601,-5.6601,-5.6601,-5.6601,-5.6601,-5.6601,-5.6601,-5.5566,-5.4004,-5.4004,-5.293,-5.1406,-5.1406,-5.1406,-5.1406,0.0,0.0,0.0,0.0,0.0,0.0,0.0,0.0,0.0,0.0,0.0,0.0,0.0,0.0,0.0,0.0,0.0,0.0,0.0,0.0,0.0,0.0,0.0,0.0,0.0,0.0,0.0,0.0,0.0,0.0,0.0,0.0,0.0,0.0,0.0,0.0,0.0,0.0,0.0,0.0,0.0,0.0,0.0,0.0,0.0,0.0,0.0,0.0,0.0,0.0,0.0,-3.4679,-3.6395,-3.8123,-3.9902,-4.1758,0.0,-4.4023,-4.6269,-4.7226,-4.7598,-4.7598,-4.7598,-4.707,-4.5058,-4.4219,-4.3281,-4.1308,-4.0195,0.0,0.0,0.0,0.0,0.0,0.0,0.0,-5.3125,-5.4922,-5.6133,0.0,-5.7305,0.0,-5.7754,-5.8633,-5.9355,0.0,-5.9277,-5.9414,-6.0351,-6.123,-6.1699,-6.1699,-6.1699,-6.1113,-5.9883,-5.8555,-5.7461,-5.6601,-5.6601,-5.6601,-5.6601,-5.6601,-5.6601,-5.6601,0.0,-5.6601,-5.6601,-5.6601,-5.5566,-5.4004,-5.4004,-5.293,-5.1406,-5.1406,-5.1406,-5.1406,0.0,0.0,0.0,0.0,0.0,0.0,0.0,0.0,0.0,0.0,0.0,0.0,0.0,0.0,0.0,0.0,0.0,0.0,0.0,0.0,0.0,0.0,0.0,0.0,0.0,0.0,0.0,0.0,0.0,0.0,0.0,0.0,0.0,0.0,0.0,0.0,0.0,0.0,0.0,0.0,0.0,0.0,0.0,0.0,0.0,0.0,0.0,0.0,0.0,0.0,-3.5496,-3.7174,-3.9628,-4.1562,-4.3066,-4.3828,-4.457,-4.5547,-4.7305,-4.7695,-4.7637,-4.7734,-4.7598,-4.6543,-4.3164,-4.2148,-4.0957,-3.7637,0.0,0.0,-3.5351,0.0,-3.9238,-4.168,0.0,-4.9531,-5.2305,-5.4101,-5.582,-5.7676,-5.8008,-5.8418,-5.9277,-5.9453,-5.9824,-6.0527,-6.0566,-6.0566,-6.0566,-6.1289,-6.164,-6.1523,-6.1523,-6.0723,-5.9043,-5.8281,-5.7461,-5.6601,-5.6601,-5.6601,-5.6601,-5.6601,-5.6601,-5.6601,0.0,0.0,-5.6601,-5.6601,-5.5566,-5.4004,-5.4004,-5.293,-5.1406,-5.1406,-5.1406,-5.1406,0.0,0.0,0.0,0.0,0.0,0.0,0.0,0.0,0.0,0.0,-1.9219,0.0,0.0,0.0,0.0,0.0,0.0,0.0,0.0,0.0,0.0,0.0,0.0,0.0,0.0,0.0,0.0,0.0,0.0,0.0,0.0,0.0,0.0,0.0,0.0,0.0,0.0,0.0,0.0,0.0,0.0,0.0,0.0,0.0,0.0,0.0,0.0,0.0,0.0,0.0,-3.749,-4.1404,-4.2655,-4.4238,-4.5644,-4.5801,-4.5957,-4.6445,-4.8203,-4.8144,-4.7773,-4.8496,-4.7598,-4.5801,-4.3027,-4.0762,0.0,0.0,0.0,-3.3437,-3.2031,-3.4922,0.0,-4.0039,0.0,0.0,0.0,0.0,-5.5137,0.0,0.0,0.0,0.0,0.0,0.0,0.0,0.0,0.0,-6.1465,-6.1621,-6.1367,-6.0644,-6.0625,-5.9824,-5.8144,-5.7988,-5.7461,-5.6601,-5.6601,-5.6601,-5.6601,-5.6601,-5.6601,-5.6601,0.0,0.0,-5.6601,-5.6601,-5.5566,-5.4004,-5.4004,-5.293,-5.1406,-5.1406,-5.1406,-5.1406,0.0,0.0,0.0,0.0,0.0,0.0,0.0,0.0,0.0,0.0,-2.097,-2.097,0.0,0.0,0.0,0.0,0.0,0.0,0.0,0.0,0.0,0.0,0.0,0.0,0.0,0.0,0.0,0.0,0.0,0.0,0.0,0.0,0.0,0.0,0.0,0.0,0.0,0.0,0.0,0.0,0.0,0.0,0.0,0.0,0.0,0.0,0.0,0.0,0.0,0.0,-3.6044,-4.0197,-4.3378,-4.5254,-4.6308,-4.6308,-4.6308,-4.6582,-4.7871,-4.793,-4.7695,-4.8125,-4.7246,-4.5273,-4.1328,0.0,0.0,0.0,0.0,-3.0644,-3.0293,0.0,0.0,0.0,0.0,0.0,0.0,0.0,0.0,0.0,0.0,0.0,0.0,0.0,0.0,0.0,0.0,0.0,-6.1699,-6.1269,-6.082,-6.041,-5.9551,-5.8711,-5.791,-5.7441,-5.7012,-5.6601,-5.6601,-5.6601,-5.6601,-5.6601,-5.6601,-5.6601,-5.6601,0.0,-5.6601,-5.6601,-5.584,-5.4629,-5.418,-5.3203,-5.2012,-5.1562,-5.1406,-5.1406,0.0,0.0,0.0,0.0,0.0,0.0,0.0,-1.8722,-1.995,-2.1812,-2.2643,-2.2759,-2.187,-2.1043,-2.0481,0.0,0.0,0.0,0.0,0.0,0.0,0.0,0.0,0.0,0.0,0.0,0.0,0.0,0.0,0.0,0.0,0.0,0.0,0.0,0.0,0.0,0.0,0.0,0.0,0.0,0.0,0.0,0.0,0.0,0.0,0.0,0.0,0.0,0.0,0.0,-3.3324,-3.6632,-4.15,-4.416,-4.5508,-4.5683,-4.5879,-4.625,-4.7305,-4.7461,-4.7363,-4.7558,-4.666,-4.4492,-3.9687,-3.6953,0.0,0.0,-2.8633,-2.8281,-2.916,0.0,0.0,0.0,0.0,0.0,0.0,0.0,0.0,0.0,0.0,0.0,0.0,0.0,0.0,0.0,0.0,0.0,0.0,-6.0762,-6.0234,-5.9883,-5.8594,-5.7812,-5.7617,-5.6933,-5.6601,-5.6601,-5.6601,-5.6601,-5.6601,-5.6601,-5.6601,-5.6601,-5.6601,0.0,0.0,-5.6601,-5.5976,-5.4941,-5.4277,-5.3359,-5.2344,-5.1641,-5.1406,-5.1406,0.0,0.0,0.0,0.0,0.0,0.0,0.0,-1.9623,-2.1062,-2.3533,-2.3937,-2.3644,-2.2778,-2.1908,-2.1096,0.0,0.0,0.0,0.0,0.0,0.0,0.0,0.0,0.0,0.0,0.0,0.0,0.0,0.0,0.0,0.0,0.0,0.0,0.0,0.0,0.0,0.0,0.0,0.0,0.0,0.0,0.0,0.0,0.0,0.0,0.0,0.0,0.0,0.0,0.0,0.0,-3.1858,-3.5575,-3.9508,-4.291,-4.3711,0.0,0.0,-4.7148,-4.7012,-4.6601,-4.7402,-4.5742,-4.3008,-3.9414,0.0,0.0,0.0,-2.7734,-2.7383,-2.8262,-2.9902,0.0,0.0,0.0,0.0,0.0,0.0,0.0,0.0,0.0,0.0,0.0,0.0,0.0,0.0,0.0,0.0,0.0,-6.0449,-5.9707,-5.8183,-5.7988,-5.7519,-5.6738,-5.664,-5.6601,-5.6601,-5.6601,-5.6601,-5.6601,-5.6601,-5.6601,-5.6601,0.0,0.0,0.0,-5.6601,-5.5625,-5.4101,-5.4023,-5.2988,-5.1504,-5.1426,-5.1406,-5.1406,0.0,0.0,0.0,0.0,0.0,0.0,0.0,-1.9288,-2.0615,-2.3706,-2.411,-2.3975,-2.3624,-2.2797,-2.1754,0.0,0.0,0.0,0.0,0.0,0.0,0.0,0.0,0.0,0.0,0.0,0.0,0.0,0.0,0.0,0.0,0.0,0.0,0.0,0.0,0.0,0.0,0.0,0.0,0.0,0.0,0.0,0.0,0.0,0.0,0.0,0.0,0.0,0.0,0.0,0.0,0.0,-3.0799,-3.3875,0.0,0.0,-4.3164,-4.4473,-4.5703,-4.6152,-4.6387,-4.6738,-4.4844,-4.2168,-3.9258,0.0,0.0,-2.8906,-2.7187,-2.6641,-2.8047,-2.8867,-3.0625,-3.457,-3.5644,-3.7969,0.0,0.0,0.0,0.0,0.0,0.0,0.0,0.0,0.0,0.0,0.0,0.0,0.0,-5.8906,-5.8594,-5.793,-5.7383,-5.6953,-5.6601,-5.6601,-5.6601,-5.6601,-5.6601,-5.6601,-5.6601,-5.6601,-5.6601,-5.6601,0.0,0.0,0.0,-5.6601,-5.5879,-5.4726,-5.4199,-5.3262,-5.2129,-5.1582,-5.1406,-5.1406,0.0,0.0,0.0,0.0,0.0,0.0,-1.8615,-1.9,-2.0139,-2.3297,-2.3725,-2.3725,-2.3725,-2.2932,-2.1947,-2.075,0.0,0.0,0.0,0.0,0.0,0.0,0.0,0.0,0.0,0.0,0.0,0.0,0.0,0.0,0.0,0.0,0.0,0.0,0.0,0.0,0.0,0.0,0.0,0.0,0.0,0.0,0.0,0.0,0.0,0.0,0.0,0.0,0.0,0.0,0.0,0.0,0.0,0.0,0.0,0.0,-4.1055,-4.2871,-4.4238,-4.5254,-4.5918,-4.5918,-4.4141,-4.168,0.0,0.0,-3.1465,-2.8848,-2.6914,-2.623,-2.7988,-2.8301,-2.9531,0.0,-3.4082,-3.6016,-4.1308,0.0,0.0,0.0,0.0,0.0,0.0,0.0,0.0,0.0,0.0,0.0,0.0,-5.7656,-5.7519,-5.7519,-5.6914,-5.6601,-5.6601,-5.6601,-5.6601,-5.6601,-5.6601,-5.6601,-5.6601,-5.6601,-5.6601,0.0,0.0,0.0,0.0,-5.6328,-5.5703,-5.4824,-5.3965,-5.3086,-5.2246,-5.1621,-5.1406,-5.1406,0.0,0.0,0.0,0.0,0.0,0.0,0.0,-1.8992,-1.9915,-2.2489,-2.2816,-2.2816,-2.2816,-2.2043,-2.1504,-2.1485,0.0,0.0,0.0,0.0,0.0,0.0,0.0,0.0,0.0,0.0,0.0,0.0,0.0,0.0,0.0,0.0,0.0,0.0,0.0,0.0,0.0,0.0,0.0,0.0,0.0,0.0,0.0,0.0,0.0,0.0,0.0,0.0,0.0,0.0,0.0,0.0,0.0,0.0,0.0,0.0,-3.7891,-4.0488,-4.3027,-4.4355,-4.5019,-4.5019,-4.3691,-4.1504,0.0,-3.4668,-3.1465,-2.8848,-2.6914,-2.623,-2.7988,-2.8301,-2.916,-3.1797,-3.4336,-3.7207,-4.0723,0.0,0.0,0.0,0.0,0.0,0.0,0.0,0.0,0.0,0.0,0.0,0.0,0.0,-5.6601,-5.6601,-5.6601,-5.6601,-5.6601,-5.6601,-5.6601,-5.6601,-5.6601,-5.6601,-5.6601,-5.6601,0.0,0.0,0.0,0.0,0.0,-5.5664,-5.4805,-5.3926,-5.3047,-5.2187,-5.1406,-5.1406,-5.1406,-5.1406,0.0,0.0,0.0,0.0,0.0,0.0,0.0,-1.7295,-1.8219,-2.0754,-2.11,-2.1523,-2.2682,-2.2023,-2.1504,-2.1504,0.0,0.0,0.0,0.0,0.0,0.0,0.0,0.0,0.0,0.0,0.0,0.0,0.0,0.0,0.0,0.0,0.0,0.0,0.0,0.0,0.0,0.0,0.0,0.0,0.0,0.0,0.0,0.0,0.0,0.0,0.0,0.0,0.0,0.0,0.0,0.0,0.0,0.0,0.0,-3.0036,-3.3828,0.0,-3.8223,-3.9512,-4.0332,-3.9141,-3.7988,-3.6543,-3.4316,-3.2051,-2.9844,-2.7832,-2.6504,-2.623,-2.7988,-2.8301,-2.9726,-3.4082,-3.5469,0.0,0.0,0.0,0.0,0.0,0.0,0.0,0.0,0.0,0.0,0.0,0.0,0.0,0.0,0.0,-5.6601,-5.6601,-5.6601,-5.6601,-5.6601,-5.6601,-5.6601,-5.6601,-5.6601,-5.6601,-5.6601,-5.6601,0.0,0.0,0.0,0.0,0.0,-5.541,-5.4433,-5.3086,-5.2812,-5.2168,-5.1406,-5.1406,-5.1406,-5.1406,0.0,0.0,0.0,0.0,0.0,0.0,0.0,-1.6506,-1.7292,-1.9523,-1.9812,-2.0446,-2.212,-2.1543,-2.1173,-2.1466,0.0,0.0,0.0,0.0,0.0,0.0,0.0,0.0,0.0,0.0,0.0,0.0,0.0,0.0,0.0,0.0,0.0,0.0,0.0,0.0,0.0,0.0,0.0,0.0,0.0,0.0,-2.5308,0.0,0.0,0.0,0.0,0.0,0.0,0.0,0.0,0.0,0.0,0.0,0.0,0.0,-3.0312,-3.3379,0.0,-3.6055,-3.6875,-3.5781,-3.4844,-3.3769,-3.209,-3.0351,-2.8711,-2.7285,-2.6309,-2.623,-2.7988,-2.8301,-2.9687,-3.3887,-3.5098,0.0,0.0,0.0,0.0,0.0,0.0,0.0,0.0,0.0,0.0,0.0,0.0,0.0,0.0,0.0,-5.6601,-5.6601,-5.6601,-5.6601,-5.6601,-5.6601,-5.6601,-5.6601,-5.6601,-5.6601,-5.6601,0.0,0.0,0.0,0.0,0.0,0.0,-5.4453,-5.3672,-5.2676,-5.2344,-5.1875,-5.1406,-5.1406,-5.1406,-5.1406,0.0,0.0,0.0,0.0,0.0,0.0,0.0,0.0,0.0,0.0,-1.8876,-1.953,-2.1158,-2.0712,-2.0596,0.0,0.0,0.0,0.0,0.0,0.0,0.0,0.0,0.0,0.0,0.0,0.0,0.0,-2.664,-2.6659,-2.6621,0.0,0.0,0.0,0.0,0.0,0.0,0.0,0.0,0.0,0.0,-2.5308,0.0,0.0,0.0,0.0,0.0,0.0,0.0,0.0,0.0,0.0,0.0,0.0,0.0,0.0,0.0,0.0,0.0,-3.3535,-3.4219,-3.4082,-3.3496,-3.2519,-3.0898,-2.9336,0.0,-2.709,-2.6269,-2.6289,-2.8223,-2.8476,-2.9355,-3.2266,0.0,0.0,0.0,0.0,0.0,0.0,0.0,0.0,0.0,0.0,0.0,0.0,0.0,0.0,0.0,0.0,0.0,-5.6601,-5.6601,-5.6601,-5.6601,-5.6601,-5.6601,-5.6601,-5.6601,-5.6601,-5.6601,0.0,0.0,0.0,0.0,0.0,0.0,-5.3027,-5.2656,-5.2539,-5.1719,-5.1406,-5.1406,-5.1406,-5.1406,-5.1406,0.0,0.0,0.0,0.0,0.0,0.0,0.0,0.0,0.0,0.0,-1.7622,-1.8411,-1.9473,-2.0004,-2.0385,0.0,0.0,0.0,0.0,0.0,0.0,0.0,0.0,0.0,0.0,0.0,0.0,-2.5615,-2.6948,-2.7255,-2.664,-2.8126,0.0,0.0,0.0,0.0,0.0,0.0,0.0,0.0,-2.5308,-2.5308,0.0,0.0,0.0,0.0,-2.5308,-2.5308,0.0,0.0,0.0,0.0,0.0,0.0,0.0,0.0,-2.6152,-2.6484,-2.7285,0.0,-2.9473,-2.8144,-2.8164,-2.8223,0.0,-2.7129,-2.7051,-2.6191,0.0,-2.6836,-3.0586,-3.0195,-3.123,0.0,0.0,0.0,0.0,0.0,0.0,0.0,0.0,0.0,0.0,0.0,0.0,0.0,0.0,0.0,0.0,0.0,0.0,-5.6601,-5.6601,-5.6601,-5.6601,-5.6601,-5.6601,-5.6601,-5.6601,-5.6601,-5.6582,0.0,0.0,0.0,0.0,0.0,-5.2988,-5.2773,-5.2305,-5.1699,-5.1484,-5.1406,-5.1406,-5.1406,-5.1406,-5.1406,0.0,0.0,0.0,0.0,0.0,0.0,0.0,0.0,0.0,0.0,0.0,0.0,0.0,0.0,0.0,0.0,0.0,0.0,0.0,0.0,0.0,0.0,0.0,0.0,0.0,0.0,0.0,0.0,0.0,-2.7857,0.0,0.0,0.0,0.0,0.0,0.0,0.0,0.0,0.0,0.0,0.0,0.0,0.0,0.0,0.0,0.0,-2.5308,-2.5308,0.0,-2.5308,-2.5308,-2.5312,0.0,0.0,0.0,0.0,-2.5703,-2.5703,-2.5703,-2.7266,-2.8672,-2.7734,-2.7832,-2.8066,-2.7598,-2.6934,0.0,0.0,0.0,-2.7266,-3.043,-3.1191,0.0,0.0,0.0,0.0,0.0,0.0,0.0,0.0,0.0,0.0,0.0,0.0,0.0,0.0,0.0,0.0,0.0,0.0,0.0,0.0,-5.6601,-5.6601,-5.6601,-5.6601,-5.6601,-5.6601,-5.6601,-5.6601,-5.6562,0.0,0.0,0.0,0.0,0.0,-5.2109,-5.2109,-5.1836,-5.1406,-5.1406,-5.1406,-5.1406,-5.1406,-5.1406,-5.1406,0.0,0.0,0.0,0.0,0.0,0.0,0.0,0.0,0.0,0.0,0.0,0.0,0.0,0.0,0.0,0.0,0.0,0.0,0.0,0.0,0.0,0.0,0.0,0.0,0.0,0.0,0.0,0.0,0.0,0.0,0.0,0.0,0.0,0.0,0.0,0.0,0.0,0.0,0.0,0.0,0.0,0.0,0.0,0.0,0.0,0.0,0.0,0.0,0.0,-2.5308,-2.5308,-2.5312,-2.5465,0.0,0.0,0.0,0.0,0.0,-2.6191,-2.8203,-3.0019,-2.9375,-2.9492,-2.9726,-2.9453,0.0,0.0,0.0,0.0,0.0,0.0,0.0,0.0,0.0,0.0,0.0,0.0,0.0,0.0,0.0,0.0,0.0,0.0,0.0,0.0,0.0,0.0,0.0,0.0,0.0,0.0,0.0,-5.6601,-5.6601,-5.6601,-5.6601,-5.6601,-5.6601,-5.6601,-5.6523,-5.6367,-5.5508,0.0,0.0,0.0,0.0,-5.1406,-5.1406,-5.1406,-5.1406,-5.1406,-5.1406,-5.1406,-5.1406,-5.1406,-5.1406,0.0,0.0,0.0,0.0,0.0,0.0,0.0,0.0,0.0,0.0,0.0,0.0,0.0,0.0,0.0,0.0,0.0,0.0,0.0,0.0,0.0,0.0,0.0,0.0,0.0,0.0,0.0,0.0,0.0,0.0,-2.8126,-3.0429,-3.014,0.0,0.0,0.0,0.0,0.0,0.0,0.0,0.0,0.0,0.0,0.0,0.0,0.0,0.0,0.0,0.0,-2.5308,-2.5308,-2.5312,-2.5465,0.0,0.0,0.0,0.0,0.0,-2.8398,-3.0879,-3.1934,-2.8301,-2.9062,-3.0312,-2.8848,0.0,0.0,0.0,0.0,0.0,0.0,0.0,0.0,0.0,0.0,0.0,0.0,0.0,0.0,0.0,0.0,0.0,0.0,0.0,0.0,0.0,0.0,0.0,0.0,0.0,0.0,0.0,0.0,-5.6601,-5.6601,-5.6601,-5.6601,-5.6601,-5.6601,-5.6211,-5.5469,-5.4609,-5.3711,0.0,0.0,-5.1523,-5.1406,-5.1406,-5.1406,-5.1406,-5.1406,-5.1406,-5.1406,-5.1406,-5.1406,-5.1406,0.0,0.0,0.0,0.0,0.0,0.0,0.0,0.0,0.0,0.0,0.0,0.0,0.0,0.0,0.0,0.0,0.0,0.0,0.0,0.0,0.0,0.0,0.0,0.0,0.0,0.0,0.0,0.0,0.0,-2.914,-2.9256,-2.9525,-2.8775,-2.714,0.0,0.0,0.0,0.0,0.0,0.0,0.0,0.0,0.0,0.0,0.0,0.0,0.0,0.0,0.0,0.0,-2.5312,-2.5375,-2.5477,0.0,0.0,0.0,0.0,0.0,-2.7168,-2.9726,-3.1582,-2.9609,-3.1758,-3.4277,-3.3945,-3.2773,0.0,0.0,0.0,0.0,0.0,0.0,0.0,0.0,0.0,0.0,0.0,0.0,0.0,0.0,0.0,0.0,0.0,0.0,0.0,0.0,0.0,0.0,0.0,0.0,0.0,0.0,0.0,0.0,-5.5195,-5.5195,-5.543,-5.5898,-5.543,-5.498,-5.457,-5.3691,-5.3086,-5.2656,0.0,-5.1406,-5.1406,-5.1406,-5.1406,-5.1406,-5.1406,-5.1406,-5.1406,-5.1406,-5.1406,-5.1406,0.0,0.0,0.0,0.0,0.0,0.0,0.0,0.0,0.0,0.0,0.0,0.0,0.0,0.0,0.0,0.0,0.0,0.0,0.0,0.0,0.0,0.0,0.0,0.0,0.0,0.0,0.0,-2.7895,-2.8915,-2.9756,-3.0365,-2.8486,-2.7236,0.0,0.0,0.0,0.0,0.0,0.0,-2.5308,0.0,0.0,0.0,0.0,0.0,0.0,0.0,0.0,0.0,0.0,0.0,0.0,0.0,0.0,0.0,-2.5683,-2.5703,-2.582,-2.6445,-2.8711,-3.1035,-3.1641,-3.4101,-3.6719,-3.8008,-3.6426,0.0,0.0,0.0,0.0,0.0,0.0,0.0,0.0,0.0,0.0,0.0,0.0,0.0,0.0,0.0,0.0,0.0,0.0,0.0,0.0,0.0,0.0,0.0,0.0,0.0,0.0,0.0,0.0,-5.4004,-5.3808,-5.4121,-5.498,-5.4316,-5.3887,-5.3672,-5.3008,-5.2598,-5.2363,-5.1699,-5.1406,-5.1406,-5.1406,-5.1406,-5.1406,-5.1406,-5.1406,-5.1406,-5.1406,-5.1406,-5.1406,0.0,0.0,0.0,0.0,0.0,0.0,0.0,0.0,0.0,0.0,0.0,0.0,0.0,0.0,0.0,0.0,0.0,0.0,0.0,0.0,0.0,0.0,0.0,0.0,0.0,-2.6115,-2.7024,-2.7895,-2.9525,-3.0346,-3.0346,-2.7865,-2.6659,-2.6563,0.0,0.0,0.0,0.0,0.0,-2.5308,-2.5308,0.0,0.0,0.0,0.0,0.0,0.0,0.0,0.0,0.0,0.0,0.0,0.0,0.0,-2.5607,-2.5683,-2.5703,-2.623,-2.8652,-3.0098,-3.1465,-3.3848,-3.4043,-3.4336,-3.6836,-3.5996,0.0,-3.7812,0.0,0.0,0.0,0.0,0.0,0.0,0.0,0.0,0.0,0.0,0.0,0.0,0.0,0.0,0.0,0.0,0.0,0.0,0.0,0.0,0.0,0.0,0.0,0.0,0.0,0.0,-5.4004,-5.3203,-5.3223,-5.4082,-5.4023,-5.3574,-5.2793,-5.2734,-5.2266,-5.1484,-5.1426,-5.1406,-5.1406,-5.1406,-5.1406,-5.1406,-5.1406,-5.1406,-5.1406,-5.1406,-5.1406,-5.1406,0.0,0.0,0.0,0.0,0.0,0.0,0.0,0.0,0.0,0.0,0.0,0.0,0.0,0.0,0.0,0.0,0.0,0.0,0.0,0.0,0.0,0.0,0.0,-2.4721,-2.6077,-2.6967,-2.7813,-2.8646,-2.9275,-2.9063,-2.8019,-2.7044,0.0,0.0,0.0,0.0,0.0,0.0,0.0,-2.5308,-2.5308,-2.5308,0.0,0.0,0.0,0.0,0.0,0.0,0.0,0.0,-2.4416,-2.4824,-2.5371,-2.5605,-2.5661,-2.5683,-2.5703,-2.5918,-2.6914,-2.9394,-3.1934,-3.2891,-3.4492,0.0,0.0,-4.0019,-4.0723,-4.2266,-4.2832,0.0,0.0,0.0,0.0,0.0,0.0,0.0,0.0,0.0,0.0,0.0,0.0,0.0,0.0,0.0,0.0,0.0,0.0,0.0,0.0,0.0,0.0,0.0,0.0,0.0,0.0,-5.2051,-5.2051,-5.2383,-5.2383,-5.2207,-5.1894,-5.1894,-5.1719,-5.1406,-5.1406,-5.1406,-5.1406,-5.1406,-5.1406,-5.1406,-5.1406,-5.1406,-5.1406,-5.1406,-5.1406,-5.1406,0.0,0.0,0.0,0.0,0.0,0.0,0.0,0.0,0.0,0.0,0.0,0.0,0.0,0.0,0.0,0.0,0.0,0.0,0.0,0.0,0.0,0.0,0.0,-2.4471,-2.6154,-2.6774,-2.7621,-2.8723,-2.8453,-2.7717,-2.6601,0.0,0.0,0.0,0.0,0.0,0.0,0.0,0.0,0.0,-2.5308,-2.5308,0.0,0.0,0.0,0.0,0.0,0.0,0.0,0.0,-2.3781,-2.4397,0.0,-2.5423,-2.5703,-2.5703,-2.6094,-2.6523,-2.6523,-2.9101,-3.1973,-3.2793,0.0,0.0,-4.0918,-4.2266,-4.3398,-4.5058,-4.541,0.0,0.0,0.0,0.0,0.0,0.0,0.0,0.0,0.0,0.0,0.0,0.0,0.0,0.0,0.0,0.0,0.0,0.0,0.0,0.0,0.0,0.0,0.0,0.0,0.0,0.0,-5.1406,-5.1406,-5.1406,-5.1406,-5.1406,-5.1406,-5.1406,-5.1406,-5.1406,-5.1406,-5.1406,-5.1406,-5.1406,-5.1406,-5.1406,-5.1406,-5.1406,-5.1406,-5.1406,-5.1406,-5.1406,0.0,0.0,0.0,0.0,0.0,0.0,0.0,0.0,0.0,0.0,0.0,0.0,0.0,0.0,0.0,0.0,0.0,0.0,0.0,0.0,0.0,0.0,0.0,-2.3581,-2.525,-2.5288,-2.6135,-2.7895,-2.7024,-2.6601,-2.6563,-2.5692,0.0,0.0,0.0,0.0,0.0,0.0,0.0,0.0,-2.5308,-2.5308,-2.5115,0.0,0.0,0.0,0.0,0.0,0.0,0.0,-2.2795,-2.4273,0.0,0.0,0.0,-2.5703,-2.6934,-2.8281,-2.8281,-2.957,-3.1523,0.0,0.0,0.0,-4.1641,-4.1797,-4.2207,-4.5605,0.0,0.0,0.0,0.0,0.0,0.0,0.0,0.0,0.0,0.0,0.0,0.0,0.0,0.0,0.0,0.0,0.0,0.0,0.0,0.0,0.0,0.0,0.0,0.0,0.0,0.0,0.0,-5.1406,-5.1406,-5.1406,-5.1406,-5.1406,-5.1406,-5.1406,-5.1406,-5.1406,-5.1406,-5.1406,-5.1406,-5.1406,-5.1406,-5.1406,-5.1406,-5.1406,-5.1406,-5.1406,-5.1406,-5.1406,0.0,0.0,0.0,0.0,0.0,0.0,0.0,0.0,0.0,0.0,0.0,0.0,0.0,0.0,0.0,0.0,0.0,0.0,0.0,0.0,0.0,0.0,0.0,0.0,0.0,0.0,-2.5298,-2.6986,-2.6736,-2.6288,0.0,0.0,0.0,-2.5308,0.0,0.0,0.0,0.0,0.0,0.0,-2.5308,-2.5308,-2.5173,0.0,0.0,0.0,0.0,0.0,0.0,0.0,0.0,0.0,-2.398,0.0,-2.5703,-2.5703,-2.6504,-2.7383,-2.7383,-2.9961,0.0,0.0,0.0,0.0,0.0,-4.3594,0.0,0.0,0.0,0.0,0.0,0.0,0.0,0.0,0.0,0.0,0.0,0.0,0.0,0.0,0.0,0.0,0.0,0.0,0.0,0.0,0.0,0.0,0.0,0.0,0.0,0.0,0.0,0.0,0.0,-5.1406,-5.1406,-5.1406,-5.1406,-5.1406,-5.1406,-5.1406,-5.1406,-5.1406,-5.1406,-5.1406,-5.1406,-5.1406,-5.1406,-5.1406,-5.1406,-5.1406,-5.1406,-5.1406,-5.1406,-5.1406,0.0,0.0,0.0,0.0,0.0,0.0,0.0,0.0,0.0,0.0,0.0,-1.7353,0.0,0.0,0.0,0.0,0.0,0.0,0.0,0.0,0.0,0.0,0.0,0.0,0.0,-2.411,-2.4586,0.0,0.0,0.0,0.0,0.0,0.0,-2.5308,0.0,-2.5115,0.0,0.0,0.0,0.0,-2.5213,-2.5354,-2.5256,0.0,0.0,0.0,0.0,0.0,0.0,0.0,0.0,0.0,-2.3183,0.0,0.0,-2.5508,-2.6562,-2.7812,-2.918,0.0,0.0,0.0,0.0,0.0,0.0,0.0,0.0,0.0,0.0,0.0,0.0,0.0,0.0,0.0,0.0,0.0,0.0,0.0,0.0,0.0,0.0,0.0,0.0,0.0,0.0,0.0,0.0,0.0,0.0,0.0,0.0,0.0,0.0,0.0,-5.1406,-5.1406,-5.1406,-5.1406,-5.1406,-5.1406,-5.1406,-5.1406,-5.1406,-5.1406,-5.1406,-5.1406,-5.1406,-5.1406,-5.1406,-5.1406,-5.1406,-5.1406,-5.1406,-5.1406,-5.1406,-5.1406,0.0,0.0,-1.5192,-1.5192,0.0,0.0,0.0,0.0,0.0,0.0,-1.6599,-1.7584,0.0,0.0,0.0,-2.0173,0.0,0.0,0.0,0.0,0.0,0.0,0.0,0.0,0.0,0.0,0.0,0.0,0.0,0.0,0.0,0.0,-2.5308,-2.5308,0.0,-2.4856,0.0,0.0,0.0,0.0,-2.49,-2.5217,-2.5099,-2.3582,0.0,0.0,0.0,0.0,0.0,0.0,0.0,0.0,-2.2266,-2.2578,-2.3535,-2.5117,-2.6816,-2.8906,-3.2266,0.0,0.0,0.0,0.0,0.0,0.0,0.0,0.0,0.0,0.0,0.0,0.0,0.0,0.0,0.0,0.0,0.0,0.0,0.0,0.0,0.0,0.0,0.0,0.0,0.0,0.0,0.0,0.0,0.0,0.0,0.0,0.0,0.0,0.0,0.0,-5.1172,-5.1172,-5.1172,0.0,-5.1172,-5.1172,-5.1172,-5.1328,-5.1406,-5.1406,-5.1406,-5.1406,-5.1387,-5.1328,-5.1289,-5.1289,-5.1191,-5.1172,-5.1172,-5.1172,-5.1172,-5.1172,0.0,0.0,-1.5192,-1.5192,0.0,0.0,0.0,0.0,-1.5965,-1.5288,-1.6118,-1.6756,-1.6756,-1.7661,0.0,-1.9223,-1.9908,0.0,0.0,0.0,0.0,0.0,0.0,0.0,0.0,0.0,0.0,0.0,0.0,0.0,0.0,0.0,0.0,-2.5308,0.0,-2.485,0.0,0.0,0.0,-2.3275,-2.345,-2.3516,-2.3492,-2.314,-2.2604,0.0,0.0,0.0,0.0,0.0,0.0,0.0,-2.2988,-2.3477,-2.4199,-2.457,-2.5918,-2.7891,0.0,-3.3164,0.0,0.0,0.0,0.0,0.0,0.0,0.0,0.0,0.0,0.0,0.0,0.0,0.0,0.0,0.0,0.0,0.0,0.0,0.0,0.0,0.0,0.0,0.0,0.0,0.0,0.0,0.0,0.0,0.0,0.0,0.0,0.0,0.0,-4.9433,-4.9433,-4.9433,-4.9433,0.0,-4.9433,-4.9433,-4.9473,-5.0801,-5.1406,-5.1406,-5.1406,-5.1406,-5.1348,-5.0723,-5.0469,-5.0391,-4.9707,-4.9433,-4.9433,-4.9433,-4.9433,-4.9531,0.0,0.0,0.0,0.0,0.0,0.0,0.0,0.0,-1.6772,-1.5926,-1.693,-1.7545,-1.7122,-1.7811,0.0,0.0,-1.9411,-1.985,0.0,0.0,0.0,0.0,0.0,0.0,0.0,0.0,0.0,0.0,0.0,0.0,0.0,0.0,0.0,-2.5904,0.0,-2.4844,0.0,0.0,-2.3098,-2.2463,-2.287,-2.3059,-2.3018,-2.2628,-2.2208,-2.1789,-2.1379,0.0,0.0,0.0,0.0,0.0,0.0,0.0,-2.3359,-2.416,-2.5039,-2.668,0.0,0.0,0.0,0.0,0.0,0.0,0.0,0.0,0.0,0.0,0.0,0.0,0.0,0.0,0.0,0.0,0.0,0.0,0.0,0.0,0.0,0.0,0.0,0.0,0.0,0.0,0.0,0.0,0.0,0.0,0.0,0.0,0.0,0.0,-4.8906,-4.8906,-4.8906,-4.8906,-4.8906,-4.8906,-4.8906,-4.8906,-4.8926,-4.9805,-5.0195,-5.0195,-5.0195,-5.0195,-5.0176,-4.9746,-4.957,-4.9531,-4.9082,-4.8906,-4.8906,-4.8906,-4.8906,-4.9023,0.0,0.0,0.0,0.0,0.0,0.0,0.0,0.0,0.0,-1.6603,-1.7968,-1.8623,-1.7603,-1.825,-1.8712,0.0,0.0,0.0,-2.0023,0.0,0.0,0.0,0.0,0.0,0.0,0.0,0.0,0.0,0.0,0.0,0.0,0.0,0.0,-2.6593,0.0,0.0,0.0,0.0,-2.2412,-2.1666,-2.2386,-2.2669,-2.2598,-2.1934,-2.168,-2.1582,-2.0859,-2.1152,-2.1914,-2.2051,0.0,0.0,0.0,0.0,-2.2363,-2.3613,-2.418,-2.5566,0.0,0.0,0.0,0.0,0.0,0.0,0.0,0.0,0.0,0.0,0.0,0.0,0.0,0.0,0.0,0.0,0.0,0.0,0.0,0.0,0.0,0.0,0.0,0.0,0.0,0.0,0.0,0.0,0.0,0.0,0.0,0.0,0.0,0.0,-4.8457,-4.8457,-4.8457,-4.8457,-4.8457,-4.8457,-4.8457,-4.8457,-4.8457,-4.8457,-4.8613,-4.8906,-4.8906,-4.8906,-4.8887,-4.873,-4.8672,-4.8652,-4.8516,-4.8457,-4.8457,-4.8457,-4.8457,-4.8574,0.0,0.0,0.0,0.0,0.0,0.0,0.0,0.0,0.0,0.0,-1.7962,-1.8404,-1.683,-1.7391,-1.7584,-1.6891,-1.8164,-1.9049,0.0,0.0,0.0,0.0,0.0,0.0,0.0,0.0,0.0,0.0,0.0,0.0,0.0,0.0,0.0,-2.6671,0.0,0.0,0.0,0.0,-2.2189,-2.0761,-2.0898,-2.0937,-2.0918,-2.0801,-2.0762,-2.0762,-2.0644,-2.1152,-2.2012,-2.2695,-2.3516,0.0,0.0,0.0,0.0,0.0,0.0,-2.4902,0.0,0.0,0.0,0.0,0.0,0.0,0.0,0.0,0.0,0.0,0.0,0.0,0.0,0.0,0.0,0.0,0.0,0.0,0.0,0.0,0.0,0.0,0.0,0.0,0.0,0.0,0.0,0.0,0.0,0.0,0.0,0.0,-4.6641,-4.6641,-4.6641,-4.6641,-4.6641,-4.6641,-4.6641,-4.6641,-4.6641,-4.6641,-4.6641,-4.6641,-4.7461,-4.8906,-4.8906,-4.8906,-4.8848,-4.8086,-4.7773,-4.7695,-4.6933,-4.6641,-4.6641,-4.6641,-4.6641,-4.6777,0.0,0.0,0.0,0.0,0.0,0.0,0.0,0.0,0.0,0.0,0.0,-1.8731,-1.7988,-1.7776,-1.7564,-1.7199,-1.743,0.0,0.0,0.0,0.0,0.0,0.0,0.0,0.0,0.0,0.0,0.0,0.0,0.0,0.0,-2.8043,-2.8623,0.0,0.0,0.0,0.0,0.0,-2.1964,-2.1289,-2.0801,-2.1465,-2.2578,-2.1133,-2.1484,-2.2539,-2.1113,-2.0859,-2.1309,-2.2148,-2.2988,-2.3535,0.0,0.0,0.0,0.0,0.0,0.0,0.0,0.0,0.0,0.0,0.0,0.0,0.0,0.0,0.0,0.0,0.0,0.0,0.0,0.0,0.0,0.0,0.0,0.0,0.0,0.0,0.0,0.0,0.0,0.0,0.0,0.0,0.0,0.0,0.0,0.0,0.0,-4.6308,-4.6308,-4.6308,-4.6308,0.0,-4.6308,-4.6308,-4.6308,-4.6308,-4.6308,-4.6308,-4.6308,-4.6308,-4.6719,-4.7441,-4.7441,-4.7441,-4.7402,-4.7031,-4.6875,-4.6836,-4.6445,-4.6308,-4.6308,-4.6308,-4.6308,-4.6426,0.0,0.0,0.0,0.0,0.0,0.0,0.0,0.0,0.0,0.0,0.0,-1.9,-1.8992,0.0,0.0,0.0,-1.6853,0.0,0.0,0.0,0.0,0.0,0.0,0.0,0.0,0.0,0.0,0.0,0.0,0.0,-2.8222,-2.8713,-3.0319,0.0,-3.0381,0.0,0.0,0.0,0.0,-2.2812,-2.2168,-2.3027,-2.4609,-2.3359,-2.3926,-2.5117,-2.2988,0.0,0.0,0.0,0.0,0.0,0.0,0.0,0.0,0.0,0.0,0.0,0.0,0.0,0.0,0.0,0.0,0.0,0.0,0.0,0.0,0.0,0.0,0.0,0.0,0.0,0.0,0.0,0.0,0.0,0.0,0.0,0.0,0.0,0.0,0.0,0.0,0.0,0.0,0.0,0.0,0.0,-4.6308,-4.6308,-4.6308,-4.6308,-4.6308,-4.6308,-4.6308,-4.6308,-4.6308,-4.6308,-4.6308,-4.6308,-4.6308,-4.6308,-4.6308,-4.6308,-4.6308,-4.6308,-4.6308,-4.6308,-4.6308,-4.6308,-4.6308,-4.6308,-4.6308,-4.6308,-4.6308,-4.6387,0.0,0.0,0.0,0.0,0.0,0.0,0.0,0.0,0.0,0.0,0.0,-1.9,-1.8992,-1.8222,-1.7391,-1.6622,-1.6522,0.0,0.0,0.0,0.0,0.0,0.0,0.0,0.0,0.0,0.0,0.0,0.0,0.0,-2.9011,-2.831,-3.067,-3.5412,-3.3752,-3.0807,-2.7051,0.0,0.0,-2.5508,-2.5449,-2.5508,-2.5898,-2.8242,-2.8691,-2.7969,0.0,0.0,0.0,0.0,0.0,0.0,0.0,0.0,0.0,0.0,0.0,0.0,0.0,0.0,0.0,0.0,0.0,0.0,0.0,0.0,0.0,0.0,0.0,0.0,0.0,0.0,0.0,0.0,0.0,0.0,0.0,0.0,0.0,0.0,0.0,0.0,0.0,0.0,0.0,0.0,0.0,0.0,-4.6308,-4.6308,-4.6308,-4.6308,-4.6308,-4.6308,-4.6308,-4.6308,-4.6308,-4.6308,-4.6308,-4.6308,-4.6308,-4.6308,-4.6308,-4.6308,-4.6308,-4.6308,-4.6308,-4.6308,-4.6308,-4.6308,-4.6308,-4.6308,-4.6308,-4.6308,-4.6308,-4.6308,0.0,0.0,0.0,0.0,0.0,0.0,0.0,0.0,0.0,0.0,0.0,0.0,0.0,-1.9058,-1.8192,-1.7334,-1.6292,0.0,0.0,0.0,0.0,0.0,0.0,0.0,0.0,0.0,0.0,0.0,0.0,-2.1124,-2.5919,-2.6786,-2.8496,-3.0827,-3.0759,-3.059,-3.0117,-2.6758,0.0,-2.5703,-2.5703,-2.7031,-2.9023,-2.8848,-3.0273,-3.207,0.0,0.0,0.0,0.0,0.0,0.0,0.0,-2.248,-2.2402,-2.1016,-2.1387,0.0,0.0,0.0,0.0,0.0,0.0,0.0,0.0,0.0,0.0,0.0,0.0,0.0,0.0,0.0,0.0,0.0,0.0,0.0,0.0,0.0,0.0,0.0,0.0,0.0,0.0,0.0,0.0,0.0,0.0,0.0,-4.6308,-4.6308,-4.6308,-4.6308,-4.6308,-4.6308,-4.6308,-4.6308,-4.6308,-4.6308,-4.6308,-4.6308,-4.6308,-4.6308,-4.6308,-4.6308,-4.6308,-4.6308,-4.6308,-4.6308,-4.6308,-4.6308,-4.6308,-4.6308,-4.6308,-4.6308,-4.6308,-4.6308,0.0,0.0,0.0,-1.8992,0.0,-1.691,-1.691,-1.691,-1.7199,-1.8026,0.0,0.0,0.0,0.0,-1.8657,-1.7776,-1.6676,0.0,0.0,0.0,0.0,0.0,0.0,0.0,0.0,0.0,0.0,0.0,0.0,0.0,0.0,-2.4884,-2.6549,-2.8476,-2.785,-2.8819,0.0,0.0,0.0,-2.7051,0.0,0.0,-3.1367,0.0,-3.3359,0.0,0.0,0.0,0.0,0.0,0.0,0.0,0.0,-2.2754,-2.2031,-2.0937,-2.1621,0.0,-2.3418,0.0,0.0,0.0,0.0,0.0,0.0,0.0,0.0,0.0,0.0,0.0,0.0,0.0,0.0,0.0,0.0,0.0,0.0,0.0,0.0,0.0,0.0,0.0,0.0,0.0,0.0,0.0,0.0,0.0,-4.6308,-4.6308,-4.6308,-4.6308,-4.6308,-4.6308,-4.6308,-4.6308,-4.6308,-4.6308,-4.6308,-4.6308,-4.6308,-4.6308,-4.6308,-4.6308,-4.6308,-4.6308,-4.6308,-4.6308,-4.6308,-4.6308,-4.6308,-4.6308,-4.6308,-4.6308,-4.6308,-4.6308,-2.0135,-1.9623,-1.903,-1.903,-1.8318,-1.7738,-1.7738,-1.7738,-1.8045,-1.8915,0.0,0.0,0.0,0.0,0.0,-1.7853,-1.7757,-1.7391,-1.6583,0.0,0.0,0.0,0.0,0.0,0.0,0.0,0.0,0.0,0.0,0.0,0.0,0.0,-2.496,-2.8927,-2.5629,-2.5647,-2.8262,0.0,-3.0273,-2.9785,0.0,-3.2168,-3.2793,0.0,0.0,0.0,-3.7383,-3.6797,0.0,0.0,0.0,0.0,0.0,-2.3398,-2.0664,-2.0684,-2.1289,0.0,0.0,0.0,0.0,0.0,0.0,0.0,0.0,0.0,0.0,0.0,0.0,0.0,0.0,0.0,0.0,0.0,0.0,0.0,0.0,0.0,0.0,0.0,0.0,0.0,0.0,0.0,0.0,0.0,0.0,-4.6308,-4.6308,-4.6308,-4.6308,-4.6308,-4.6308,-4.6308,-4.6308,-4.6308,-4.6308,-4.6308,-4.6308,-4.6308,-4.6308,-4.6308,-4.6308,-4.6308,-4.6308,-4.6308,-4.6308,-4.6308,-4.6308,-4.6308,-4.6308,-4.6308,-4.6308,-4.6308,-4.6308,-4.6308,-2.025,-2.0119,-1.9946,-1.9946,-1.9219,-1.8645,-1.8645,-1.8645,-1.895,0.0,0.0,0.0,-2.1139,-2.0427,-1.985,-1.96,-1.9,-1.8288,-1.743,-1.7026,-1.7372,-1.8588,-1.8276,0.0,0.0,0.0,0.0,0.0,0.0,0.0,0.0,0.0,0.0,0.0,-2.3449,-2.3784,-2.4563,-2.5058,0.0,0.0,-2.9004,-3.1426,0.0,0.0,0.0,0.0,0.0,-3.8223,0.0,0.0,-3.3359,-2.9668,0.0,0.0,-2.2422,-2.2461,-2.3066,-2.3574,-2.2949,0.0,0.0,0.0,0.0,0.0,0.0,0.0,0.0,0.0,0.0,0.0,0.0,0.0,0.0,0.0,0.0,0.0,0.0,0.0,0.0,0.0,0.0,0.0,0.0,0.0,0.0,0.0,0.0,-4.6308,-4.6308,-4.6308,-4.6308,-4.6308,-4.6308,-4.6308,-4.6308,-4.6308,-4.6308,-4.6308,-4.6308,-4.6308,-4.6308,-4.6308,-4.6308,-4.6308,-4.6308,-4.6308,-4.6308,-4.6308,-4.6308,-4.6308,-4.6308,-4.6308,-4.6308,-4.6308,-4.6308,-4.6308,-2.0231,-2.0308,-2.0404,-2.0731,-2.0369,-2.0162,-2.0531,-2.0589,-2.0777,0.0,0.0,0.0,-2.2043,-2.1947,-2.1581,-2.0865,-2.0346,-1.9519,-1.8315,-1.7468,-1.7603,-1.8934,-1.8164,-1.8523,0.0,0.0,0.0,0.0,0.0,0.0,0.0,0.0,0.0,0.0,-2.1495,-2.2344,-2.3035,-2.2731,0.0,0.0,-2.9414,0.0,0.0,-3.7109,-3.9199,0.0,0.0,0.0,-3.9863,-3.916,-3.5586,0.0,0.0,-2.584,-2.4512,-2.3477,-2.4258,-2.5137,-2.3574,0.0,0.0,0.0,0.0,0.0,0.0,0.0,0.0,0.0,0.0,0.0,0.0,0.0,0.0,0.0,0.0,0.0,0.0,0.0,0.0,0.0,0.0,0.0,0.0,0.0,0.0,0.0,-4.6308,-4.6308,-4.6308,-4.6308,-4.6308,-4.6308,-4.6308,-4.6308,-4.6308,-4.6308,-4.6308,-4.6308,-4.6308,-4.6308,-4.6308,-4.6308,-4.6308,-4.6308,-4.6308,-4.6308,-4.6308,-4.6308,-4.6308,-4.6308,-4.6308,-4.6308,-4.6308,-4.6308,-4.6308,-4.6308,0.0,-2.0365,-2.0654,-2.1389,-2.1581,-2.1908,-2.2682,-2.2797,-2.2836,0.0,-2.3028,-2.3144,-2.3355,-2.3894,-2.3605,-2.2062,-2.1754,-2.0966,-1.9377,-1.8372,-1.8238,-1.9107,-1.8315,-1.8623,-2.025,0.0,0.0,0.0,0.0,0.0,0.0,0.0,0.0,0.0,-1.9847,-2.1169,-2.2689,-2.2336,0.0,-2.6387,-3.0996,-3.3828,0.0,0.0,-4.1582,0.0,-4.3418,-4.3691,-4.3437,-4.1641,-3.7422,0.0,0.0,-2.8203,-2.707,-2.4551,-2.5547,0.0,-2.4668,-2.457,0.0,0.0,0.0,0.0,0.0,-2.8789,0.0,0.0,0.0,0.0,0.0,0.0,0.0,0.0,0.0,0.0,0.0,0.0,0.0,0.0,0.0,0.0,0.0,0.0,0.0,-4.6152,-4.625,-4.6308,-4.6308,-4.6308,-4.6308,-4.6308,-4.6308,-4.6308,-4.6308,-4.6308,-4.6308,-4.6308,-4.6308,-4.6308,-4.6308,-4.6308,-4.6308,-4.6308,-4.6308,-4.6308,-4.6308,-4.6308,-4.6308,-4.6308,-4.6308,-4.6308,-4.6308,-4.6308,-4.6308,-4.6308,-2.0269,-2.0827,-2.1331,-2.1466,-2.2081,-2.2605,-2.2778,-2.2797,-2.3047,-2.3744,-2.4409,-2.5346,-2.676,-2.5793,-2.4923,-2.4596,-2.3331,-2.21,-2.1081,-1.9596,-1.9135,-2.0004,-1.92,-1.9238,-2.0288,-2.0308,0.0,0.0,0.0,0.0,0.0,0.0,0.0,0.0,-1.8924,-1.9929,-2.1032,-2.3065,0.0,-2.7871,-2.8887,0.0,-3.8906,-3.9043,-4.0918,-4.3476,-4.3633,-4.3691,-4.334,0.0,-3.8906,-3.666,0.0,0.0,0.0,0.0,0.0,-3.0039,-2.9531,-2.9512,-2.9375,0.0,0.0,0.0,0.0,-2.7969,0.0,0.0,0.0,0.0,0.0,0.0,0.0,0.0,0.0,0.0,0.0,0.0,0.0,0.0,0.0,0.0,0.0,0.0,-4.5254,-4.5254,-4.5898,-4.6308,-4.6308,-4.6308,-4.6308,-4.6308,-4.6308,-4.6308,-4.6308,-4.6308,-4.6308,-4.6308,-4.6308,-4.6308,-4.6308,-4.6308,-4.6308,-4.6308,-4.6308,-4.6308,-4.6308,-4.6308,-4.6308,-4.6308,-4.6308,-4.6308,-4.6308,-4.6308,-4.6308,-4.6308,-2.0385,-2.1293,-2.2158,-2.2158,-2.2874,-2.3586,-2.3985,-2.4043,-2.4524,-2.5818,-2.7063,-2.7865,-2.789,0.0,0.0,0.0,0.0,0.0,0.0,0.0,-1.9846,-2.0288,-1.9465,-1.9408,-2.0288,-2.0308,0.0,0.0,0.0,0.0,0.0,0.0,0.0,0.0,-1.9787,-2.1115,-2.2433,0.0,-2.5916,-2.8496,-3.0625,0.0,-3.9336,-4.0176,-4.2109,-4.4355,-4.4355,-4.4355,-4.3965,-4.1406,-3.9687,0.0,0.0,-3.375,-3.3594,0.0,-3.1465,-3.2422,-3.0703,-3.0566,-3.0781,-3.0351,0.0,0.0,0.0,0.0,0.0,0.0,0.0,0.0,0.0,0.0,0.0,0.0,0.0,0.0,0.0,0.0,0.0,0.0,0.0,0.0,0.0,0.0,-4.4355,-4.4355,-4.4766,-4.5195,-4.5625,-4.5644,-4.5859,-4.6289,-4.6308,-4.6308,-4.6308,-4.6308,-4.6308,-4.6308,-4.6308,-4.6308,-4.6308,-4.6308,-4.6308,-4.6308,-4.6308,-4.6308,-4.6308,-4.6308,-4.6308,-4.6308,-4.6308,-4.6308,-4.6308,-4.6308,-4.6308,-4.6308,-2.0462,-2.1658,-2.2797,-2.2797,-2.3644,-2.4548,-2.5192,-2.5308,-2.5981,0.0,0.0,0.0,0.0,0.0,0.0,0.0,0.0,0.0,0.0,0.0,0.0,-2.0788,-1.9942,-1.9804,-2.0519,-2.0385,-2.0308,0.0,0.0,0.0,0.0,0.0,0.0,0.0,0.0,0.0,0.0,0.0,0.0,-3.0078,0.0,-3.5957,-3.8164,-4.1074,-4.3144,-4.457,-4.5078,-4.5254,-4.4863,-4.2285,0.0,-3.8828,-3.5879,-3.5664,0.0,0.0,0.0,0.0,0.0,0.0,0.0,0.0,0.0,-2.9629,0.0,0.0,0.0,-2.8516,0.0,0.0,0.0,0.0,0.0,0.0,0.0,0.0,0.0,0.0,0.0,0.0,0.0,0.0,0.0,0.0,-4.2734,-4.3398,-4.3144,-4.3496,-4.4687,-4.4902,-4.5312,-4.6035,-4.6211,-4.6308,-4.6308,-4.6308,-4.6308,-4.6308,-4.6308,-4.6308,-4.6308,-4.6308,-4.6308,-4.6308,-4.6308,-4.6308,-4.6308,-4.6308,-4.6308,-4.6308,-4.6308,-4.6308,-4.6308,-4.6308,-4.6308,-4.6308,-2.0462,-2.1658,-2.2797,-2.2797,-2.412,-2.5192,-2.5288,-2.5308,-2.6173,0.0,0.0,0.0,0.0,0.0,0.0,0.0,0.0,0.0,-2.7184,0.0,0.0,-2.2547,-2.1677,-2.125,-2.137,-2.0654,-2.0308,0.0,0.0,0.0,0.0,0.0,-1.8261,-1.9114,-2.1636,0.0,0.0,0.0,-2.9918,0.0,-3.4805,-3.4883,0.0,-3.9766,-4.1894,-4.3008,-4.5312,-4.6152,-4.5742,0.0,-4.2129,-4.125,0.0,-3.6973,0.0,0.0,0.0,0.0,0.0,0.0,0.0,0.0,-3.3672,0.0,0.0,0.0,-2.8574,-2.6562,0.0,0.0,0.0,0.0,0.0,0.0,0.0,0.0,0.0,0.0,0.0,0.0,0.0,0.0,0.0,0.0,0.0,-4.2324,-4.1172,-4.1367,-4.3711,-4.457,-4.5058,-4.5137,-4.5898,-4.6308,-4.6308,-4.6308,-4.6308,-4.6308,-4.6308,-4.6308,-4.6308,-4.6308,-4.6308,-4.6308,-4.6308,-4.6308,-4.6308,-4.6308,-4.6308,-4.6308,-4.6308,-4.6308,-4.6308,-4.6308,-4.6308,-4.6308,-2.0365,-2.2062,-2.3394,-2.2893,-2.4197,-2.5308,-2.5308,-2.7404,-2.9212,0.0,0.0,0.0,0.0,0.0,0.0,0.0,0.0,-2.9679,0.0,0.0,0.0,-2.4293,-2.2966,-2.2254,-2.2254,-2.1427,-2.0769,0.0,-1.9065,0.0,0.0,0.0,-1.9434,-2.1309,-2.3487,0.0,-2.8554,0.0,0.0,0.0,0.0,0.0,0.0,-3.918,-4.2012,-4.3359,-4.4961,-4.5879,-4.5898,0.0,-4.209,0.0,0.0,0.0,0.0,0.0,0.0,0.0,0.0,0.0,0.0,0.0,0.0,0.0,0.0,0.0,-2.7305,0.0,0.0,0.0,0.0,0.0,0.0,0.0,0.0,0.0,0.0,0.0,0.0,0.0,0.0,0.0,0.0,0.0,0.0,0.0,0.0,-3.8769,-4.1367,-4.2324,-4.3476,-4.4941,-4.5351,-4.5781,-4.6308,-4.6308,-4.6308,-4.6308,-4.6308,-4.6308,-4.6308,-4.6308,-4.6308,-4.6308,-4.6308,-4.6308,-4.6308,-4.6308,-4.6308,-4.6308,-4.6308,-4.6308,-4.6308,-4.6308,-4.6308,-4.6308,-2.0946,-2.247,-2.3624,-2.322,-2.4351,-2.5462,-2.5942,-2.8832,-3.1006,0.0,0.0,0.0,-3.6115,-3.5064,0.0,0.0,0.0,-3.2795,0.0,0.0,-2.7615,-2.675,-2.487,0.0,0.0,0.0,0.0,-2.0635,-1.9546,0.0,0.0,0.0,0.0,-2.2536,0.0,-2.768,-3.0697,0.0,0.0,-3.3379,-3.3535,-3.416,-3.5449,-3.9629,-4.2539,-4.4492,-4.5137,-4.5762,-4.5937,-4.3555,-4.2363,0.0,-4.0605,0.0,0.0,0.0,0.0,0.0,-3.6172,0.0,0.0,0.0,0.0,0.0,0.0,0.0,0.0,0.0,0.0,0.0,0.0,0.0,0.0,0.0,0.0,0.0,0.0,0.0,0.0,0.0,0.0,0.0,0.0,0.0,0.0,0.0,0.0,0.0,-3.9375,-4.0371,-4.1894,-4.4219,-4.4746,-4.5293,-4.5937,-4.6172,-4.6308,-4.6308,-4.6308,-4.6308,-4.6308,-4.6308,-4.6308,-4.6308,-4.6308,-4.6308,-4.6308,-4.6308,-4.6308,-4.6308,-4.6308,-4.6308,-4.6308,-4.6308,-4.6308,-4.6308,-2.2547,-2.2797,0.0,0.0,0.0,-2.5865,-2.7563,-2.8588,-3.0069,0.0,0.0,0.0,0.0,0.0,0.0,0.0,0.0,-3.743,-3.6519,0.0,-3.1154,0.0,0.0,-2.6486,0.0,0.0,0.0,-2.1466,-1.9815,-1.9431,0.0,0.0,0.0,0.0,0.0,-2.8161,-3.0815,-3.2477,-3.5671,-3.9473,-3.7793,-3.9121,-4.2012,0.0,-4.3281,-4.6211,-4.625,0.0,0.0,-4.4258,-4.3633,0.0,0.0,0.0,0.0,0.0,0.0,0.0,0.0,0.0,0.0,-3.3535,0.0,0.0,0.0,0.0,-2.9004,0.0,0.0,0.0,0.0,0.0,0.0,-2.8437,0.0,0.0,0.0,0.0,0.0,0.0,0.0,0.0,0.0,0.0,0.0,0.0,0.0,0.0,-3.8379,-3.9473,-4.0723,-4.2422,-4.4121,-4.5019,-4.5039,-4.5879,-4.6308,-4.6308,-4.6308,-4.6308,-4.6308,-4.6308,-4.6308,-4.6308,-4.6308,-4.6308,-4.6308,-4.6308,-4.6308,-4.6308,-4.6308,-4.6308,-4.6308,-4.6308,-4.6308,-4.6308,0.0,0.0,0.0,0.0,0.0,-2.6077,-2.8357,-3.0858,-3.3179,0.0,0.0,0.0,0.0,0.0,-4.1316,0.0,0.0,-4.0142,-3.9277,-3.6084,0.0,0.0,0.0,-2.9115,0.0,0.0,0.0,-2.322,-2.2085,-2.1662,0.0,0.0,0.0,0.0,0.0,-2.8812,0.0,0.0,0.0,0.0,0.0,-4.0547,-4.3965,0.0,0.0,-4.5449,-4.5449,-4.5801,0.0,-4.5625,-4.4648,-4.3691,-4.3711,-4.2168,-4.0391,-4.0684,-3.9941,0.0,0.0,0.0,-3.9062,-3.5586,0.0,0.0,0.0,0.0,0.0,0.0,0.0,0.0,0.0,0.0,-2.8633,-2.8359,-2.7812,0.0,0.0,0.0,0.0,0.0,0.0,0.0,0.0,0.0,0.0,0.0,0.0,0.0,0.0,-3.7949,-3.9824,-4.1543,-4.2695,-4.3828,-4.498,-4.5293,-4.5723,-4.6308,-4.6308,-4.6308,-4.6308,-4.6308,-4.6308,-4.6308,-4.6308,-4.6308,-4.6308,-4.6308,-4.6308,-4.6308,-4.6308,-4.6308,-4.6308,-4.6308,-4.6308,-4.6308,-2.4413,0.0,0.0,0.0,0.0,0.0,0.0,0.0,0.0,0.0,-3.8661,0.0,-4.2854,0.0,-4.2951,0.0,-4.3489,-4.2066,-4.0593,-3.8469,0.0,-3.718,-3.425,0.0,0.0,0.0,0.0,0.0,-2.4274,-2.3543,0.0,0.0,0.0,0.0,0.0,0.0,0.0,0.0,-3.67,0.0,0.0,-4.1973,0.0,0.0,-4.4219,-4.5469,0.0,-4.582,-4.6308,-4.6308,-4.5547,-4.4726,-4.5293,-4.373,-4.1816,-4.2383,-4.1328,-3.9883,-3.9609,-3.9922,0.0,-3.6738,-3.5625,0.0,-3.0859,0.0,0.0,0.0,0.0,0.0,0.0,0.0,0.0,-2.918,-2.7969,0.0,0.0,0.0,0.0,0.0,0.0,0.0,0.0,0.0,-2.7539,-2.9023,0.0,0.0,0.0,0.0,-3.8613,-4.0664,-4.1816,-4.3086,-4.4512,-4.4844,-4.5449,-4.6308,-4.6308,-4.6308,-4.6308,-4.6308,-4.6308,-4.6308,-4.6308,-4.6308,-4.6308,-4.6308,-4.6308,-4.6308,-4.6308,-4.6308,-4.6308,-4.6308,-4.6308,-4.6308,0.0,0.0,0.0,0.0,-2.6948,0.0,0.0,0.0,-3.6192,0.0,-3.9611,-4.1285,-4.3028,-4.322,-4.3874,-4.546,-4.4836,0.0,-4.092,-4.0669,0.0,0.0,-3.7411,-3.6865,-3.6827,0.0,0.0,0.0,0.0,0.0,0.0,0.0,0.0,0.0,-2.6688,0.0,-3.2201,-3.5491,-3.8594,-4.1387,-4.2207,-4.3555,-4.5058,-4.5058,0.0,-4.6308,-4.6308,-4.6308,-4.6308,-4.6308,-4.6308,-4.6308,-4.6308,-4.5703,-4.5,-4.5,-4.3808,-4.2285,-4.1484,-4.1289,-4.0527,-3.7168,0.0,0.0,0.0,0.0,-3.5351,0.0,0.0,0.0,0.0,0.0,0.0,-3.0664,-2.8652,0.0,0.0,0.0,0.0,0.0,0.0,0.0,0.0,0.0,-2.5508,-2.8047,-2.7519,0.0,0.0,0.0,0.0,-3.9687,-4.1445,-4.2754,-4.3633,-4.4492,-4.5371,-4.623,-4.6289,-4.6308,-4.6308,-4.6308,-4.6308,-4.6308,-4.6308,-4.6308,-4.6308,-4.6308,-4.6308,-4.6308,-4.6308,-4.6308,-4.6308,-4.6308,-4.6308,-4.6308,-2.6269,-2.7788,-2.9308,0.0,-2.9885,-3.0621,0.0,0.0,0.0,0.0,-4.1758,-4.3085,-4.4767,-4.496,-4.5133,-4.5556,-4.5402,0.0,0.0,0.0,0.0,-4.2681,-4.0642,-3.9238,-3.8642,-3.4661,0.0,-2.975,0.0,0.0,-2.4962,0.0,0.0,0.0,0.0,0.0,-3.2136,-3.4306,-3.8247,-4.3125,-4.3984,-4.498,0.0,0.0,-4.6113,-4.6308,-4.6308,-4.6308,-4.6308,-4.6308,-4.6308,-4.6308,-4.6308,-4.5703,-4.5,-4.5,-4.4219,-4.3183,-4.2324,-4.2558,-4.2695,-4.1133,-3.9668,-3.8242,0.0,0.0,0.0,0.0,0.0,0.0,0.0,0.0,0.0,0.0,0.0,0.0,0.0,0.0,0.0,0.0,0.0,0.0,0.0,-2.5117,-2.5918,-2.7226,-2.7734,0.0,0.0,0.0,0.0,-3.793,-4.0273,-4.1894,-4.2734,-4.3594,-4.4473,-4.5332,-4.5996,-4.6308,-4.6308,-4.6308,-4.6308,-4.6308,-4.6308,-4.6308,-4.6308,-4.6308,-4.6308,-4.6308,-4.6308,-4.6308,-4.6308,-4.6308,-4.6308,-4.6308,-2.8192,0.0,0.0,-3.3269,0.0,0.0,-3.5641,0.0,0.0,-4.15,-4.2874,0.0,-4.494,-4.5364,-4.5594,-4.5594,-4.5594,0.0,0.0,0.0,0.0,-4.3797,-4.2739,-4.1785,-4.0969,-3.7488,0.0,-3.1481,0.0,0.0,-2.5288,0.0,0.0,0.0,0.0,-2.8595,0.0,-3.5532,-3.9314,-4.3203,-4.4082,0.0,0.0,-4.6308,-4.6308,-4.6308,-4.6308,-4.6308,-4.6308,-4.6308,-4.6308,-4.6308,-4.6308,-4.5957,-4.5566,-4.5566,-4.4941,-4.416,-4.3672,-4.3613,-4.3574,-4.3086,-4.2187,-4.1016,-3.9512,-3.9082,-3.8516,0.0,0.0,0.0,0.0,0.0,0.0,0.0,0.0,0.0,0.0,0.0,0.0,0.0,0.0,0.0,0.0,-2.4844,-2.5488,-2.6367,-2.7246,0.0,0.0,0.0,0.0,-3.7266,-3.9473,-4.1191,-4.2383,-4.3262,-4.4141,-4.5019,-4.5879,-4.6308,-4.6308,-4.6308,-4.6308,-4.6308,-4.6308,-4.6308,-4.6308,-4.6308,-4.6308,-4.6308,-4.6308,-4.6308,-4.6308,-4.6308,-4.6308,-4.6308,0.0,0.0,0.0,0.0,0.0,0.0,0.0,-3.9815,0.0,-4.2008,0.0,-4.447,-4.447,-4.5152,-4.5594,-4.5594,0.0,-4.4979,-4.3528,-4.4786,-4.496,-4.3489,-4.4105,-4.4085,-4.3278,-4.0662,0.0,0.0,0.0,0.0,0.0,0.0,0.0,0.0,0.0,0.0,0.0,-3.7733,-4.0937,0.0,-4.3633,-4.4941,-4.6308,-4.6308,-4.6308,-4.6308,-4.6308,-4.6308,-4.6308,-4.6308,-4.6308,-4.6308,-4.6308,-4.6308,-4.6308,-4.6308,-4.5762,-4.5156,-4.5039,-4.4531,-4.4004,-4.3906,-4.4433,-4.4199,-4.1094,-4.0898,-4.0898,-3.9277,-3.7734,0.0,0.0,0.0,0.0,0.0,0.0,0.0,0.0,0.0,0.0,0.0,0.0,0.0,0.0,0.0,-2.4883,-2.5644,0.0,0.0,0.0,0.0,0.0,0.0,-3.8926,0.0,-4.2226,0.0,-4.4082,-4.4844,-4.582,-4.6308,-4.6308,-4.6308,-4.6308,-4.6308,-4.6308,-4.6308,-4.6308,-4.6308,-4.6308,-4.6308,-4.6308,-4.6308,-4.6308,-4.6308,-4.6308,-4.6308,0.0,0.0,0.0,0.0,0.0,-4.1393,-4.2104,-4.1854,-4.2124,-4.3662,-4.4739,0.0,-4.5364,-4.5518,-4.5594,-4.5594,-4.5594,0.0,0.0,0.0,0.0,-4.5171,-4.5306,-4.4979,-4.4105,-4.0931,-3.7553,0.0,-3.0858,-2.7607,-2.4322,0.0,0.0,0.0,0.0,0.0,-3.3476,-3.7988,0.0,-4.3613,-4.5195,-4.6035,-4.6308,-4.6308,-4.6308,-4.6308,-4.6308,-4.6308,-4.6308,-4.6308,-4.6308,-4.6308,-4.6308,-4.6308,-4.6308,-4.6308,-4.6191,-4.5918,-4.5195,-4.541,-4.5664,-4.4941,-4.4883,-4.4648,-4.332,-4.2598,-4.1914,-4.0937,-4.0508,-4.0039,-3.9219,0.0,0.0,0.0,0.0,0.0,0.0,0.0,0.0,0.0,0.0,0.0,0.0,0.0,0.0,0.0,0.0,0.0,0.0,0.0,0.0,0.0,0.0,0.0,0.0,0.0,0.0,-4.3945,-4.5547,-4.6308,-4.6308,-4.6308,-4.6308,-4.6308,-4.6308,-4.6308,-4.6308,-4.6308,-4.6308,-4.6308,-4.6308,-4.6308,-4.6308,-4.6308,-4.6308,-4.6308,0.0,0.0,0.0,0.0,0.0,0.0,0.0,-4.3739,0.0,-4.4239,-4.4662,-4.494,-4.494,-4.5325,-4.5594,-4.5594,-4.5594,-4.5594,-4.5594,-4.5594,-4.5594,-4.5594,-4.5594,0.0,-4.4316,-4.1873,-3.8719,-3.4872,-3.1891,-2.8717,0.0,0.0,0.0,0.0,0.0,-3.0871,0.0,0.0,0.0,-4.3183,-4.4922,-4.5898,-4.6308,-4.6308,-4.6308,-4.6308,-4.6308,-4.6308,-4.6308,-4.6308,-4.6308,-4.6308,-4.6308,-4.6308,-4.6308,-4.6308,-4.6308,-4.6211,-4.5781,-4.5976,-4.6191,-4.5781,-4.5332,-4.4766,-4.3906,-4.3027,-4.2168,-4.1367,-4.1191,-4.0664,-3.8926,-3.6836,0.0,0.0,0.0,0.0,0.0,0.0,0.0,0.0,0.0,0.0,0.0,0.0,0.0,0.0,0.0,0.0,0.0,0.0,0.0,0.0,0.0,0.0,0.0,0.0,0.0,-4.3711,-4.5019,-4.5859,-4.6308,-4.6308,-4.6308,-4.6308,-4.6308,-4.6308,-4.6308,-4.6308,-4.6308,-4.6308,-4.6308,-4.6308,-4.6308,-4.6308,-4.6308,-4.6308,0.0,-4.2297,0.0,0.0,-4.3778,0.0,0.0,-4.5037,-4.5344,-4.4662,-4.4586,-4.4586,-4.4586,-4.519,-4.5594,-4.5594,-4.5594,-4.5594,-4.5594,-4.5594,-4.5594,-4.5594,-4.5594,-4.5287,-4.4586,-4.3104,-4.0346,0.0,0.0,0.0,0.0,-2.6184,-2.6105,-2.6718,0.0,0.0,0.0,0.0,-4.2031,-4.3086,-4.4648,-4.5683,-4.6308,-4.6308,-4.6308,-4.6308,-4.6308,-4.6308,-4.6308,-4.6308,-4.6308,-4.6308,-4.6308,-4.6308,-4.6308,-4.6308,-4.6308,-4.6308,-4.6308,-4.6308,-4.6308,-4.6308,-4.5781,-4.5,-4.3945,-4.3164,-4.2402,-4.1406,-4.1191,-4.0664,-3.8926,-3.7773,0.0,0.0,0.0,0.0,0.0,0.0,0.0,0.0,0.0,0.0,0.0,0.0,0.0,0.0,0.0,0.0,0.0,0.0,0.0,0.0,0.0,0.0,-4.0625,0.0,-4.2832,0.0,-4.457,-4.5469,-4.6308,-4.6308,-4.6308,-4.6308,-4.6308,-4.6308,-4.6308,-4.6308,-4.6308,-4.6308,-4.6308,-4.6308,-4.6308,-4.6308,-4.6308,-4.6308,0.0,0.0,0.0,0.0,0.0,0.0,0.0,-4.5037,-4.5575,-4.5498,-4.5479,-4.5479,-4.5479,-4.5556,-4.5594,-4.5594,-4.5594,-4.5594,-4.5594,-4.5594,-4.5594,-4.5594,-4.5594,-4.5556,-4.5479,-4.4547,-4.2374,0.0,0.0,0.0,0.0,0.0,-2.8631,-3.0334,0.0,0.0,0.0,-4.1133,-4.3242,-4.4844,-4.5781,-4.623,-4.6308,-4.6308,-4.6308,-4.6308,-4.6308,-4.6308,-4.6308,-4.6308,-4.6308,-4.6308,-4.6308,-4.6308,-4.6308,-4.6308,-4.6308,-4.6308,-4.6308,-4.6308,-4.6308,-4.6308,-4.623,-4.5742,-4.4082,-4.3633,-4.3125,-4.1523,-4.1191,-4.0664,-3.8926,-3.9766,-3.9648,0.0,0.0,0.0,0.0,0.0,0.0,0.0,0.0,0.0,0.0,0.0,0.0,0.0,0.0,0.0,0.0,0.0,0.0,-3.4707,0.0,-3.7793,-3.8828,-4.1211,0.0,-4.3711,-4.457,-4.5469,-4.6308,-4.6308,-4.6308,-4.6308,-4.6308,-4.6308,-4.6308,-4.6308,-4.6308,-4.6308,-4.6308,-4.6308,-4.6308,-4.6308,-4.6308,-4.6308,0.0,0.0,0.0,0.0,0.0,0.0,0.0,-4.6874,-4.7105,-4.7105,-4.6682,-4.6182,-4.5671,-4.6067,-4.6163,-4.5652,-4.5594,-4.5594,-4.5594,-4.5594,-4.5594,-4.5594,-4.5594,-4.5594,-4.5594,-4.4739,-4.3143,0.0,0.0,0.0,0.0,0.0,0.0,0.0,0.0,-3.8543,-4.0332,-4.2871,-4.4355,-4.5078,-4.5957,-4.6308,-4.6308,-4.6308,-4.6308,-4.6308,-4.6308,-4.6308,-4.6308,-4.6308,-4.6308,-4.6308,-4.6308,-4.6308,-4.6308,-4.6308,-4.6308,-4.6308,-4.6308,-4.6308,-4.6308,-4.6308,-4.5918,-4.5195,-4.3984,-4.3301,-4.2598,-4.1445,-4.1191,-4.0996,-4.0293,-3.9883,-3.9355,0.0,0.0,0.0,0.0,0.0,0.0,0.0,0.0,0.0,0.0,0.0,0.0,0.0,0.0,-2.582,-2.793,0.0,0.0,-3.3125,0.0,-3.7715,-3.8594,-4.0644,-4.2363,-4.3691,-4.4043,-4.4941,-4.6308,-4.6308,-4.6308,-4.6308,-4.6308,-4.6308,-4.6308,-4.6308,-4.6308,-4.6308,-4.6308,-4.6308,-4.6308,-4.6308,-4.6308,-4.6308,-4.725,0.0,-4.7432,0.0,-4.7625,-4.7451,-4.8009,-4.8105,-4.8105,-4.8105,-4.7836,-4.7298,-4.6432,-4.6874,-4.6913,-4.6047,-4.597,-4.5874,-4.5614,-4.5594,-4.5594,-4.5594,-4.5594,0.0,-4.5594,-4.4998,-4.397,-4.2547,-4.0239,0.0,0.0,-3.5103,0.0,0.0,-3.968,-4.1286,-4.2399,-4.4492,-4.5371,-4.5449,-4.6055,-4.6308,-4.6308,-4.6308,-4.6308,-4.6308,-4.6308,-4.6308,-4.6308,-4.6308,-4.6308,-4.6308,-4.6308,-4.6308,-4.6308,-4.6308,-4.6308,-4.6308,-4.6308,-4.6308,-4.6308,-4.6308,-4.584,-4.5098,-4.3965,-4.3223,-4.248,-4.1426,-4.1191,-4.1191,-4.115,-4.0175,-3.9297,-3.9118,0.0,0.0,0.0,0.0,0.0,0.0,0.0,-2.7754,0.0,0.0,0.0,0.0,0.0,-2.6288,-2.8047,0.0,0.0,0.0,0.0,0.0,0.0,-4.0566,-4.2285,-4.3691,-4.3965,-4.4863,-4.6308,-4.6308,-4.6308,-4.6308,-4.6308,-4.6308,-4.6308,-4.6308,-4.6308,-4.6308,-4.6308,-4.6308,-4.6308,-4.6308,-4.6308,-4.6308,-4.8086,-4.8086,-4.8086,-4.8105,-4.8086,-4.8086,-4.8105,-4.8105,-4.8105,-4.8105,-4.8836,-4.9048,-4.8163,-4.8086,-4.7759,-4.6942,-4.6885,-4.6528,-4.5671,-4.5594,-4.5594,0.0,0.0,-4.5594,-4.5594,-4.5594,-4.5152,-4.4259,0.0,0.0,-3.9227,-3.8354,-3.8903,-4.0729,-4.2533,-4.3884,-4.4823,-4.5856,-4.6289,-4.6289,-4.6308,-4.6308,-4.6308,-4.6308,-4.6308,-4.6308,-4.6308,-4.6308,-4.6308,-4.6308,-4.6308,-4.6308,-4.6308,-4.6308,-4.6308,-4.6308,-4.6308,-4.6308,-4.6308,-4.6308,-4.6308,-4.6308,-4.6289,-4.582,-4.4101,-4.3691,-4.3203,-4.1543,-4.1191,-4.1151,-4.1025,-4.1086,-4.0271,-3.7564,0.0,0.0,0.0,0.0,0.0,0.0,0.0,-2.774,-2.6798,0.0,0.0,0.0,0.0,0.0,0.0,0.0,0.0,-3.4551,-3.6387,0.0,-3.8594,-4.1113,-4.2832,-4.3711,-4.457,-4.5449,-4.6308,-4.6308,-4.6308,-4.6308,-4.6308,-4.6308,-4.6308,-4.6308,-4.6308,-4.6308,-4.6308,-4.6308,-4.6308,-4.6308,-4.6308,-4.6308,-4.899,-4.9452,-4.9875,-4.9875,-4.9875,-4.9875,-4.9875,-4.9875,-4.9875,-4.9875,-5.0106,-5.0183,-4.9894,-4.9336,-4.8644,0.0,-4.7212,-4.6778,0.0,-4.5932,-4.5594,-4.5594,-4.5594,-4.5594,-4.5594,-4.5594,-4.546,-4.519,0.0,0.0,0.0,-4.2162,-4.2644,-4.3343,-4.4502,-4.522,-4.5562,-4.5884,-4.608,-4.6152,-4.6152,-4.6223,-4.6308,-4.6308,-4.6308,-4.6308,-4.6308,-4.6308,-4.6308,-4.6308,-4.6308,-4.6308,-4.6308,-4.6308,-4.6308,-4.6308,-4.6308,-4.6308,-4.6308,-4.6308,-4.6308,-4.6308,-4.6308,-4.584,-4.4101,-4.2812,-4.1836,-4.1308,-4.1127,-4.1052,-4.1017,-4.0959,-4.0284,-3.8313,0.0,0.0,0.0,0.0,0.0,0.0,0.0,-2.9487,0.0,-2.8785,0.0,0.0,0.0,0.0,0.0,0.0,0.0,0.0,-3.6953,0.0,-3.8594,-4.1133,-4.2832,-4.3711,-4.457,-4.5469,-4.6308,-4.6308,-4.6308,-4.6308,-4.6308,-4.6308,-4.6308,-4.6308,-4.6308,-4.6308,-4.6308,-4.6308,-4.6308,-4.6308,-4.6308,-4.6308,-4.9894,-5.0327,-5.0712,-5.0712,-5.0712,-5.0712,-5.0712,-5.0712,-5.0712,-5.0712,-5.0712,-5.0712,-5.0712,-5.0212,0.0,-4.8663,-4.8125,-4.7702,-4.7375,-4.6567,-4.6086,-4.6086,-4.5768,-4.5594,-4.5594,0.0,0.0,-4.5594,-4.5056,-4.4528,-4.4047,-4.4547,-4.4834,-4.4945,-4.5537,-4.582,-4.5852,-4.5881,-4.5959,-4.6011,-4.6011,-4.611,-4.6224,-4.6224,-4.6267,-4.6308,-4.6308,-4.6308,-4.6308,-4.6308,-4.6308,-4.6308,-4.6308,-4.6308,-4.6308,-4.6308,-4.6308,-4.6308,-4.6308,-4.6308,-4.6308,-4.6308,-4.6308,-4.5937,-4.4512,-4.2871,-4.164,-4.1617,-4.1289,-4.0983,-4.0906,-4.0836,-4.0252,-3.8622,-3.8361,-3.7509,0.0,0.0,0.0,0.0,0.0,0.0,0.0,-3.0835,0.0,0.0,0.0,0.0,0.0,0.0,0.0,-3.4121,-3.7871,0.0,-4.0039,-4.1933,-4.332,-4.4199,-4.5078,-4.5762,-4.6308,-4.6308,-4.6308,-4.6308,-4.6308,-4.6308,-4.6308,-4.6308,-4.6308,-4.6308,-4.6308,-4.6308,-4.6308,-4.6308,-4.6308,-4.6308,-5.0712,-5.0712,0.0,0.0,-5.0712,0.0,-5.0712,-5.0712,-5.0712,-5.0712,-5.0712,-5.0712,-5.0712,-5.0712,-5.0366,-4.9548,0.0,0.0,0.0,-4.7432,-4.6981,-4.6981,-4.6201,-4.5748,-4.5691,-4.5691,-4.5671,-4.5594,-4.5594,-4.5594,-4.5594,-4.5594,-4.5594,-4.5603,-4.5725,-4.5783,-4.579,-4.5841,-4.5881,-4.589,-4.589,-4.5974,-4.6082,-4.6082,-4.6173,-4.6289,-4.6289,-4.6289,-4.6308,-4.6308,-4.6308,-4.6308,-4.6308,-4.6308,-4.6308,-4.6308,-4.6308,-4.6308,-4.6308,-4.6308,-4.6308,-4.6308,-4.625,-4.5976,-4.5175,-4.3671,-4.2437,-4.2309,-4.1632,-4.0983,-4.0749,-4.0742,-4.0228,-3.8552,-3.8233,-3.7345,-3.4846,0.0,0.0,0.0,0.0,0.0,0.0,-3.2332,-3.3301,0.0,0.0,0.0,0.0,0.0,-3.4863,-3.7305,-3.9121,-4.082,-4.2382,-4.332,-4.4238,-4.5098,-4.5918,-4.6308,-4.6289,-4.6289,-4.6289,-4.6268,-4.6268,-4.6289,-4.6289,-4.6289,-4.6289,-4.6308,-4.6308,-4.6308,-4.6308,-4.6308,-4.6308,-4.6308,0.0,0.0,-5.0712,-5.0712,-5.0712,-5.0712,-5.0712,-5.0712,-5.0712,-5.0712,-5.0712,-5.0712,-5.0712,-5.0712,-5.0616,-5.0423,-4.9779,-4.9317,-4.9106,-4.8298,-4.7817,-4.7817,-4.7625,-4.7221,-4.6605,-4.6586,-4.6278,-4.5594,-4.5594,-4.5594,-4.5594,-4.5594,-4.5594,-4.5594,-4.5627,-4.5651,-4.566,-4.5669,-4.5735,-4.582,-4.582,-4.5871,-4.5959,-4.5959,-4.6033,-4.6147,-4.6147,-4.6203,-4.6308,-4.6308,-4.6308,-4.6308,-4.6308,-4.6308,-4.6308,-4.6308,-4.6308,-4.6308,-4.6308,-4.6308,-4.6308,-4.6308,-4.5716,-4.5082,-4.4832,-4.3936,-4.2974,-4.2295,-4.1935,-4.1556,-4.0825,-4.063,-4.0031,-3.8415,-3.7627,-3.6375,-3.3877,-3.3829,0.0,0.0,-3.4313,-3.5125,-3.4366,-3.533,-3.5433,0.0,0.0,0.0,0.0,0.0,-3.7492,-3.8262,-4.0537,-4.1929,-4.2316,-4.3903,-4.5137,-4.5996,-4.6191,-4.6247,-4.6147,-4.6147,-4.6087,-4.5992,-4.5992,-4.6047,-4.6147,-4.6147,-4.6202,-4.6308,-4.6308,-4.6308,-4.6308,-4.6308,-4.6308,-4.6308,-5.0712,-5.0712,-5.0712,-5.0712,-5.0712,-5.0712,-5.0712,-5.0712,-5.0712,-5.0712,-5.0712,-5.0712,-5.0712,-5.0712,-5.0712,-5.0712,-5.0269,-4.999,-4.999,-4.9183,-4.8682,-4.8682,-4.8317,-4.7894,-4.7471,-4.7451,-4.7048,-4.6182,-4.5806,-4.5594,-4.5594,-4.5594,-4.5594,-4.5594,-4.5594,-4.5594,-4.5594,-4.5594,-4.5643,-4.5708,-4.5708,-4.5764,-4.585,-4.585,-4.5914,-4.6001,-4.6001,-4.6067,-4.6117,-4.6117,-4.6117,-4.612,-4.6198,-4.6202,-4.6223,-4.6289,-4.6308,-4.6308,-4.6308,-4.6267,-4.6199,-4.6122,-4.5718,-4.5283,-4.5269,-4.4606,-4.3849,-4.3311,-4.2557,-4.1835,-4.1292,-4.0526,-3.9555,-3.8307,-3.7363,-3.6079,-3.4003,-3.4361,0.0,-3.4195,-3.5776,-3.6828,-3.6656,-3.7488,-3.7454,-3.604,0.0,0.0,-3.7353,-3.8974,-3.9815,-3.9607,-4.1298,-4.2584,-4.34,-4.4731,-4.5646,-4.6117,-4.6117,-4.608,-4.6001,-4.6001,-4.5974,-4.5899,-4.5899,-4.5936,-4.6001,-4.6001,-4.6047,-4.6117,-4.6117,-4.6149,-4.6202,-4.6202,-4.6202,-4.6223,-5.0712,-5.0712,-5.0712,-5.0712,-5.0712,-5.0712,-5.0712,-5.0712,-5.0712,-5.0712,-5.0712,-5.0712,-5.0712,-5.0712,-5.0712,-5.0712,-5.0712,-5.0712,-5.0712,-5.001,-4.9606,-4.9606,-4.8894,-4.8432,-4.8298,-4.8163,-4.7778,-4.7077,-4.622,-4.5806,-4.5787,-4.5671,-4.5594,-4.5594,-4.5594,-4.5594,-4.5594,-4.5594,-4.5594,-4.5594,-4.5594,-4.5665,-4.5782,-4.5782,-4.5826,-4.5872,-4.5872,-4.5885,-4.5899,-4.5899,-4.5899,-4.5916,-4.6036,-4.6075,-4.6087,-4.6201,-4.6246,-4.6247,-4.6268,-4.6174,-4.6039,-4.5923,-4.5872,-4.5886,-4.5867,-4.5332,-4.4771,-4.4512,-4.3337,-4.224,-4.1859,-4.0642,-3.9329,-3.8258,-3.7411,-3.6285,-3.4538,0.0,-3.5827,-3.5692,-3.671,-3.7687,-3.831,-3.8981,-3.9103,-3.8426,-3.9592,-4.0167,0.0,-4.106,-4.167,-4.134,-4.2077,-4.3246,-4.4859,-4.555,-4.5881,-4.5899,-4.5899,-4.589,-4.5872,-4.5872,-4.5862,-4.5842,-4.5842,-4.5877,-4.5872,-4.5872,-4.5885,-4.5899,-4.5899,-4.5974,-4.6075,-4.6075,-4.6075,-4.6082,-5.0712,-5.0712,-5.0712,-5.0712,-5.0712,-5.0712,-5.0712,-5.0712,-5.0712,-5.0712,-5.0712,-5.0712,-5.0712,-5.0712,-5.0712,-5.0712,-5.0712,-5.0712,-5.0712,-5.0577,-5.05,-5.05,-5.0366,-4.9952,-4.9202,-4.849,-4.8048,-4.7913,-4.7105,-4.6701,-4.6682,-4.5932,-4.5594,-4.5594,-4.5594,-4.5594,-4.5594,-4.5594,-4.5594,-4.5594,-4.5594,-4.5612,-4.5627,-4.5627,-4.5715,-4.5821,-4.5821,-4.5845,-4.5899,-4.5899,-4.5899,-4.5903,-4.592,-4.5928,-4.5948,-4.5967,-4.5971,-4.5988,-4.6108,-4.6036,-4.5918,-4.5819,-4.5821,-4.5783,-4.5677,-4.556,-4.5255,-4.449,-4.4116,-4.3511,-4.2066,-4.1577,-4.0669,-3.839,-3.7894,-3.6957,-3.4546,0.0,-3.7334,-3.6596,-3.8537,-3.9988,-4.0092,-3.9634,-3.9545,-4.0073,-3.9727,-4.0042,-4.1355,-4.1659,-4.2398,-4.3713,-4.3995,-4.4644,-4.5704,-4.5789,-4.5847,-4.5899,-4.5899,-4.5867,-4.5821,-4.5821,-4.5756,-4.5657,-4.5657,-4.5718,-4.5821,-4.5821,-4.5859,-4.5899,-4.5899,-4.5912,-4.5928,-4.5928,-4.5928,-4.5928,-5.0712,-5.0712,-5.0712,-5.0712,-5.0712,-5.0712,-5.0712,-5.0712,-5.0712,-5.0712,-5.0712,-5.0712,-5.0712,-5.0712,-5.0712,-5.0712,-5.0712,-5.0712,-5.0712,-5.0712,-5.0712,-5.0712,-5.0712,-5.0519,-5.0106,-4.924,-4.8798,-4.8798,-4.7971,-4.7548,-4.7548,-4.7124,-4.6951,-4.6932,-4.649,-4.6547,-4.6913,-4.6471,-4.6547,-4.6951,-4.6951,-4.6682,-4.6297,-4.6297,-4.6059,-4.5685,-4.5685,-4.5706,-4.5737,-4.5737,-4.5737,-4.5757,-4.5825,-4.5853,-4.585,-4.5881,-4.5899,-4.5918,-4.5929,-4.5881,-4.5813,-4.5718,-4.5685,-4.568,-4.562,-4.5594,-4.5498,-4.5075,-4.4624,-4.4066,-4.3297,-4.2027,-4.0873,-4.0162,-3.8892,0.0,0.0,-3.7957,-3.8546,-3.8142,-3.9515,-4.0496,-4.0496,-4.0585,-4.0796,-4.1162,-4.1296,-4.1681,-4.247,-4.2912,-4.3508,-4.4278,-4.4827,-4.5305,-4.5737,-4.5711,-4.5711,-4.5737,-4.5737,-4.5715,-4.5685,-4.5685,-4.5648,-4.5594,-4.5594,-4.5635,-4.5685,-4.5685,-4.5699,-4.5737,-4.5737,-4.5776,-4.5853,-4.5853,-4.5853,-4.5845,-5.0971,-5.0827,-5.0712,-5.0712,-5.0712,-5.0712,-5.0712,-5.0712,-5.0712,-5.0712,-5.0712,-5.0712,-5.0712,-5.0712,-5.0712,-5.0712,-5.0712,-5.0712,-5.0712,-5.0712,-5.0712,-5.0712,-5.0712,-5.0712,-5.0712,-5.0029,-4.9702,-4.9702,-4.8836,-4.8394,-4.8394,-4.8202,-4.8105,-4.8067,-4.7451,-4.7528,-4.8067,-4.7451,-4.7548,-4.8105,-4.8105,-4.774,-4.7173,-4.7173,-4.6759,-4.6191,-4.6191,-4.6191,-4.6152,-4.597,-4.5893,-4.5871,-4.5788,-4.5754,-4.5763,-4.5817,-4.5831,-4.5834,-4.5803,-4.5789,-4.5718,-4.5637,-4.5594,-4.5594,-4.5594,-4.5594,-4.5594,-4.5594,-4.5075,-4.4528,-4.4335,-4.2701,-4.147,-4.1758,0.0,0.0,0.0,-3.9938,-4.0104,-3.9912,-4.0612,-4.1112,-4.1112,-4.172,-4.2104,-4.2104,-4.272,-4.3181,-4.3374,-4.3951,-4.4393,-4.4605,-4.5248,-4.5594,-4.5594,-4.5594,-4.5594,-4.5594,-4.5594,-4.5594,-4.5594,-4.5594,-4.5594,-4.5594,-4.5594,-4.5594,-4.5594,-4.5594,-4.5594,-4.5594,-4.5594,-4.5657,-4.5754,-4.5754,-4.5754,-4.5756,-5.1808,-5.1202,-5.0712,-5.0712,-5.0712,-5.0712,-5.0712,-5.0712,-5.0712,-5.0712,-5.0712,-5.0712,-5.0712,-5.0712,-5.0712,-5.0712,-5.0712,-5.0712,-5.0712,-5.0712,-5.0712,-5.0712,-5.0712,-5.0712,-5.0712,-5.0635,-5.0596,-5.0596,-4.9721,-4.9298,-4.9298,-4.849,-4.8105,-4.8105,-4.8048,-4.8048,-4.8105,-4.8048,-4.8048,-4.8105,-4.8105,-4.8067,-4.8009,-4.8009,-4.7971,-4.7913,-4.7913,-4.7913,-4.7798,-4.7067,-4.6797,-4.6663,-4.5862,-4.562,-4.562,-4.5618,-4.5627,-4.5648,-4.5775,-4.5715,-4.5612,-4.5594,-4.5594,-4.5594,-4.5594,-4.5594,-4.5594,-4.5594,-4.5556,-4.5267,-4.4451,-4.4143,-4.3528,-4.2038,0.0,0.0,-4.0631,-4.1797,-4.2527,-4.172,-4.2374,-4.2912,-4.2912,-4.297,-4.3008,-4.3008,-4.3066,-4.3431,-4.4162,-4.4259,-4.4662,-4.5479,-4.5575,-4.5594,-4.5594,-4.5594,-4.5594,-4.5594,-4.5594,-4.5594,-4.5594,-4.5594,-4.5594,-4.5594,-4.5594,-4.5594,-4.5594,-4.5594,-4.5594,-4.5594,-4.5594,-4.5603,-4.562,-4.562,-4.562,-4.562,-5.2712,-5.2183,-5.1866,-5.2183,-5.1972,-5.1683,-5.1491,-5.101,-5.0712,-5.0712,-5.0712,-5.0712,-5.0712,-5.0712,-5.0712,-5.0712,-5.0712,-5.0712,-5.0712,-5.0712,-5.0712,-5.0712,-5.0712,-5.0712,-5.0712,-5.0712,-5.0712,-5.0712,-5.0366,-5.0212,-5.0212,-4.9875,-4.9702,-4.9683,-4.9144,-4.9202,-4.9683,-4.9144,-4.9221,-4.9702,-4.9702,-4.9394,-4.8913,-4.8913,-4.8567,-4.8105,-4.8105,-4.8105,-4.8048,-4.7759,-4.7644,-4.7509,-4.6663,-4.6413,-4.6297,-4.5768,-4.5594,-4.5612,-4.5657,-4.5635,-4.5594,-4.5594,-4.5594,-4.5594,-4.5594,-4.5594,-4.5594,-4.5594,-4.5594,-4.5498,-4.5171,-4.4662,-4.4259,-4.4162,0.0,-4.3047,-4.2874,-4.2989,-4.2989,-4.2643,-4.2893,-4.3104,-4.3104,-4.3547,-4.3835,-4.3835,-4.4335,-4.4786,-4.5094,-4.5114,-4.5267,-4.5594,-4.5594,-4.5594,-4.5594,-4.5594,-4.5594,-4.5594,-4.5594,-4.5594,-4.5594,-4.5594,-4.5594,-4.5594,-4.5594,-4.5594,-4.5594,-4.5594,-4.5594,-4.5594,-4.5594,-4.5594,-4.5594,-4.5594,-4.5594,-4.5594,-5.3606,-5.3087,-5.276,-5.3145,-5.2895,-5.2568,-5.2327,-5.1837,-5.1491,-5.1491,-5.1241,-5.1087,-5.1087,-5.0837,-5.0712,-5.0712,-5.0712,-5.0712,-5.0712,-5.0712,-5.0712,-5.0712,-5.0712,-5.0712,-5.0712,-5.0712,-5.0712,-5.0712,-5.0712,-5.0712,-5.0712,-5.0712,-5.0712,-5.0673,-5.0067,-5.0144,-5.0654,-5.0048,-5.0144,-5.0712,-5.0712,-5.0346,-4.9798,-4.9798,-4.9433,-4.8913,-4.8913,-4.8913,-4.8875,-4.8606,-4.8509,-4.8355,-4.7548,-4.7278,-4.7105,-4.6259,-4.6009,-4.5951,-4.5671,-4.5594,-4.5594,-4.5594,-4.5594,-4.5594,-4.5594,-4.5594,-4.5594,-4.5594,-4.5594,-4.5594,-4.5594,-4.5114,-4.4893,-4.5498,-4.4652,-4.4085,-4.4624,-4.422,-4.3893,-4.3893,-4.3893,-4.3893,-4.3893,-4.4374,-4.4701,-4.4701,-4.5267,-4.5594,-4.5594,-4.5594,-4.5594,-4.5594,-4.5594,-4.5594,-4.5594,-4.5594,-4.5594,-4.5594,-4.5594,-4.5594,-4.5594,-4.5594,-4.5594,-4.5594,-4.5594,-4.5594,-4.5594,-4.5594,-4.5594,-4.5594,-4.5594,-4.5594,-4.5594,-4.5594,-4.5594,-4.5594,-5.4511,-5.3818,-5.3222,-5.3222,-5.3222,-5.3222,-5.3222,-5.3203,-5.3203,-5.3203,-5.2442,-5.1904,-5.1904,-5.1183,-5.0712,-5.0712,-5.0712,-5.0712,-5.0712,-5.0712,-5.0712,-5.0712,-5.0712,-5.0712,-5.0712,-5.0712,-5.0712,-5.0712,-5.0712,-5.0712,-5.0712,-5.0712,-5.0712,-5.0712,-5.0712,-5.0712,-5.0712,-5.0712,-5.0712,-5.0712,-5.0712,-5.0712,-5.0712,-5.0712,-5.0712,-5.0712,-5.0712,-5.0712,-5.0577,-4.9702,-4.9413,-4.926,-4.8394,-4.8105,-4.7952,-4.7135,-4.6904,-4.6721,-4.5845,-4.5614,-4.5594,-4.5594,-4.5594,-4.5594,-4.5594,-4.5594,-4.5594,-4.5594,-4.5594,-4.5594,-4.5594,-4.5594,-4.5594,-4.5594,-4.5594,-4.5594,-4.5594,-4.5594,-4.5594,-4.5594,-4.5594,-4.5594,-4.5594,-4.5594,-4.5594,-4.5594,-4.5594,-4.5594,-4.5594,-4.5594,-4.5594,-4.5594,-4.5594,-4.5594,-4.5594,-4.5594,-4.5594,-4.5594,-4.5594,-4.5594,-4.5594,-4.5594,-4.5594,-4.5594,-4.5594,-4.5594,-4.5594,-4.5594,-4.5594,-4.5594,-4.5594,-4.5594,-4.5594,-4.5594,-4.5594,-4.5594,-5.5338,-5.5126,-5.4953,-5.4953,-5.4491,-5.4107,-5.4107,-5.3587,-5.3203,-5.3203,-5.2442,-5.2135,-5.276,-5.1548,-5.0933,-5.1491,-5.1029,-5.0712,-5.0712,-5.0712,-5.0712,-5.0712,-5.0712,-5.0712,-5.0712,-5.0712,-5.0712,-5.0712,-5.0712,-5.0712,-5.0712,-5.0712,-5.0712,-5.0712,-5.0712,-5.0712,-5.0712,-5.0712,-5.0712,-5.0712,-5.0712,-5.0712,-5.0712,-5.0712,-5.0712,-5.0712,-5.0712,-5.0712,-5.0654,-5.0404,-5.0308,-5.0164,-4.9298,-4.8586,-4.8048,-4.7817,-4.7327,-4.6827,-4.6586,-4.6067,-4.5594,-4.5594,-4.5594,-4.5594,-4.5594,-4.5594,-4.5594,-4.5594,-4.5594,-4.5594,-4.5594,-4.5594,-4.5594,-4.5594,-4.5594,-4.5594,-4.5594,-4.5594,-4.5594,-4.5594,-4.5594,-4.5594,-4.5594,-4.5594,-4.5594,-4.5594,-4.5594,-4.5594,-4.5594,-4.5594,-4.5594,-4.5594,-4.5594,-4.5594,-4.5594,-4.5594,-4.5594,-4.5594,-4.5594,-4.5594,-4.5594,-4.5594,-4.5594,-4.5594,-4.5594,-4.5594,-4.5594,-4.5594,-4.5594,-4.5594,-4.5594,-4.5594,-4.5594,-4.5594,-4.5594,-4.5594,-5.5703,-5.5703,-5.5703,-5.5703,-5.5299,-5.4972,-5.4972,-5.453,-5.4184,-5.4184,-5.3453,-5.3126,-5.3664,-5.2491,-5.1875,-5.2365,-5.1645,-5.1029,-5.0731,-5.0712,-5.0712,-5.0712,-5.0712,-5.0712,-5.0712,-5.0712,-5.0712,-5.0712,-5.0712,-5.0712,-5.0712,-5.0712,-5.0712,-5.0712,-5.0712,-5.0712,-5.0712,-5.0712,-5.0712,-5.0712,-5.0712,-5.0712,-5.0712,-5.0712,-5.0712,-5.0712,-5.0712,-5.0712,-5.0712,-5.0712,-5.0712,-5.0616,-5.0067,-4.9548,-4.9067,-4.8721,-4.8279,-4.774,-4.7077,-4.6528,-4.6028,-4.5691,-4.5594,-4.5594,-4.5594,-4.5594,-4.5594,-4.5594,-4.5594,-4.5594,-4.5594,-4.5594,-4.5594,-4.5594,-4.5594,-4.5594,-4.5594,-4.5594,-4.5594,-4.5594,-4.5594,-4.5594,-4.5594,-4.5594,-4.5594,-4.5594,-4.5594,-4.5594,-4.5594,-4.5594,-4.5594,-4.5594,-4.5594,-4.5594,-4.5594,-4.5594,-4.5594,-4.5594,-4.5594,-4.5594,-4.5594,-4.5594,-4.5594,-4.5594,-4.5594,-4.5594,-4.5594,-4.5594,-4.5594,-4.5594,-4.5594,-4.5594,-4.5594,-4.5594,-4.5594,-4.5594,-5.5703,-5.5703,-5.5703,-5.5703,-5.5703,-5.5703,-5.5703,-5.5703,-5.5703,-5.5703,-5.4991,-5.453,-5.4607,-5.378,-5.3241,-5.3318,-5.2519,-5.1722,-5.0981,-5.0923,-5.0923,-5.0923,-5.0923,-5.0885,-5.0808,-5.075,-5.0712,-5.0712,-5.0712,-5.0712,-5.0712,-5.0712,-5.0712,-5.0712,-5.0712,-5.0712,-5.0712,-5.0712,-5.0712,-5.0712,-5.0712,-5.0712,-5.0712,-5.0712,-5.0712,-5.0712,-5.0712,-5.0712,-5.0712,-5.0712,-5.0712,-5.0712,-5.0712,-5.0712,-5.0539,-4.974,-4.9452,-4.9067,-4.7548,-4.7,-4.6721,-4.5913,-4.5671,-4.5594,-4.5594,-4.5594,-4.5594,-4.5594,-4.5594,-4.5594,-4.5594,-4.5594,-4.5594,-4.5594,-4.5594,-4.5594,-4.5594,-4.5594,-4.5594,-4.5594,-4.5594,-4.5594,-4.5594,-4.5594,-4.5594,-4.5594,-4.5594,-4.5594,-4.5594,-4.5594,-4.5594,-4.5594,-4.5594,-4.5594,-4.5594,-4.5594,-4.5594,-4.5594,-4.5594,-4.5594,-4.5594,-4.5594,-4.5594,-4.5594,-4.5594,-4.5594,-4.5594,-4.5594,-4.5594,-4.5594,-4.5594,-4.5594,-4.5594,-4.5594,-4.5594,-4.5594,-5.5703,-5.5703,-5.5703,-5.5703,-5.5703,-5.5703,-5.5703,-5.5703,-5.5703,-5.5703,-5.4991,-5.4741,-5.5376,-5.4107,-5.3472,-5.4164,-5.3414,-5.2837,-5.2664,-5.2664,-5.2664,-5.2664,-5.2664,-5.2337,-5.1654,-5.101,-5.0712,-5.0712,-5.0712,-5.0712,-5.0712,-5.0712,-5.0712,-5.0712,-5.0712,-5.0712,-5.0712,-5.0712,-5.0712,-5.0712,-5.0712,-5.0712,-5.0712,-5.0712,-5.0712,-5.0712,-5.0712,-5.0712,-5.0712,-5.0712,-5.0712,-5.0712,-5.0712,-5.0712,-5.0654,-5.0481,-4.9933,-4.9317,-4.8952,-4.7894,-4.6846,-4.6682,-4.6105,-4.5594,-4.5594,-4.5594,-4.5594,-4.5594,-4.5594,-4.5594,-4.5594,-4.5594,-4.5594,-4.5594,-4.5594,-4.5594,-4.5594,-4.5594,-4.5594,-4.5594,-4.5594,-4.5594,-4.5594,-4.5594,-4.5594,-4.5594,-4.5594,-4.5594,-4.5594,-4.5594,-4.5594,-4.5594,-4.5594,-4.5594,-4.5594,-4.5594,-4.5594,-4.5594,-4.5594,-4.5594,-4.5594,-4.5594,-4.5594,-4.5594,-4.5594,-4.5594,-4.5594,-4.5594,-4.5594,-4.5594,-4.5594,-4.5594,-4.5594,-4.5594,-4.5594,-4.5594,-5.5703,-5.5703,-5.5703,-5.5703,-5.5703,-5.5703,-5.5703,-5.5703,-5.5703,-5.5703,-5.5318,-5.5222,-5.5645,-5.4914,-5.4414,-5.4491,-5.4087,-5.3645,-5.3241,-5.3203,-5.3203,-5.3203,-5.3203,-5.2991,-5.2519,-5.2106,-5.1491,-5.0712,-5.0712,-5.0712,-5.0712,-5.0712,-5.0712,-5.0712,-5.0712,-5.0712,-5.0712,-5.0712,-5.0712,-5.0712,-5.0712,-5.0712,-5.0712,-5.0712,-5.0712,-5.0712,-5.0712,-5.0712,-5.0712,-5.0712,-5.0712,-5.0712,-5.0712,-5.0712,-5.0712,-5.0712,-5.0385,-4.9933,-4.951,-4.8759,-4.799,-4.7586,-4.6836,-4.6105,-4.5691,-4.5594,-4.5594,-4.5594,-4.5594,-4.5594,-4.5594,-4.5594,-4.5594,-4.5594,-4.5594,-4.5594,-4.5594,-4.5594,-4.5594,-4.5594,-4.5594,-4.5594,-4.5594,-4.5594,-4.5594,-4.5594,-4.5594,-4.5594,-4.5594,-4.5594,-4.5594,-4.5594,-4.5594,-4.5594,-4.5594,-4.5594,-4.5594,-4.5594,-4.5594,-4.5594,-4.5594,-4.5594,-4.5594,-4.5594,-4.5594,-4.5594,-4.5594,-4.5594,-4.5594,-4.5594,-4.5594,-4.5594,-4.5594,-4.5594,-4.5594,-4.5594,-5.5703,-5.5703,-5.5703,-5.5703,-5.5703,-5.5703,-5.5703,-5.5703,-5.5703,-5.5703,-5.5703,-5.5703,-5.5703,-5.5703,-5.5434,-5.4761,-5.4703,-5.4395,-5.3664,-5.3626,-5.3626,-5.3626,-5.3626,-5.3568,-5.3433,-5.3414,-5.2606,-5.0914,-5.0914,-5.0827,-5.0712,-5.0846,-5.0914,-5.0914,-5.1048,-5.1029,-5.0914,-5.0914,-5.0827,-5.0712,-5.0712,-5.0712,-5.0712,-5.0712,-5.0712,-5.0712,-5.0712,-5.0712,-5.0712,-5.0712,-5.0712,-5.0712,-5.0712,-5.0712,-5.0712,-5.0712,-5.0712,-5.0539,-4.9817,-4.951,-4.9221,-4.8509,-4.7721,-4.6932,-4.6182,-4.5806,-4.5594,-4.5594,-4.5594,-4.5594,-4.5594,-4.5594,-4.5594,-4.5594,-4.5594,-4.5594,-4.5594,-4.5594,-4.5594,-4.5594,-4.5594,-4.5594,-4.5594,-4.5594,-4.5594,-4.5594,-4.5594,-4.5594,-4.5594,-4.5594,-4.5594,-4.5594,-4.5594,-4.5594,-4.5594,-4.5594,-4.5594,-4.5594,-4.5594,-4.5594,-4.5594,-4.5594,-4.5594,-4.5594,-4.5594,-4.5594,-4.5594,-4.5594,-4.5594,-4.5594,-4.5594,-4.5594,-4.5594,-4.5594,-4.5594,-4.5594,-5.5703,-5.5703,-5.5703,-5.5703,-5.5703,-5.5703,-5.5703,-5.5703,-5.5703,-5.5703,-5.5703,-5.5703,-5.5703,-5.5703,-5.5665,-5.5549,-5.553,-5.5491,-5.5376,-5.5357,-5.5357,-5.5357,-5.5357,-5.503,-5.4337,-5.4318,-5.3472,-5.1731,-5.1731,-5.1375,-5.0731,-5.1414,-5.1731,-5.1769,-5.2529,-5.2452,-5.1731,-5.1731,-5.1337,-5.0712,-5.0712,-5.0712,-5.0712,-5.0712,-5.0712,-5.0712,-5.0712,-5.0712,-5.0712,-5.0712,-5.0712,-5.0712,-5.0712,-5.0712,-5.0712,-5.0712,-5.0712,-5.0673,-5.0558,-4.9971,-4.9375,-4.924,-4.8586,-4.7913,-4.7798,-4.6644,-4.5594,-4.5594,-4.5594,-4.5594,-4.5594,-4.5594,-4.5594,-4.5594,-4.5594,-4.5594,-4.5594,-4.5594,-4.5594,-4.5594,-4.5594,-4.5594,-4.5594,-4.5594,-4.5594,-4.5594,-4.5594,-4.5594,-4.5594,-4.5594,-4.5594,-4.5594,-4.5594,-4.5594,-4.5594,-4.5594,-4.5594,-4.5594,-4.5594,-4.5594,-4.5594,-4.5594,-4.5594,-4.5594,-4.5594,-4.5594,-4.5594,-4.5594,-4.5594,-4.5594,-4.5594,-4.5594,-4.5594,-4.5594,-4.5594,-4.5594,-5.5703,-5.5703,-5.5703,-5.5703,-5.5703,-5.5703,-5.5703,-5.5703,-5.5703,-5.5703,-5.5703,-5.5703,-5.5703,-5.5703,-5.5703,-5.5703,-5.5703,-5.5703,-5.5703,-5.5703,-5.5703,-5.5703,-5.5703,-5.553,-5.5184,-5.5164,-5.4568,-5.3356,-5.2856,-5.2452,-5.2106,-5.2472,-5.2635,-5.2635,-5.3029,-5.2991,-5.2635,-5.2635,-5.2414,-5.2106,-5.2106,-5.2106,-5.2049,-5.1568,-5.1664,-5.2029,-5.1548,-5.1087,-5.0712,-5.0712,-5.0712,-5.0712,-5.0712,-5.0712,-5.0712,-5.0712,-5.0712,-5.0712,-5.0712,-5.0423,-5.0125,-5.0125,-4.9471,-4.8836,-4.8836,-4.7875,-4.6874,-4.6413,-4.5932,-4.5594,-4.5594,-4.5594,-4.5594,-4.5594,-4.5594,-4.5594,-4.5594,-4.5594,-4.5594,-4.5594,-4.5594,-4.5594,-4.5594,-4.5594,-4.5594,-4.5594,-4.5594,-4.5594,-4.5594,-4.5594,-4.5594,-4.5594,-4.5594,-4.5594,-4.5594,-4.5594,-4.5594,-4.5594,-4.5594,-4.5594,-4.5594,-4.5594,-4.5594,-4.5594,-4.5594,-4.5594,-4.5594,-4.5594,-4.5594,-4.5594,-4.5594,-4.5594,-4.5594,-4.5594,-4.5594,-4.5594]},{"header":{"parameterUnit":"m.s-1","parameterCategory":1,"la1":30.6,"la2":28.766,"lo1":-90.7593,"lo2":-88.6598,"dy":0.0162,"dx":0.0183,"nx":116,"ny":114,"refTime":"2024-06-27T18:00:00:Z","depth":0,"parameterNumber":3,"parameterNumberName":"V-component_of_WINDS"},"data":[0.0,0.0,0.0,0.0,0.0,0.0,0.0,0.0,0.0,0.0,0.0,0.0,0.0,0.0,0.0,0.0,0.0,0.0,0.0,0.0,0.0,0.0,0.0,0.0,0.0,0.0,0.0,0.0,0.0,0.0,0.0,0.0,0.0,0.0,0.0,0.0,0.0,0.0,0.0,0.0,0.0,0.0,0.0,0.0,0.0,0.0,0.0,0.0,0.0,0.0,0.0,0.0,0.0,0.0,0.0,0.0,0.0,0.0,0.0,0.0,0.0,0.0,0.0,0.0,0.0,0.0,0.0,0.0,0.0,0.0,0.0,0.0,0.0,0.0,0.0,0.0,0.0,0.0,0.0,0.0,0.0,0.0,0.0,0.0,0.0,0.0,0.0,0.0,0.0,0.0,0.0,0.0,0.0,0.0,0.0,0.0,0.0,0.0,0.0,0.0,0.0,0.0,0.0,0.0,0.0,0.0,0.0,0.0,0.0,0.0,0.0,0.0,0.0,0.0,0.0,0.0,0.0,0.0,0.0,0.0,0.0,0.0,0.0,0.0,0.0,0.0,0.0,0.0,0.0,0.0,0.0,0.0,0.0,0.0,0.0,0.0,0.0,0.0,0.0,0.0,0.0,0.0,0.0,0.0,0.0,0.0,0.0,0.0,0.0,0.0,0.0,0.0,0.0,0.0,0.0,0.0,0.0,0.0,0.0,0.0,0.0,0.0,0.0,0.0,0.0,0.0,0.0,0.0,0.0,0.0,0.0,0.0,0.0,0.0,0.0,0.0,0.0,0.0,0.0,0.0,0.0,0.0,0.0,0.0,0.0,0.0,0.0,0.0,0.0,0.0,0.0,0.0,0.0,0.0,0.0,0.0,0.0,0.0,0.0,0.0,0.0,0.0,0.0,0.0,0.0,0.0,0.0,0.0,0.0,0.0,0.0,0.0,0.0,0.0,0.0,0.0,0.0,0.0,0.0,0.0,0.0,0.0,0.0,0.0,0.0,0.0,0.0,0.0,0.0,0.0,0.0,0.0,0.0,0.0,0.0,0.0,0.0,0.0,0.0,0.0,0.0,0.0,0.0,0.0,0.0,0.0,0.0,0.0,0.0,0.0,0.0,0.0,0.0,0.0,0.0,0.0,0.0,0.0,0.0,0.0,0.0,0.0,0.0,0.0,0.0,0.0,0.0,0.0,0.0,0.0,0.0,0.0,0.0,0.0,0.0,0.0,0.0,0.0,0.0,0.0,0.0,0.0,0.0,0.0,0.0,0.0,0.0,0.0,0.0,0.0,0.0,0.0,0.0,0.0,0.0,0.0,0.0,0.0,0.0,0.0,0.0,0.0,0.0,0.0,0.0,0.0,0.0,0.0,0.0,0.0,0.0,0.0,0.0,0.0,0.0,0.0,0.0,0.0,0.0,0.0,0.0,0.0,0.0,0.0,0.0,0.0,0.0,0.0,0.0,0.0,0.0,0.0,0.0,0.0,0.0,0.0,0.0,0.0,0.0,0.0,0.0,0.0,0.0,0.0,0.0,0.0,0.0,0.0,0.0,0.0,0.0,0.0,0.0,0.0,0.0,0.0,0.0,0.0,0.0,0.0,0.0,0.0,0.0,0.0,0.0,0.0,0.0,0.0,0.0,0.0,0.0,0.0,0.0,0.0,0.0,0.0,0.0,0.0,0.0,0.0,0.0,0.0,0.0,0.0,0.0,0.0,0.0,0.0,0.0,0.0,0.0,0.0,0.0,0.0,0.0,0.0,0.0,0.0,0.0,0.0,0.0,0.0,0.0,0.0,0.0,0.0,0.0,0.0,0.0,0.0,0.0,0.0,0.0,0.0,0.0,0.0,0.0,0.0,0.0,0.0,0.0,0.0,0.0,0.0,0.0,0.0,0.0,0.0,0.0,0.0,0.0,0.0,0.0,0.0,0.0,0.0,0.0,0.0,0.0,0.0,0.0,0.0,0.0,0.0,0.0,0.0,0.0,0.0,0.0,0.0,0.0,0.0,0.0,0.0,0.0,0.0,0.0,0.0,0.0,0.0,0.0,0.0,0.0,0.0,0.0,0.0,0.0,0.0,0.0,0.0,0.0,0.0,0.0,0.0,0.0,0.0,0.0,0.0,0.0,0.0,0.0,0.0,0.0,0.0,0.0,0.0,0.0,0.0,0.0,0.0,0.0,0.0,0.0,0.0,0.0,0.0,0.0,0.0,0.0,0.0,0.0,0.0,0.0,0.0,0.0,0.0,0.0,0.0,0.0,0.0,0.0,0.0,0.0,0.0,0.0,0.0,0.0,0.0,0.0,0.0,0.0,0.0,0.0,0.0,0.0,0.0,0.0,0.0,0.0,0.0,0.0,0.0,0.0,0.0,0.0,0.0,0.0,0.0,0.0,0.0,0.0,0.0,0.0,0.0,0.0,0.0,0.0,0.0,0.0,0.0,0.0,0.0,0.0,0.0,0.0,0.0,0.0,0.0,0.0,0.0,0.0,0.0,0.0,0.0,0.0,0.0,0.0,0.0,0.0,0.0,0.0,0.0,0.0,0.0,0.0,0.0,0.0,0.0,0.0,0.0,0.0,0.0,0.0,0.0,0.0,0.0,0.0,0.0,0.0,0.0,0.0,0.0,0.0,0.0,0.0,0.0,0.0,0.0,0.0,0.0,0.0,0.0,0.0,0.0,0.0,0.0,0.0,0.0,0.0,0.0,0.0,0.0,0.0,0.0,0.0,0.0,0.0,0.0,0.0,0.0,0.0,0.0,0.0,0.0,0.0,0.0,0.0,0.0,0.0,0.0,0.0,0.0,0.0,0.0,0.0,0.0,0.0,0.0,0.0,0.0,0.0,0.0,0.0,0.0,0.0,0.0,0.0,0.0,0.0,0.0,0.0,0.0,0.0,0.0,0.0,0.0,0.0,0.0,0.0,0.0,0.0,0.0,0.0,0.0,0.0,0.0,0.0,0.0,0.0,0.0,0.0,0.0,0.0,0.0,0.0,0.0,0.0,0.0,0.0,0.0,0.0,0.0,0.0,0.0,0.0,0.0,0.0,0.0,0.0,0.0,0.0,0.0,0.0,0.0,0.0,0.0,0.0,0.0,0.0,0.0,0.0,0.0,0.0,0.0,0.0,0.0,0.0,0.0,0.0,0.0,0.0,0.0,0.0,0.0,0.0,0.0,0.0,0.0,0.0,0.0,0.0,0.0,0.0,0.0,0.0,0.0,0.0,0.0,0.0,0.0,0.0,0.0,0.0,0.0,0.0,0.0,0.0,0.0,0.0,0.0,0.0,0.0,0.0,0.0,0.0,0.0,0.0,0.0,0.0,0.0,0.0,0.0,0.0,0.0,0.0,0.0,0.0,0.0,0.0,0.0,0.0,0.0,0.0,0.0,0.0,0.0,0.0,0.0,0.0,0.0,0.0,0.0,0.0,0.0,0.0,0.0,0.0,0.0,0.0,0.0,0.0,0.0,0.0,0.0,0.0,0.0,0.0,0.0,0.0,0.0,0.0,0.0,0.0,0.0,0.0,0.0,0.0,0.0,0.0,0.0,0.0,0.0,0.0,0.0,0.0,0.0,0.0,0.0,0.0,0.0,0.0,0.0,0.0,0.0,0.0,0.0,0.0,0.0,0.0,0.0,0.0,0.0,0.0,0.0,0.0,0.0,0.0,0.0,0.0,0.0,0.0,0.0,0.0,0.0,0.0,0.0,0.0,0.0,0.0,0.0,0.0,0.0,0.0,0.0,0.0,0.0,0.0,0.0,0.0,0.0,0.0,0.0,0.0,0.0,0.0,0.0,0.0,0.0,0.0,0.0,0.0,0.0,0.0,0.0,0.0,0.0,0.0,0.0,0.0,0.0,0.0,0.0,0.0,0.0,0.0,0.0,0.0,0.0,0.0,0.0,0.0,0.0,0.0,0.0,0.0,0.0,0.0,0.0,0.0,0.0,0.0,0.0,0.0,0.0,0.0,0.0,0.0,0.0,0.0,0.0,0.0,0.0,0.0,0.0,0.0,0.0,0.0,0.0,0.0,0.0,0.0,0.0,0.0,0.0,0.0,0.0,0.0,0.0,0.0,0.0,0.0,0.0,0.0,0.0,0.0,0.0,0.0,0.0,0.0,0.0,0.0,0.0,0.0,0.0,0.0,0.0,0.0,0.0,0.0,0.0,0.0,0.0,0.0,0.0,0.0,0.0,0.0,0.0,0.0,0.0,0.0,0.0,0.0,0.0,0.0,0.0,0.0,0.0,0.0,0.0,0.0,0.0,0.0,0.0,0.0,0.0,0.0,0.0,0.0,0.0,0.0,0.0,0.0,0.0,0.0,0.0,0.0,0.0,0.0,0.0,0.0,0.0,0.0,0.0,0.0,0.0,0.0,0.0,0.0,0.0,0.0,0.0,0.0,0.0,0.0,0.0,0.0,0.0,0.0,0.0,0.0,0.0,0.0,0.0,0.0,0.0,0.0,0.0,0.0,0.0,0.0,0.0,0.0,0.0,0.0,0.0,0.0,0.0,0.0,0.0,0.0,0.0,0.0,0.0,0.0,0.0,0.0,0.0,0.0,0.0,0.0,0.0,0.0,0.0,0.0,0.0,0.0,0.0,0.0,0.0,0.0,0.0,0.0,0.0,0.0,0.0,0.0,0.0,0.0,0.0,0.0,0.0,0.0,0.0,0.0,0.0,0.0,0.0,0.0,0.0,0.0,0.0,0.0,0.0,0.0,0.0,0.0,0.0,0.0,0.0,0.0,0.0,0.0,0.0,0.0,0.0,0.0,0.0,0.0,0.0,0.0,0.0,0.0,0.0,0.0,0.0,0.0,0.0,0.0,0.0,0.0,0.0,0.0,0.0,0.0,0.0,0.0,0.0,0.0,0.0,0.0,0.0,0.0,0.0,0.0,0.0,0.0,0.0,0.0,0.0,0.0,0.0,0.0,0.0,0.0,0.0,0.0,0.0,0.0,0.0,0.0,0.0,0.0,0.0,0.0,0.0,0.0,0.0,0.0,0.0,0.0,0.0,0.0,0.0,0.0,0.0,0.0,0.0,0.0,0.0,0.0,0.0,0.0,0.0,0.0,0.0,0.0,0.0,0.0,0.0,0.0,0.0,0.0,0.0,0.0,0.0,0.0,0.0,0.0,0.0,0.0,0.0,0.0,0.0,0.0,0.0,0.0,0.0,0.0,0.0,0.0,0.0,0.0,0.0,0.0,0.0,0.0,0.0,0.0,0.0,0.0,0.0,0.0,0.0,0.0,0.0,0.0,0.0,0.0,0.0,0.0,0.0,0.0,0.0,0.0,0.0,0.0,0.0,0.0,0.0,0.0,0.0,0.0,0.0,0.0,0.0,0.0,0.0,0.0,0.0,0.0,0.0,0.0,0.0,0.0,0.0,0.0,0.0,0.0,0.0,0.0,0.0,0.0,0.0,0.0,0.0,0.0,0.0,0.0,0.0,0.0,0.0,0.0,0.0,0.0,0.0,0.0,0.0,0.0,0.0,0.0,0.0,0.0,0.0,0.0,0.0,0.0,0.0,0.0,0.0,0.0,0.0,0.0,0.0,0.0,0.0,0.0,0.0,0.0,0.0,0.0,0.0,0.0,0.0,0.0,0.0,0.0,0.0,0.0,0.0,0.0,0.0,0.0,0.0,0.0,0.0,0.0,0.0,0.0,0.0,0.0,0.0,0.0,0.0,0.0,0.0,0.0,0.0,0.0,0.0,0.0,0.0,0.0,0.0,0.0,0.0,0.0,0.0,0.0,0.0,0.0,0.0,0.0,0.0,0.0,0.0,0.0,0.0,0.0,0.0,0.0,0.0,0.0,0.0,0.0,0.0,0.0,0.0,0.0,0.0,0.0,0.0,0.0,0.0,0.0,0.0,0.0,0.0,0.0,0.0,0.0,0.0,0.0,0.0,0.0,0.0,0.0,0.0,0.0,0.0,0.0,0.0,0.0,0.0,0.0,0.0,0.0,0.0,0.0,0.0,0.0,0.0,0.0,0.0,0.0,0.0,0.0,0.0,0.0,0.0,0.0,0.0,0.0,0.0,0.0,0.0,0.0,0.0,0.0,0.0,0.0,0.0,0.0,0.0,0.0,0.0,0.0,0.0,0.0,0.0,0.184,0.0,0.0,0.0,0.0,0.0,0.0,0.0,0.0,0.0,0.0,0.0,0.0,0.0,0.0,0.0,0.0,0.0,0.0,0.0,0.0,0.0,0.0,0.0,0.0,0.2716,0.2818,0.2886,0.2893,0.2862,0.2795,0.0,0.0,0.0,0.0,0.0,0.2791,0.2791,0.29,0.3101,0.312,0.3273,0.3536,0.3037,0.2884,0.3032,0.0,0.0,0.0,0.0,0.0,0.0,0.0,0.0,0.0,0.0,0.0,0.0,0.0,0.0,0.0,0.0,0.0,0.0,0.0,0.0,0.0,0.0,0.0,0.0,0.0,0.0,0.0,0.0,0.0,0.0,0.0,0.0,0.0,0.0,0.0,0.0,0.0,0.0,0.0,0.0,0.0,0.0,0.0,0.0,0.0,0.0,0.0,0.0,0.0,0.0,0.0,0.0,0.0,0.0,0.0,0.0,0.0,0.0,0.0,0.0,0.0,0.0,0.0,0.0,0.0,0.0,0.0,0.0,0.0,0.0,0.0,0.194,0.0,0.0,0.0,0.0,0.0,0.0,0.0,0.0,0.0,0.0,0.0,0.0,0.0,0.0,0.0,0.0,0.0,0.0,0.0,0.0,0.0,0.2321,0.2665,0.2818,0.2959,0.3125,0.3118,0.3064,0.2973,0.0,0.0,0.0,0.0,0.2815,0.2926,0.2953,0.3098,0.3346,0.3515,0.3638,0.3728,0.3233,0.3235,0.3593,0.3658,0.0,0.0,0.0,0.0,0.0,0.0,0.0,0.0,0.0,0.0,0.0,0.0,0.0,0.0,0.0,0.0,0.0,0.0,0.0,0.0,0.0,0.0,0.0,0.0,0.0,0.0,0.0,0.0,0.0,0.0,0.0,0.0,0.0,0.0,0.0,0.0,0.0,0.0,0.0,0.0,0.0,0.0,0.0,0.0,0.0,0.0,0.0,0.0,0.0,0.0,0.0,0.0,0.0,0.0,0.0,0.0,0.0,0.0,0.0,0.0,0.0,0.0,0.0,0.0,0.1382,0.2192,0.0701,0.0398,0.1119,0.1603,0.1479,0.0939,0.0,0.0,0.0,0.0,0.0,0.0,0.0,0.0,0.0,0.0,0.0,0.0,0.0,0.0,0.0,0.0,0.0,0.0,0.0,0.0,0.2321,0.2665,0.2818,0.3,0.3252,0.3159,0.3151,0.3242,0.3145,0.0,0.0,0.3044,0.3054,0.3074,0.3182,0.3354,0.3551,0.4088,0.4045,0.3455,0.3485,0.3552,0.3624,0.3851,0.3913,0.3853,0.0,0.0,0.0,0.0,0.0,0.0,0.0,0.0,0.0,0.0,0.0,0.0,0.0,0.0,0.0,0.0,0.0,0.0,0.0,0.0,0.0,0.0,0.0,0.0,0.0,0.0,0.0,0.0,0.0,0.0,0.0,0.0,0.0,0.0,0.0,0.0,0.0,0.0,0.0,0.0,0.0,0.2072,0.2119,0.0,0.0,0.0,0.0,0.0,0.0,0.0,0.0,0.0,0.0,0.0,0.0,0.0,0.0,0.2806,0.1895,0.1502,0.1725,0.0656,0.0207,0.0363,0.0102,0.0051,0.0152,0.0248,0.0,0.0172,0.0245,0.0,0.0,0.0,0.0,0.0,0.0,0.0,0.0,0.0,0.0,0.0,0.0,0.0,0.0,0.0,0.0,0.0,0.0,0.0,0.0,0.0,0.3195,0.3405,0.3677,0.3644,0.3563,0.3487,0.0,0.0,0.3108,0.3101,0.3182,0.3375,0.3034,0.2801,0.2697,0.3156,0.3199,0.2886,0.2479,0.2601,0.3103,0.3124,0.3582,0.425,0.3947,0.0,0.0,0.0,0.0,0.0,0.0,0.0,0.0,0.0,0.0,0.0,0.0,0.0,0.0,0.0,0.0,0.0,0.0,0.0,0.0,0.0,0.0,0.0,0.0,0.0,0.0,0.0,0.0,0.0,0.0,0.0,0.0,0.0,0.0,0.0,0.0,0.0,0.0,0.0,0.2437,0.2468,0.1611,0.1848,0.2227,0.0,0.0,0.0,0.0,0.0,0.0,0.0,0.0,0.0,0.1091,0.1087,0.1169,0.1251,0.0799,0.0612,0.072,0.0211,0.0,0.0,0.0,0.0,0.0,0.0,0.0,0.0,0.0,0.0,0.0041,0.0,0.0,0.0,0.0,0.0,0.0424,0.0,0.0,0.0,0.0,0.0,0.0,0.0,0.0,0.0,0.0,0.0,0.0,0.3337,0.3578,0.3795,0.4031,0.4051,0.0,0.0,0.0,0.3531,0.3283,0.3273,0.3398,0.3651,0.2995,0.2481,0.2141,0.2392,0.2384,0.2195,0.1574,0.1676,0.2322,0.224,0.3016,0.4347,0.4089,0.392,0.0,0.0,0.0,0.0,0.0,0.0,0.0,0.0,0.0,0.0,0.0,0.0,0.0,0.0,0.0,0.0,0.0,0.0,0.0,0.0,0.0,0.0,0.0,0.0,0.0,0.0,0.0,0.0,0.0,0.0,0.0,0.0,0.0,0.0,0.0,0.0,0.0,0.0,0.242,0.2321,0.0978,0.1298,0.1707,0.0,0.0,0.0,0.0,0.0,0.0,0.0846,0.084,0.0553,0.0,0.0,0.0,0.0,0.0,0.0,0.0,0.0,0.0,0.0,0.0,0.0,0.0,0.0,0.0,0.0,0.0,0.0,0.0,0.0,0.0,0.0,0.0,0.0,0.0,0.0,0.0,0.0,0.0,0.0,0.0,0.0,0.0,0.0,0.0,0.0,0.3069,0.3542,0.0,0.4038,0.0,0.0,0.0,0.0,0.0,0.3775,0.3758,0.3758,0.3765,0.3782,0.3328,0.2886,0.2463,0.2506,0.2099,0.1376,0.1305,0.1343,0.1381,0.1379,0.2349,0.3983,0.3542,0.3788,0.4406,0.0,0.0,0.0,0.0,0.0,0.0,0.0,0.0,0.0,0.0,0.0,0.0,0.0,0.0,0.0,0.0,0.0,0.0,0.0,0.0,0.0,0.0,0.0,0.0,0.0,0.0,0.0,0.0,0.0,0.0,0.0,0.0,0.0,0.0,0.0,0.0,0.0,0.0,0.0,0.0155,0.0081,0.0,0.0,0.0,0.0,0.1088,0.0506,0.0089,0.0047,0.0049,0.0051,0.0,0.0,0.0,0.0,0.0,0.0,0.0,0.0,0.0,0.0,0.0,0.0,0.0,0.0,0.0,0.0,0.0,0.0,0.0,0.0,0.0,0.0,0.0,0.0,0.0,0.0,0.0,0.0,0.1803,0.1803,0.1826,0.1913,0.2046,0.2214,0.247,0.2886,0.3269,0.0,0.4037,0.0,0.0,0.0,0.0,0.0,0.0,0.3957,0.4055,0.3967,0.3576,0.2787,0.2734,0.2113,0.0898,0.1464,0.1282,0.0448,0.0455,0.0459,0.0459,0.0459,0.1129,0.2338,0.3232,0.3672,0.3738,0.3973,0.3906,0.0,0.0,0.0,0.0,0.0,0.0,0.0,0.0,0.0,0.0,0.0,0.0,0.0,0.0,0.0,0.0,0.0,0.0,0.0,0.0,0.0,0.0,0.0,0.0,0.0,0.0,0.0,0.0,0.0,0.0,0.0,0.0,0.0,0.0,0.0,0.0,0.0,0.0085,0.0,0.0,0.0,0.0176,0.009,0.0368,0.0144,0.0,0.0,0.0,0.0,0.0,0.0,0.0,0.0,0.0,0.0,0.0,0.0,0.0,0.0,0.0,0.0,0.0,0.0,0.0,0.0,0.0,0.0,0.0,0.0,0.0,0.0,0.0,0.0,0.0,0.1803,0.1803,0.0,0.1803,0.1803,0.1843,0.1975,0.2114,0.2315,0.2655,0.3117,0.3502,0.0,0.0,0.0,0.0,0.0,0.0,0.0,0.0,0.4115,0.419,0.3872,0.3261,0.2307,0.2127,0.1353,0.0,0.0595,0.057,0.0,0.0,0.0,0.0,0.0,0.0311,0.0953,0.2364,0.2975,0.3092,0.3736,0.3871,0.3695,0.0,0.0,0.0,0.0,0.0,0.0,0.0,0.0,0.0,0.0,0.0,0.0,0.0,0.0,0.0,0.0,0.0,0.0,0.0,0.0,0.0,0.0,0.0,0.0,0.0,0.0,0.0,0.0,0.0,0.0,0.0,0.0,0.0,0.0,0.0,0.0836,0.0091,0.0,0.0,0.0,0.0,0.0,0.0,0.0,0.0,0.0,0.0,0.0,0.0,0.0,0.0,0.0,0.0,0.0,0.0,0.0,0.0,0.0,0.0,0.0,0.0,0.0,0.0,0.0,0.0,0.0,0.0,0.0,0.0,0.0,0.0,0.0,0.0,0.1803,0.1803,0.1803,0.1803,0.1803,0.1846,0.1979,0.2117,0.2418,0.3023,0.3388,0.0,0.0,0.0,0.0,0.0,0.0,0.0,0.0,0.4301,0.4204,0.4217,0.3498,0.2921,0.2522,0.1558,0.072,0.0,0.0,0.0,0.0,0.0,0.0,0.0,0.0,0.0,0.0039,0.0918,0.1727,0.2477,0.3296,0.3418,0.3201,0.0,0.0,0.0,0.0,0.0,0.0,0.0,0.0,0.0,0.0,0.0,0.0,0.0,0.0,0.0,0.0,0.0,0.0,0.0,0.0,0.0,0.0,0.0,0.0,0.0,0.0,0.0,0.0,0.0,0.0,0.0,0.0,0.0,0.1054,0.1069,0.0794,0.0095,0.0,0.0,0.0,0.0,0.0,0.0,0.0,0.0,0.0,0.0,0.0,0.0,0.0,0.0,0.0,0.0,0.0,0.0,0.0,0.0,0.0,0.0,0.0,0.0,0.0,0.0,0.0,0.0,0.0,0.0,0.0,0.0,0.0,0.0,0.0,0.0,0.1803,0.1803,0.1803,0.1803,0.1803,0.1884,0.2107,0.217,0.2418,0.3023,0.3388,0.0,0.0,0.0,0.0,0.0,0.0,0.0,0.4501,0.4301,0.4338,0.4692,0.3487,0.2818,0.2777,0.1144,0.0188,0.0,0.0,0.0,0.0,0.0,0.0,0.0,0.0,0.0,0.0,0.0275,0.0467,0.0892,0.3011,0.3773,0.3688,0.0,0.0,0.0,0.0,0.0,0.0,0.0,0.0,0.0,0.0,0.0,0.0,0.0,0.0,0.0,0.0,0.0,0.0,0.0,0.0,0.0,0.0,0.0,0.0,0.0,0.0,0.0,0.0,0.0,0.0,0.0,0.0,0.0323,0.0323,0.0288,0.025,0.0,0.0,0.0,0.0,0.0,0.0,0.0,0.0,0.0,0.0,0.0,0.0,0.0,0.0,0.0,0.0,0.0,0.0,0.0,0.0,0.0,0.0,0.0,0.0,0.0,0.0,0.0,0.0,0.0,0.0,0.0,0.0,0.0,0.0,0.0,0.0,0.0,0.1803,0.1803,0.1803,0.1803,0.1803,0.1886,0.2164,0.2197,0.2465,0.3219,0.347,0.0,0.0,0.0,0.0,0.0,0.0,0.4586,0.4494,0.4443,0.4429,0.4445,0.0,0.2505,0.2223,0.0764,0.0,0.0,0.0,0.0,0.0,0.0,0.0,0.0,0.0,0.0,0.0,0.0,0.0,0.0162,0.2175,0.317,0.3502,0.4246,0.4719,0.4958,0.4602,0.4436,0.4378,0.4229,0.0,0.0,0.0,0.0,0.0,0.0,0.0,0.0,0.0,0.0,0.0,0.0,0.0,0.0,0.0,0.0,0.0,0.0,0.0,0.0,0.0,0.0,0.0,0.0,0.0463,0.0,0.0,0.0,0.0,0.0,0.0,0.0,0.0,0.0,0.0,0.0,0.0,0.0,0.0,0.0,0.0,0.0,0.0,0.0,0.0,0.0,0.0,0.0,0.0,0.0,0.0,0.0,0.0,0.0,0.0,0.0,0.0,0.0,0.0,0.0,0.0,0.0,0.0,0.0,0.0,0.0,0.1803,0.1803,0.1803,0.1803,0.1803,0.1886,0.2164,0.2197,0.2522,0.3439,0.0,0.0,0.0,0.0,0.0,0.0,0.0,0.0,0.0,0.0,0.0,0.3851,0.3011,0.2163,0.1363,0.0466,0.0,0.0,0.0,0.0,0.0,0.0,0.0,0.0,0.0,0.0,0.0,0.0,0.0,0.0082,0.1018,0.2011,0.3003,0.3761,0.4637,0.5426,0.5237,0.5013,0.4789,0.4772,0.0,0.0,0.0,0.0,0.0,0.0,0.0,0.0,0.0,0.0,0.0,0.0,0.0,0.0,0.0,0.0,0.0,0.0,0.0,0.0,0.0,0.0,0.0,0.0,0.0441,0.0,0.0,0.0,0.0,0.0,0.0,0.0,0.0,0.0,0.0,0.0,0.0,0.0,0.0,0.0,0.0,0.0,0.0,0.0,0.0,0.0,0.0,0.0,0.0,0.0,0.0,0.0,0.0,0.0,0.0,0.0,0.0,0.0,0.0,0.0,0.0,0.0,0.0,0.0,0.0,0.0,0.1803,0.1803,0.1803,0.1803,0.1803,0.1886,0.2164,0.2197,0.2485,0.3252,0.35,0.0,0.0,0.0,0.0,0.0,0.0,0.0,0.0,0.0,0.4704,0.4003,0.3226,0.2414,0.1555,0.0548,0.0,0.0,0.0,0.0,0.0,0.0,0.0,0.0,0.0,0.0,0.0,0.0,0.0,0.0,0.0206,0.1342,0.3015,0.4022,0.4965,0.5698,0.5552,0.5464,0.5399,0.5306,0.5128,0.4941,0.4769,0.0,0.0,0.0,0.0,0.0,0.0,0.0,0.0,0.0,0.0,0.0,0.0,0.0,0.0,0.0,0.0,0.0,0.0,0.0,0.0,0.0289,0.0103,0.0,0.0,0.0,0.0,0.0,0.0,0.0,0.0,0.0,0.0,0.0,0.0,0.0,0.0,0.0,0.0,0.0,0.0,0.0,0.0,0.0,0.0,0.0,0.0,0.0,0.0,0.0,0.0,0.0,0.0,0.0,0.0,0.0,0.0,0.0,0.0,0.0,0.0,0.0,0.0,0.0,0.1803,0.1803,0.1803,0.1803,0.1856,0.1974,0.2177,0.2285,0.2588,0.3219,0.3419,0.0,0.0,0.0,0.0,0.0,0.0,0.0,0.0,0.4978,0.4802,0.4116,0.3325,0.2481,0.1606,0.0549,0.0,0.0,0.0,0.0,0.0,0.0,0.0,0.0,0.0,0.0,0.0,0.0,0.0,0.0,0.0,0.0891,0.2345,0.3392,0.468,0.5908,0.5837,0.5715,0.5579,0.5535,0.5372,0.522,0.5039,0.4918,0.4738,0.0,0.0,0.0,0.0,0.0,0.0,0.0,0.0,0.0,0.0,0.0,0.0,0.0,0.0,0.1409,0.0,0.0,0.0447,0.0052,0.0,0.0,0.0,0.0,0.0,0.0,0.0,0.0,0.0,0.0,0.0,0.0,0.0,0.0,0.0,0.0,0.0,0.0,0.0,0.0,0.0,0.0,0.0,0.0,0.0,0.0,0.0,0.0,0.0,0.0,0.0,0.0,0.0,0.0,0.0,0.0,0.0,0.0,0.0,0.0,0.0,0.0,0.1803,0.1803,0.1803,0.1803,0.1909,0.2049,0.2174,0.2375,0.2682,0.3152,0.329,0.3488,0.3887,0.3958,0.3974,0.0,0.0,0.0,0.0,0.5049,0.4861,0.4234,0.3401,0.2532,0.1606,0.0549,0.0,0.0,0.0,0.0,0.0,0.0,0.0,0.0,0.0,0.0,0.0,0.0,0.0,0.0,0.0,0.0624,0.171,0.2726,0.4205,0.5726,0.5735,0.5656,0.5589,0.5589,0.5467,0.533,0.5206,0.5024,0.4775,0.4461,0.3753,0.0,0.0,0.0,0.0,0.0,0.0,0.0,0.0,0.0,0.1617,0.0997,0.0906,0.0708,0.0099,0.0,0.0,0.0,0.0,0.0,0.0,0.0,0.0,0.0,0.0,0.0,0.0,0.0,0.0,0.0,0.0,0.0,0.0,0.0,0.0,0.0,0.0,0.0,0.0,0.0,0.0,0.0,0.0,0.0,0.0,0.0,0.0,0.0,0.0,0.0,0.0,0.0,0.0,0.0,0.0,0.0,0.0,0.0,0.0,0.0,0.1803,0.1803,0.1803,0.1803,0.1909,0.2049,0.2174,0.2375,0.2606,0.2913,0.305,0.3269,0.3617,0.3741,0.3927,0.0,0.0,0.0,0.0,0.5182,0.503,0.4236,0.3493,0.2611,0.1607,0.0549,0.0,0.0,0.0,0.0,0.0,0.0,0.0,0.0,0.0,0.0,0.0,0.0,0.0,0.0,0.0,0.063,0.1705,0.2701,0.382,0.4848,0.4704,0.5068,0.5589,0.5589,0.5396,0.5176,0.533,0.4714,0.3932,0.3896,0.0,0.2314,0.2288,0.2215,0.1997,0.1369,0.1219,0.1016,0.0,0.0,0.0237,0.0151,0.0103,0.0105,0.0,0.0,0.0,0.0,0.0,0.0,0.0,0.0,0.0,0.0,0.0,0.0,0.0,0.0,0.0,0.0,0.0,0.0,0.0,0.0,0.0,0.0,0.0,0.0,0.0,0.0,0.0,0.0,0.0,0.0,0.0,0.0,0.0,0.0,0.0,0.0,0.0,0.0,0.0,0.0,0.0,0.0,0.0,0.0,0.0,0.0,0.1803,0.1803,0.1822,0.1899,0.2029,0.2181,0.2355,0.252,0.2679,0.2879,0.2943,0.306,0.329,0.3425,0.3667,0.4055,0.4089,0.0,0.4854,0.5111,0.5196,0.5135,0.4353,0.3463,0.0,0.0,0.0,0.0,0.0,0.0,0.0,0.0,0.0,0.0,0.0,0.0,0.0045,0.0763,0.1024,0.1009,0.17,0.2163,0.2492,0.2846,0.3567,0.4487,0.5066,0.5348,0.0,0.0,0.4979,0.4368,0.4522,0.3917,0.313,0.308,0.238,0.0,0.1051,0.0938,0.0,0.0,0.044,0.0365,0.0048,0.0,0.0,0.0,0.0,0.0,0.0,0.0,0.0,0.0,0.0,0.0,0.0,0.0,0.0,0.0,0.0,0.0,0.0,0.0,0.0,0.0,0.0,0.0,0.0,0.0,0.0,0.0,0.0,0.0,0.0,0.0,0.0,0.0,0.0,0.0,0.0,0.0,0.0,0.0,0.0,0.0,0.0,0.0,0.0,0.0,0.0,0.0,0.0,0.0,0.0,0.0,0.1803,0.1826,0.1892,0.2032,0.2184,0.2333,0.248,0.2613,0.2737,0.2832,0.2883,0.2959,0.3141,0.33,0.3536,0.39,0.3971,0.4213,0.4758,0.4975,0.5261,0.0,0.0,0.0,0.0,0.0,0.0,0.0,0.0,0.0,0.0,0.0,0.0,0.0,0.0,0.0,0.0925,0.1803,0.209,0.2098,0.0,0.0,0.3071,0.3195,0.3621,0.4189,0.4968,0.5247,0.0,0.0,0.4715,0.404,0.3982,0.336,0.257,0.2261,0.1601,0.0819,0.0162,0.0,0.0,0.0,0.0,0.0,0.0,0.0,0.0,0.0,0.0,0.0,0.0,0.0,0.0,0.0,0.0,0.0,0.0,0.0,0.0,0.0,0.0,0.0,0.0,0.0,0.0,0.0,0.0,0.0,0.0,0.0,0.0,0.0,0.0,0.0,0.0,0.0,0.0,0.0,0.0,0.0,0.0,0.0,0.0,0.0,0.0,0.0,0.0,0.0,0.0,0.0,0.0,0.0,0.0,0.0,0.0,0.0,0.1803,0.1899,0.2039,0.2177,0.2365,0.2494,0.2498,0.2613,0.2699,0.2703,0.2818,0.3,0.3269,0.348,0.3658,0.3785,0.3934,0.4148,0.4484,0.4887,0.5203,0.0,0.0,0.0,0.0,0.0,0.0,0.0,0.0,0.0,0.0,0.0,0.0,0.0,0.0,0.0,0.0,0.0,0.0,0.0,0.0,0.0,0.3,0.3854,0.4009,0.3823,0.3856,0.0,0.0,0.0,0.48,0.4582,0.3991,0.3199,0.0,0.1563,0.0713,0.0,0.0,0.0,0.0,0.0,0.0,0.0,0.0,0.0,0.0,0.0,0.0,0.0,0.0,0.0,0.0,0.0,0.0,0.0,0.0,0.0,0.0,0.0,0.0,0.0,0.0,0.0,0.0,0.0,0.0,0.0,0.0,0.0,0.0,0.0,0.0,0.0,0.0,0.0,0.0,0.0,0.0,0.0,0.0,0.0,0.0,0.0,0.0,0.0,0.0,0.0,0.0,0.0,0.0,0.0,0.0,0.0,0.0,0.0,0.1913,0.1974,0.2089,0.2351,0.2452,0.2532,0.262,0.2665,0.2733,0.2818,0.2939,0.0,0.0,0.0,0.0,0.0,0.3839,0.4036,0.4464,0.4631,0.4843,0.0,0.0,0.0,0.0,0.0,0.0,0.0,0.0,0.0,0.0,0.0,0.0,0.0,0.0,0.0,0.0,0.0,0.0,0.0,0.0,0.0,0.5164,0.5123,0.4925,0.4639,0.0,0.0,0.0,0.0,0.4347,0.0,0.3116,0.0,0.0,0.0678,0.0,0.0,0.0,0.0,0.0,0.0,0.0,0.0,0.0,0.0,0.0,0.0,0.0,0.0,0.0,0.0,0.0,0.0,0.0,0.0,0.0,0.0,0.0,0.0,0.0,0.0,0.0,0.0,0.0,0.0,0.0,0.0,0.0,0.0,0.0,0.0,0.0,0.0,0.0,0.0,0.0,0.0,0.0,0.0,0.0,0.0,0.0,0.0,0.0,0.0,0.0,0.0,0.0,0.0,0.0,0.0,0.0,0.0,0.0,0.0,0.1979,0.2096,0.2242,0.2463,0.2546,0.0,0.0,0.0,0.0,0.0,0.0,0.0,0.0,0.0,0.0,0.0,0.0,0.3938,0.4228,0.4399,0.4621,0.0,0.0,0.0,0.0,0.0,0.0,0.0,0.0,0.0,0.0,0.0,0.0,0.0,0.0,0.0,0.0,0.0,0.0,0.0,0.0,0.0,0.5931,0.5501,0.5192,0.0,0.0,0.0,0.0,0.0,0.0,0.0,0.0,0.0,0.0,0.0,0.0,0.0,0.0,0.0,0.0,0.0,0.0,0.0,0.0,0.0,0.0,0.0,0.0,0.0,0.0,0.0,0.0,0.0,0.0,0.0,0.0,0.0,0.0,0.0,0.0,0.0,0.0,0.0,0.0,0.0,0.0,0.0,0.0,0.0,0.0,0.0,0.0,0.0,0.0,0.0,0.0,0.0,0.0,0.0,0.0,0.0,0.0,0.0,0.0,0.0,0.0,0.0,0.0,0.0,0.0,0.0,0.0,0.0,0.0,0.0,0.2009,0.2269,0.2501,0.0,0.0,0.0,0.0,0.0,0.0,0.0,0.0,0.0,0.0,0.0,0.0,0.0,0.0,0.0,0.3792,0.0,0.0,0.0,0.4863,0.4624,0.3678,0.4807,0.4875,0.0,0.0,0.0,0.0,0.0,0.0,0.0,0.0,0.0,0.0,0.0,0.0,0.0,0.0,0.0,0.5361,0.5033,0.0,0.0,0.0,0.0,0.0,0.0,0.0,0.0,0.0,0.0,0.0,0.0,0.0,0.0,0.0,0.0,0.0,0.0,0.0,0.0,0.0,0.0,0.0,0.0,0.0,0.0,0.0,0.0,0.0,0.0,0.0,0.0,0.0,0.0,0.0,0.0,0.0,0.0,0.0,0.0,0.0,0.0,0.0,0.0,0.0,0.0,0.0,0.0,0.0,0.0,0.0,0.0,0.0,0.0,0.0,0.0,0.0,0.0,0.0,0.0,0.0,0.0,0.0,0.0,0.0,0.0,0.0,0.0,0.0,0.0,0.0,0.0,0.0,0.0,0.0,0.0,0.0,0.0,0.0,0.0,0.0,0.0,0.0,0.0,0.0,0.0,0.0,0.0,0.0,0.0,0.0,0.0,0.0,0.0,0.0,0.0,0.441,0.4932,0.0,0.0,0.0,0.0,0.0,0.0,0.0,0.0,0.0,0.0,0.0,0.0,0.0,0.0,0.0,0.0,0.5361,0.0,0.0,0.0,0.0,0.0,0.0,0.0,0.0,0.0,0.0,0.0,0.0,0.0,0.0,0.0,0.0,0.0,0.0,0.0,0.0,0.0,0.0,0.0,0.0,0.0,0.0,0.0,0.0,0.0,0.0,0.0,0.0,0.0,0.0,0.0,0.0,0.0,0.0,0.0,0.0,0.0,0.0,0.0,0.0,0.0,0.0,0.0,0.0,0.0,0.0,0.0,0.0,0.0,0.0,0.0,0.0,0.0,0.0,0.0,0.0,0.0,0.0,0.0,0.0,0.0,0.0,0.0,0.0,0.0,0.0,0.0,0.0,0.0,0.0,0.0,0.0,0.0,0.0,0.0,0.0,0.0,0.0,0.0,0.0,0.0,0.0,0.0,0.0,0.0,0.0,0.0,0.0,0.0,0.0,0.0,0.0,0.0,0.0,0.0,0.0,0.0,0.0,0.0,0.0,0.0,0.0,0.0,0.0,0.0,0.0,0.0,0.0,0.0,0.0,0.0,0.0,0.0,0.0,0.0,0.0,0.0,0.0,0.0,0.0,0.1817,0.0913,0.0333,0.0,0.0,0.0,0.0,0.0,0.0,0.0,0.0,0.0,0.0,0.0,0.0,0.0,0.0,0.0,0.0,0.0,0.0,0.0,0.0,0.0,0.0,0.0,0.0,0.0,0.0,0.0,0.0,0.0,0.0,0.0,0.0,0.0,0.0,0.0,0.0,0.0,0.0,0.0,0.0,0.0,0.0,0.0,0.0,0.0,0.0,0.0,0.0,0.0,0.0,0.0,0.0,0.0,0.0,0.0,0.0,0.0,0.0,0.0,0.0,0.0,0.0,0.0,0.0,0.0,0.0,0.0,0.0,0.0,0.0,0.0,0.0,0.0,0.0,0.0,0.0,0.0,0.0,0.0,0.0,0.0,0.0,0.0,0.0,0.0,0.0,0.0,0.0,0.0,0.0,0.0,0.0,0.0,0.0,0.0,0.0,0.0,0.0,0.0,0.0,0.0,0.0,0.0,0.0,0.0,0.0,0.0,0.0,0.0,0.0,0.0,0.0,0.1899,0.1014,0.0259,0.0,0.0,0.0,0.0,0.0,0.0,0.0,0.0,0.0,0.0,0.0,0.0,0.0,0.0,0.0,0.0,0.0,0.0,0.0,0.0,0.0,0.0,0.0,0.0,0.0,0.0,0.0,0.0,0.0,0.0,0.0,0.0,0.0,0.0,0.0,0.0,0.0,0.0,0.0,0.0,0.0,0.0,0.0,0.0,0.0,0.0,0.0,0.0,0.0,0.0,0.0,0.0,0.0,0.0,0.0,0.0,0.0,0.0,0.0,0.0,0.0,0.0,0.0,0.0,0.0,0.0,0.0,0.0,0.0,0.0,0.0,0.0,0.0,0.3367,0.0,0.0,0.0,0.0,0.0,0.0,0.0,0.0,0.0,0.0,0.0,0.0,0.0,0.0,0.0,0.0,0.0,0.0,0.0,0.0,0.0,0.0,0.0,0.0,0.0,0.0,0.0,0.0,0.0,0.0,0.0,0.0,0.0,0.0,0.0,0.0,0.0,0.0,0.0,0.1924,0.1355,0.0326,0.0,0.0,0.0,0.0,0.0,0.0,0.0,0.0,0.0,0.0,0.0,0.0,0.0,0.0,0.0,0.0,0.0,0.0,0.0,0.0,0.0,0.0,0.0,0.0,0.0,0.0,0.0,0.0,0.0,0.0,0.0,0.0,0.0,0.0,0.0,0.0,0.0,0.0,0.0,0.0,0.0,0.0,0.0,0.0,0.0,0.0,0.0,0.0,0.0,0.0,0.0,0.0,0.0,0.0,0.0,0.0,0.0,0.0,0.0,0.0,0.0,0.0,0.0,0.0,0.0,0.0,0.0,0.0,0.0,0.0,0.0,0.0,0.0,0.3674,0.3674,0.0,0.0,0.0,0.0,0.0,0.0,0.0,0.0,0.0,0.0,0.0,0.0,0.0,0.0,0.0,0.0,0.0,0.0,0.0,0.0,0.0,0.0,0.0,0.0,0.0,0.0,0.0,0.0,0.0,0.0,0.0,0.0,0.0,0.0,0.0,0.0,0.0,0.0,0.1889,0.1184,0.0284,0.0,0.0,0.0,0.0,0.0,0.0,0.0,0.0,0.0,0.0,0.0,0.0,0.0,0.0,0.0,0.0,0.0,0.0,0.0,0.0,0.0,0.0,0.0,0.0,0.0,0.0,0.0,0.0,0.0,0.0,0.0,0.0,0.0,0.0,0.0,0.0,0.0,0.0,0.0,0.0,0.0,0.0,0.0,0.0,0.0,0.0,0.0,0.0,0.0,0.0,0.0,0.0,0.0,0.0,0.0,0.0,0.0,0.0,0.0,0.0,0.0,0.0,0.0,0.0,0.0,0.0,0.0,0.0,0.0,0.0,0.3259,0.3495,0.3846,0.3967,0.3987,0.3856,0.371,0.3634,0.0,0.0,0.0,0.0,0.0,0.0,0.0,0.0,0.0,0.0,0.0,0.0,0.0,0.0,0.0,0.0,0.0,0.0,0.0,0.0,0.0,0.0,0.0,0.0,0.0,0.0,0.0,0.0,0.0,0.0,0.0,0.0,0.0,0.0,0.0,0.2221,0.1439,0.0543,0.0145,0.0,0.0,0.0,0.0,0.0,0.0,0.0,0.0,0.0,0.0,0.0,0.0,0.0,0.0,0.0,0.0,0.0,0.0,0.0,0.0,0.0,0.0,0.0,0.0,0.0,0.0,0.0,0.0,0.0,0.0,0.0,0.0,0.0,0.0,0.0,0.0,0.0,0.0,0.0,0.0,0.0,0.0,0.0,0.0,0.0,0.0,0.0,0.0,0.0,0.0,0.0,0.0,0.0,0.0,0.0,0.0,0.0,0.0,0.0,0.0,0.0,0.0,0.0,0.0,0.0,0.0,0.0,0.0,0.0,0.3438,0.3714,0.4097,0.4167,0.4142,0.3991,0.3863,0.3744,0.0,0.0,0.0,0.0,0.0,0.0,0.0,0.0,0.0,0.0,0.0,0.0,0.0,0.0,0.0,0.0,0.0,0.0,0.0,0.0,0.0,0.0,0.0,0.0,0.0,0.0,0.0,0.0,0.0,0.0,0.0,0.0,0.0,0.0,0.0,0.0,0.2927,0.1475,0.056,0.0,0.0,0.0,0.0,0.0,0.0,0.0,0.0,0.0,0.0,0.0,0.0,0.0,0.0,0.0,0.0,0.0,0.0,0.0,0.0,0.0,0.0,0.0,0.0,0.0,0.0,0.0,0.0,0.0,0.0,0.0,0.0,0.0,0.0,0.0,0.0,0.0,0.0,0.0,0.0,0.0,0.0,0.0,0.0,0.0,0.0,0.0,0.0,0.0,0.0,0.0,0.0,0.0,0.0,0.0,0.0,0.0,0.0,0.0,0.0,0.0,0.0,0.0,0.0,0.0,0.0,0.0,0.0,0.0,0.3423,0.3658,0.4127,0.4197,0.4174,0.4139,0.3994,0.3836,0.0,0.0,0.0,0.0,0.0,0.0,0.0,0.0,0.0,0.0,0.0,0.0,0.0,0.0,0.0,0.0,0.0,0.0,0.0,0.0,0.0,0.0,0.0,0.0,0.0,0.0,0.0,0.0,0.0,0.0,0.0,0.0,0.0,0.0,0.0,0.0,0.0,0.158,0.0887,0.0,0.0,0.0,0.0,0.0,0.0,0.0,0.0,0.0,0.0,0.0,0.0,0.0,0.0,0.0,0.0,0.0,0.0,0.0,0.0,0.0,0.0,0.0,0.0,0.0,0.0,0.0,0.0,0.0,0.0,0.0,0.0,0.0,0.0,0.0,0.0,0.0,0.0,0.0,0.0,0.0,0.0,0.0,0.0,0.0,0.0,0.0,0.0,0.0,0.0,0.0,0.0,0.0,0.0,0.0,0.0,0.0,0.0,0.0,0.0,0.0,0.0,0.0,0.0,0.0,0.0,0.0,0.0,0.3303,0.3372,0.3551,0.4082,0.413,0.413,0.413,0.4018,0.387,0.3682,0.0,0.0,0.0,0.0,0.0,0.0,0.0,0.0,0.0,0.0,0.0,0.0,0.0,0.0,0.0,0.0,0.0,0.0,0.0,0.0,0.0,0.0,0.0,0.0,0.0,0.0,0.0,0.0,0.0,0.0,0.0,0.0,0.0,0.0,0.0,0.0,0.0,0.0,0.0,0.0,0.0,0.0,0.0,0.0,0.0,0.0,0.0,0.0,0.0,0.0,0.0,0.0,0.0,0.0,0.0,0.0,0.0,0.0,0.0,0.0,0.0,0.0,0.0,0.0,0.0,0.0,0.0,0.0,0.0,0.0,0.0,0.0,0.0,0.0,0.0,0.0,0.0,0.0,0.0,0.0,0.0,0.0,0.0,0.0,0.0,0.0,0.0,0.0,0.0,0.0,0.0,0.0,0.0,0.0,0.0,0.0,0.0,0.0,0.0,0.0,0.0,0.0,0.0,0.0,0.0,0.0,0.0,0.3306,0.3467,0.394,0.3998,0.3998,0.3998,0.3887,0.3792,0.3788,0.0,0.0,0.0,0.0,0.0,0.0,0.0,0.0,0.0,0.0,0.0,0.0,0.0,0.0,0.0,0.0,0.0,0.0,0.0,0.0,0.0,0.0,0.0,0.0,0.0,0.0,0.0,0.0,0.0,0.0,0.0,0.0,0.0,0.0,0.0,0.0,0.0,0.0,0.0,0.0,0.0,0.0,0.0,0.0,0.0,0.0,0.0,0.0,0.0,0.0,0.0,0.0,0.0,0.0,0.0,0.0,0.0,0.0,0.0,0.0,0.0,0.0,0.0,0.0,0.0,0.0,0.0,0.0,0.0,0.0,0.0,0.0,0.0,0.0,0.0,0.0,0.0,0.0,0.0,0.0,0.0,0.0,0.0,0.0,0.0,0.0,0.0,0.0,0.0,0.0,0.0,0.0,0.0,0.0,0.0,0.0,0.0,0.0,0.0,0.0,0.0,0.0,0.0,0.0,0.0,0.0,0.0,0.303,0.3192,0.3659,0.3721,0.3795,0.3974,0.3883,0.3792,0.3792,0.0,0.0,0.0,0.0,0.0,0.0,0.0,0.0,0.0,0.0,0.0,0.0,0.0,0.0,0.0,0.0,0.0,0.0,0.0,0.0,0.0,0.0,0.0,0.0,0.0,0.0,0.0,0.0,0.0,0.0,0.0,0.0,0.0,0.0,0.0,0.0,0.0,0.0,0.0,0.0426,0.0,0.0,0.0,0.0,0.0,0.0,0.0,0.0,0.0,0.0,0.0,0.0,0.0,0.0,0.0,0.0,0.0,0.0,0.0,0.0,0.0,0.0,0.0,0.0,0.0,0.0,0.0,0.0,0.0,0.0,0.0,0.0,0.0,0.0,0.0,0.0,0.0,0.0,0.0,0.0,0.0,0.0,0.0,0.0,0.0,0.0,0.0,0.0,0.0,0.0,0.0,0.0,0.0,0.0,0.0,0.0,0.0,0.0,0.0,0.0,0.0,0.0,0.0,0.0,0.0,0.0,0.0,0.2892,0.3049,0.3442,0.3493,0.3605,0.39,0.3799,0.3757,0.3785,0.0,0.0,0.0,0.0,0.0,0.0,0.0,0.0,0.0,0.0,0.0,0.0,0.0,0.0,0.0,0.0,0.0,0.0,0.0,0.0,0.0,0.0,0.0,0.0,0.0,0.0,0.4491,0.0,0.0,0.0,0.0,0.0,0.0,0.0,0.0,0.0,0.0,0.0,0.0,0.0,0.0,0.0,0.0,0.0,0.0,0.0,0.0,0.0,0.0,0.0,0.0,0.0,0.0,0.0,0.0,0.0,0.0,0.0,0.0,0.0,0.0,0.0,0.0,0.0,0.0,0.0,0.0,0.0,0.0,0.0,0.0,0.0,0.0,0.0,0.0,0.0,0.0,0.0,0.0,0.0,0.0,0.0,0.0,0.0,0.0,0.0,0.0,0.0,0.0,0.0,0.0,0.0,0.0,0.0,0.0,0.0,0.0,0.0,0.0,0.0,0.0,0.0,0.0,0.0,0.0,0.0,0.0,0.0,0.0,0.0,0.3286,0.34,0.3731,0.3675,0.3655,0.0,0.0,0.0,0.0,0.0,0.0,0.0,0.0,0.0,0.0,0.0,0.0,0.0,0.4697,0.4701,0.4694,0.0,0.0,0.0,0.0,0.0,0.0,0.0,0.0,0.0,0.0,0.4491,0.0,0.0,0.0,0.0,0.0,0.0,0.0,0.0,0.0,0.0,0.0,0.0,0.0,0.0,0.0,0.0,0.0,0.0,0.0,0.0,0.0,0.0,0.0,0.0,0.0,0.0,0.0,0.0,0.0,0.0,0.0,0.0,0.0,0.0,0.0,0.0,0.0,0.0,0.0,0.0,0.0,0.0,0.0,0.0,0.0,0.0,0.0,0.0,0.0,0.0,0.0,0.0,0.0,0.0,0.0,0.0,0.0,0.0,0.0,0.0,0.0,0.0,0.0,0.0,0.0,0.0,0.0,0.0,0.0,0.0,0.0,0.0,0.0,0.0,0.0,0.0,0.0,0.0,0.0,0.0,0.0,0.0,0.0,0.0,0.3087,0.3226,0.339,0.3527,0.3617,0.0,0.0,0.0,0.0,0.0,0.0,0.0,0.0,0.0,0.0,0.0,0.0,0.4545,0.4752,0.4806,0.4697,0.4928,0.0,0.0,0.0,0.0,0.0,0.0,0.0,0.0,0.4491,0.4491,0.0,0.0,0.0,0.0,0.4491,0.4491,0.0,0.0,0.0,0.0,0.0,0.0,0.0,0.0,0.0,0.0,0.0,0.0,0.0,0.0,0.0,0.0,0.0,0.0,0.0,0.0,0.0,0.0,0.0,0.0,0.0,0.0,0.0,0.0,0.0,0.0,0.0,0.0,0.0,0.0,0.0,0.0,0.0,0.0,0.0,0.0,0.0,0.0,0.0,0.0,0.0,0.0,0.0,0.0,0.0,0.0,0.0,0.0,0.0,0.0,0.0,0.0,0.0,0.0,0.0,0.0,0.0,0.0,0.0,0.0,0.0,0.0,0.0,0.0,0.0,0.0,0.0,0.0,0.0,0.0,0.0,0.0,0.0,0.0,0.0,0.0,0.0,0.0,0.0,0.0,0.0,0.0,0.0,0.0,0.0,0.0,0.0,0.0,0.0,0.0,0.0,0.0,0.0,0.4881,0.0,0.0,0.0,0.0,0.0,0.0,0.0,0.0,0.0,0.0,0.0,0.0,0.0,0.0,0.0,0.0,0.4491,0.4491,0.0,0.4491,0.4491,0.4236,0.0,0.0,0.0,0.0,0.0,0.0,0.0,0.0,0.0,0.0,0.0,0.0,0.0,0.0,0.0,0.0,0.0,0.0,0.0,0.0,0.0,0.0,0.0,0.0,0.0,0.0,0.0,0.0,0.0,0.0,0.0,0.0,0.0,0.0,0.0,0.0,0.0,0.0,0.0,0.0,0.0,0.0,0.0,0.0,0.0,0.0,0.0,0.0,0.0,0.0,0.0,0.0,0.0,0.0,0.0,0.0,0.0,0.0,0.0,0.0,0.0,0.0,0.0,0.0,0.0,0.0,0.0,0.0,0.0,0.0,0.0,0.0,0.0,0.0,0.0,0.0,0.0,0.0,0.0,0.0,0.0,0.0,0.0,0.0,0.0,0.0,0.0,0.0,0.0,0.0,0.0,0.0,0.0,0.0,0.0,0.0,0.0,0.0,0.0,0.0,0.0,0.0,0.0,0.0,0.0,0.0,0.0,0.0,0.0,0.0,0.0,0.0,0.0,0.4491,0.4491,0.4236,0.2676,0.0,0.0,0.0,0.0,0.0,0.0,0.0,0.0,0.0,0.0,0.0,0.0,0.0,0.0,0.0,0.0,0.0,0.0,0.0,0.0,0.0,0.0,0.0,0.0,0.0,0.0,0.0,0.0,0.0,0.0,0.0,0.0,0.0,0.0,0.0,0.0,0.0,0.0,0.0,0.0,0.0,0.0,0.0,0.0,0.0,0.0,0.0,0.0,0.0,0.0,0.0,0.0,0.0,0.0,0.0,0.0,0.0,0.0,0.0,0.0,0.0,0.0,0.0,0.0,0.0,0.0,0.0,0.0,0.0,0.0,0.0,0.0,0.0,0.0,0.0,0.0,0.0,0.0,0.0,0.0,0.0,0.0,0.0,0.0,0.0,0.0,0.0,0.0,0.0,0.0,0.0,0.0,0.0,0.4928,0.5365,0.5315,0.0,0.0,0.0,0.0,0.0,0.0,0.0,0.0,0.0,0.0,0.0,0.0,0.0,0.0,0.0,0.0,0.4491,0.4491,0.4236,0.2676,0.0,0.0,0.0,0.0,0.0,0.0,0.0,0.0,0.0,0.0,0.0,0.0,0.0,0.0,0.0,0.0,0.0,0.0,0.0,0.0,0.0,0.0,0.0,0.0,0.0,0.0,0.0,0.0,0.0,0.0,0.0,0.0,0.0,0.0,0.0,0.0,0.0,0.0,0.0,0.0,0.0,0.0,0.0,0.0,0.0,0.0,0.0,0.0,0.0,0.0,0.0,0.0,0.0,0.0,0.0,0.0,0.0,0.0,0.0,0.0,0.0,0.0,0.0,0.0,0.0,0.0,0.0,0.0,0.0,0.0,0.0,0.0,0.0,0.0,0.0,0.0,0.0,0.0,0.0,0.0,0.0,0.0,0.0,0.0,0.0,0.0,0.0,0.0,0.0,0.0,0.0,0.0,0.5138,0.5159,0.5206,0.5074,0.4785,0.0,0.0,0.0,0.0,0.0,0.0,0.0,0.0,0.0,0.0,0.0,0.0,0.0,0.0,0.0,0.0,0.4236,0.3707,0.2565,0.0,0.0,0.0,0.0,0.0,0.0,0.0,0.0,0.0,0.0,0.0,0.0,0.0,0.0,0.0,0.0,0.0,0.0,0.0,0.0,0.0,0.0,0.0,0.0,0.0,0.0,0.0,0.0,0.0,0.0,0.0,0.0,0.0,0.0,0.0,0.0,0.0,0.0,0.0,0.0,0.0,0.0,0.0,0.0,0.0,0.0,0.0,0.0,0.0,0.0,0.0,0.0,0.0,0.0,0.0,0.0,0.0,0.0,0.0,0.0,0.0,0.0,0.0,0.0,0.0,0.0,0.0,0.0,0.0,0.0,0.0,0.0,0.0,0.0,0.0,0.0,0.0,0.0,0.0,0.0,0.0,0.0,0.0,0.0,0.0,0.0,0.0,0.0,0.0,0.0,0.4887,0.5066,0.5247,0.5388,0.5023,0.4802,0.0,0.0,0.0,0.0,0.0,0.0,0.4491,0.0,0.0,0.0,0.0,0.0,0.0,0.0,0.0,0.0,0.0,0.0,0.0,0.0,0.0,0.0,0.0224,0.0,0.0,0.0,0.0,0.0,0.0,0.0,0.0,0.0,0.0,0.0,0.0,0.0,0.0,0.0,0.0,0.0,0.0,0.0,0.0,0.0,0.0,0.0,0.0,0.0,0.0,0.0,0.0,0.0,0.0,0.0,0.0,0.0,0.0,0.0,0.0,0.0,0.0,0.0,0.0,0.0,0.0,0.0,0.0,0.0,0.0,0.0,0.0,0.0,0.0,0.0,0.0,0.0,0.0,0.0,0.0,0.0,0.0,0.0,0.0,0.0,0.0,0.0,0.0,0.0,0.0,0.0,0.0,0.0,0.0,0.0,0.0,0.0,0.0,0.0,0.0,0.0,0.0,0.0,0.0,0.0,0.0,0.0,0.0,0.0,0.4634,0.4765,0.4887,0.5206,0.5385,0.5385,0.4945,0.4701,0.4684,0.0,0.0,0.0,0.0,0.0,0.4491,0.4491,0.0,0.0,0.0,0.0,0.0,0.0,0.0,0.0,0.0,0.0,0.0,0.0,0.0,0.095,0.0224,0.0,0.0,0.0,0.0,0.0,0.0,0.0,0.0,0.0,0.0,0.0,0.0,0.0,0.0,0.0,0.0,0.0,0.0,0.0,0.0,0.0,0.0,0.0,0.0,0.0,0.0,0.0,0.0,0.0,0.0,0.0,0.0,0.0,0.0,0.0,0.0,0.0,0.0,0.0,0.0,0.0,0.0,0.0,0.0,0.0,0.0,0.0,0.0,0.0,0.0,0.0,0.0,0.0,0.0,0.0,0.0,0.0,0.0,0.0,0.0,0.0,0.0,0.0,0.0,0.0,0.0,0.0,0.0,0.0,0.0,0.0,0.0,0.0,0.0,0.0,0.0,0.0,0.0,0.0,0.0,0.0,0.0,0.0,0.4331,0.4627,0.4755,0.4904,0.5019,0.5162,0.5125,0.4972,0.4769,0.0,0.0,0.0,0.0,0.0,0.0,0.0,0.4491,0.4491,0.4491,0.0,0.0,0.0,0.0,0.0,0.0,0.0,0.0,0.3079,0.2418,0.1719,0.1006,0.0364,0.0084,0.0,0.0,0.0,0.0,0.0,0.0,0.0,0.0,0.0,0.0,0.0,0.0,0.0,0.0,0.0,0.0,0.0,0.0,0.0,0.0,0.0,0.0,0.0,0.0,0.0,0.0,0.0,0.0,0.0,0.0,0.0,0.0,0.0,0.0,0.0,0.0,0.0,0.0,0.0,0.0,0.0,0.0,0.0,0.0,0.0,0.0,0.0,0.0,0.0,0.0,0.0,0.0,0.0,0.0,0.0,0.0,0.0,0.0,0.0,0.0,0.0,0.0,0.0,0.0,0.0,0.0,0.0,0.0,0.0,0.0,0.0,0.0,0.0,0.0,0.0,0.0,0.0,0.0,0.0,0.0,0.0,0.0,0.0,0.4287,0.4641,0.4721,0.487,0.5032,0.4985,0.4887,0.4691,0.0,0.0,0.0,0.0,0.0,0.0,0.0,0.0,0.0,0.4491,0.4491,0.0,0.0,0.0,0.0,0.0,0.0,0.0,0.0,0.2447,0.1653,0.0,0.0582,0.0,0.0,0.0,0.0,0.0,0.0,0.0,0.0,0.0,0.0,0.0,0.0,0.0,0.0,0.0,0.0,0.0,0.0,0.0,0.0,0.0,0.0,0.0,0.0,0.0,0.0,0.0,0.0,0.0,0.0,0.0,0.0,0.0,0.0,0.0,0.0,0.0,0.0,0.0,0.0,0.0,0.0,0.0,0.0,0.0,0.0,0.0,0.0,0.0,0.0,0.0,0.0,0.0,0.0,0.0,0.0,0.0,0.0,0.0,0.0,0.0,0.0,0.0,0.0,0.0,0.0,0.0,0.0,0.0,0.0,0.0,0.0,0.0,0.0,0.0,0.0,0.0,0.0,0.0,0.0,0.0,0.0,0.0,0.0,0.0,0.4158,0.4481,0.4487,0.4638,0.4887,0.4765,0.4691,0.4684,0.4559,0.0,0.0,0.0,0.0,0.0,0.0,0.0,0.0,0.4491,0.4491,0.4457,0.0,0.0,0.0,0.0,0.0,0.0,0.0,0.2095,0.1086,0.0,0.0,0.0,0.0,0.0,0.0,0.0,0.0,0.0,0.0,0.0,0.0,0.0,0.0,0.0,0.0,0.0,0.0,0.0,0.0,0.0,0.0,0.0,0.0,0.0,0.0,0.0,0.0,0.0,0.0,0.0,0.0,0.0,0.0,0.0,0.0,0.0,0.0,0.0,0.0,0.0,0.0,0.0,0.0,0.0,0.0,0.0,0.0,0.0,0.0,0.0,0.0,0.0,0.0,0.0,0.0,0.0,0.0,0.0,0.0,0.0,0.0,0.0,0.0,0.0,0.0,0.0,0.0,0.0,0.0,0.0,0.0,0.0,0.0,0.0,0.0,0.0,0.0,0.0,0.0,0.0,0.0,0.0,0.0,0.0,0.0,0.0,0.0,0.0,0.0,0.4432,0.4758,0.4714,0.4665,0.0,0.0,0.0,0.4491,0.0,0.0,0.0,0.0,0.0,0.0,0.4491,0.4491,0.4467,0.0,0.0,0.0,0.0,0.0,0.0,0.0,0.0,0.0,0.0471,0.0,0.0,0.0,0.0,0.0,0.0,0.0,0.0,0.0,0.0,0.0,0.0,0.0,0.0,0.0,0.0,0.0,0.0,0.0,0.0,0.0,0.0,0.0,0.0,0.0,0.0,0.0,0.0,0.0,0.0,0.0,0.0,0.0,0.0,0.0,0.0,0.0,0.0,0.0,0.0,0.0,0.0,0.0,0.0,0.0,0.0,0.0,0.0,0.0,0.0,0.0,0.0,0.0,0.0,0.0,0.0,0.0,0.0,0.0,0.0,0.0,0.0,0.0,0.0,0.0,0.0,0.0,0.0,0.0,0.0,0.0,0.0,0.0,0.0,0.304,0.0,0.0,0.0,0.0,0.0,0.0,0.0,0.0,0.0,0.0,0.0,0.0,0.0,0.4197,0.4308,0.0,0.0,0.0,0.0,0.0,0.0,0.4491,0.0,0.4457,0.0,0.0,0.0,0.0,0.3993,0.3846,0.3578,0.0,0.0,0.0,0.0,0.0,0.0,0.0,0.0,0.0,0.0126,0.0,0.0,0.0,0.0,0.0,0.0,0.0,0.0,0.0,0.0,0.0,0.0,0.0,0.0,0.0,0.0,0.0,0.0,0.0,0.0,0.0,0.0,0.0,0.0,0.0,0.0,0.0,0.0,0.0,0.0,0.0,0.0,0.0,0.0,0.0,0.0,0.0,0.0,0.0,0.0,0.0,0.0,0.0,0.0,0.0,0.0,0.0,0.0,0.0,0.0,0.0,0.0,0.0,0.0,0.0,0.0,0.0,0.0,0.0,0.0,0.0,0.0,0.0,0.0,0.0,0.2696,0.2696,0.0,0.0,0.0,0.0,0.0,0.0,0.2927,0.3081,0.0,0.0,0.0,0.358,0.0,0.0,0.0,0.0,0.0,0.0,0.0,0.0,0.0,0.0,0.0,0.0,0.0,0.0,0.0,0.0,0.4491,0.4491,0.0,0.4355,0.0,0.0,0.0,0.0,0.314,0.279,0.2196,0.2063,0.0,0.0,0.0,0.0,0.0,0.0,0.0,0.0,0.0,0.0,0.0,0.0,0.0,0.0,0.0,0.0,0.0,0.0,0.0,0.0,0.0,0.0,0.0,0.0,0.0,0.0,0.0,0.0,0.0,0.0,0.0,0.0,0.0,0.0,0.0,0.0,0.0,0.0,0.0,0.0,0.0,0.0,0.0,0.0,0.0,0.0,0.0,0.0,0.0,0.0,0.0,0.0,0.0,0.0,0.0,0.0,0.0,0.0,0.0,0.0,0.0,0.0,0.0,0.0,0.0,0.0,0.0,0.0,0.0,0.0,0.0,0.0,0.0,0.0,0.2696,0.2696,0.0,0.0,0.0,0.0,0.2815,0.2713,0.2842,0.2936,0.2936,0.3094,0.0,0.3346,0.351,0.0,0.0,0.0,0.0,0.0,0.0,0.0,0.0,0.0,0.0,0.0,0.0,0.0,0.0,0.0,0.0,0.4491,0.0,0.4158,0.0,0.0,0.0,0.2395,0.2413,0.2342,0.2184,0.2177,0.1804,0.0,0.0,0.0,0.0,0.0,0.0,0.0,0.0,0.0,0.0,0.0,0.0,0.0,0.0,0.0,0.0,0.0,0.0,0.0,0.0,0.0,0.0,0.0,0.0,0.0,0.0,0.0,0.0,0.0,0.0,0.0,0.0,0.0,0.0,0.0,0.0,0.0,0.0,0.0,0.0,0.0,0.0,0.0,0.0,0.0,0.0,0.0,0.0,0.0,0.0,0.0,0.0,0.0,0.0,0.0,0.0,0.0,0.0,0.0,0.0,0.0,0.0,0.0,0.0,0.0,0.0,0.0,0.0,0.0,0.0,0.0,0.0,0.0,0.0,0.0,0.0,0.0,0.0,0.0,0.2957,0.2808,0.2966,0.3074,0.3,0.3141,0.0,0.0,0.3401,0.35,0.0,0.0,0.0,0.0,0.0,0.0,0.0,0.0,0.0,0.0,0.0,0.0,0.0,0.0,0.0,0.4597,0.0,0.4074,0.0,0.0,0.2581,0.1595,0.1649,0.1461,0.1156,0.1136,0.0897,0.0571,0.0583,0.0,0.0,0.0,0.0,0.0,0.0,0.0,0.0,0.0,0.0,0.0,0.0,0.0,0.0,0.0,0.0,0.0,0.0,0.0,0.0,0.0,0.0,0.0,0.0,0.0,0.0,0.0,0.0,0.0,0.0,0.0,0.0,0.0,0.0,0.0,0.0,0.0,0.0,0.0,0.0,0.0,0.0,0.0,0.0,0.0,0.0,0.0,0.0,0.0,0.0,0.0,0.0,0.0,0.0,0.0,0.0,0.0,0.0,0.0,0.0,0.0,0.0,0.0,0.0,0.0,0.0,0.0,0.0,0.0,0.0,0.0,0.0,0.0,0.0,0.0,0.0,0.0,0.0,0.2909,0.3148,0.3263,0.3084,0.3238,0.332,0.0,0.0,0.0,0.3531,0.0,0.0,0.0,0.0,0.0,0.0,0.0,0.0,0.0,0.0,0.0,0.0,0.0,0.0,0.451,0.0,0.0,0.0,0.0,0.1985,0.0757,0.0855,0.0544,0.0,0.0,0.0,0.0,0.0,0.0,0.0,0.0,0.0,0.0,0.0,0.0,0.0,0.0,0.0,0.0,0.0,0.0,0.0,0.0,0.0,0.0,0.0,0.0,0.0,0.0,0.0,0.0,0.0,0.0,0.0,0.0,0.0,0.0,0.0,0.0,0.0,0.0,0.0,0.0,0.0,0.0,0.0,0.0,0.0,0.0,0.0,0.0,0.0,0.0,0.0,0.0,0.0,0.0,0.0,0.0,0.0,0.0,0.0,0.0,0.0,0.0,0.0,0.0,0.0,0.0,0.0,0.0,0.0,0.0,0.0,0.0,0.0,0.0,0.0,0.0,0.0,0.0,0.0,0.0,0.0,0.0,0.0,0.0,0.3187,0.3266,0.2968,0.3047,0.3081,0.2959,0.3162,0.3316,0.0,0.0,0.0,0.0,0.0,0.0,0.0,0.0,0.0,0.0,0.0,0.0,0.0,0.0,0.0,0.3748,0.0,0.0,0.0,0.0,0.0896,0.0113,0.0137,0.0091,0.0,0.0,0.0,0.0,0.0,0.0,0.0,0.0,0.0,0.0,0.0,0.0,0.0,0.0,0.0,0.0,0.0,0.0,0.0,0.0,0.0,0.0,0.0,0.0,0.0,0.0,0.0,0.0,0.0,0.0,0.0,0.0,0.0,0.0,0.0,0.0,0.0,0.0,0.0,0.0,0.0,0.0,0.0,0.0,0.0,0.0,0.0,0.0,0.0,0.0,0.0,0.0,0.0,0.0,0.0,0.0,0.0,0.0,0.0,0.0,0.0,0.0,0.0,0.0,0.0,0.0,0.0,0.0,0.0,0.0,0.0,0.0,0.0,0.0,0.0,0.0,0.0,0.0,0.0,0.0,0.0,0.0,0.0,0.0,0.0,0.3324,0.3151,0.3114,0.3077,0.3013,0.3054,0.0,0.0,0.0,0.0,0.0,0.0,0.0,0.0,0.0,0.0,0.0,0.0,0.0,0.0,0.4222,0.3895,0.0,0.0,0.0,0.0,0.0,0.0599,0.0,0.0,0.0,0.0,0.0,0.0,0.0,0.0,0.0,0.0,0.0,0.0,0.0,0.0,0.0,0.0,0.0,0.0,0.0,0.0,0.0,0.0,0.0,0.0,0.0,0.0,0.0,0.0,0.0,0.0,0.0,0.0,0.0,0.0,0.0,0.0,0.0,0.0,0.0,0.0,0.0,0.0,0.0,0.0,0.0,0.0,0.0,0.0,0.0,0.0,0.0,0.0,0.0,0.0,0.0,0.0,0.0,0.0,0.0,0.0,0.0,0.0,0.0,0.0,0.0,0.0,0.0,0.0,0.0,0.0,0.0,0.0,0.0,0.0,0.0,0.0,0.0,0.0,0.0,0.0,0.0,0.0,0.0,0.0,0.0,0.0,0.0,0.0,0.3372,0.3306,0.0,0.0,0.0,0.2953,0.0,0.0,0.0,0.0,0.0,0.0,0.0,0.0,0.0,0.0,0.0,0.0,0.0,0.4945,0.4099,0.3723,0.0,0.3361,0.0,0.0,0.0,0.0,0.0,0.0,0.0,0.0,0.0,0.0,0.0,0.0,0.0,0.0,0.0,0.0,0.0,0.0,0.0,0.0,0.0,0.0,0.0,0.0,0.0,0.0,0.0,0.0,0.0,0.0,0.0,0.0,0.0,0.0,0.0,0.0,0.0,0.0,0.0,0.0,0.0,0.0,0.0,0.0,0.0,0.0,0.0,0.0,0.0,0.0,0.0,0.0,0.0,0.0,0.0,0.0,0.0,0.0,0.0,0.0,0.0,0.0,0.0,0.0,0.0,0.0,0.0,0.0,0.0,0.0,0.0,0.0,0.0,0.0,0.0,0.0,0.0,0.0,0.0,0.0,0.0,0.0,0.0,0.0,0.0,0.0,0.0,0.0,0.0,0.0,0.0,0.0,0.3372,0.3306,0.3172,0.3047,0.2912,0.2913,0.0,0.0,0.0,0.0,0.0,0.0,0.0,0.0,0.0,0.0,0.0,0.0,0.0,0.5083,0.4896,0.4208,0.3098,0.1954,0.0908,0.0059,0.0,0.0,0.0,0.0,0.0,0.0,0.0,0.0,0.0,0.0,0.0,0.0,0.0,0.0,0.0,0.0,0.0,0.0,0.0,0.0,0.0,0.0,0.0,0.0,0.0,0.0,0.0,0.0,0.0,0.0,0.0,0.0,0.0,0.0,0.0,0.0,0.0,0.0,0.0,0.0,0.0,0.0,0.0,0.0,0.0,0.0,0.0,0.0,0.0,0.0,0.0,0.0,0.0,0.0,0.0,0.0,0.0,0.0,0.0,0.0,0.0,0.0,0.0,0.0,0.0,0.0,0.0,0.0,0.0,0.0,0.0,0.0,0.0,0.0,0.0,0.0,0.0,0.0,0.0,0.0,0.0,0.0,0.0,0.0,0.0,0.0,0.0,0.0,0.0,0.0,0.0,0.0,0.3382,0.3228,0.3037,0.2873,0.0,0.0,0.0,0.0,0.0,0.0,0.0,0.0,0.0,0.0,0.0,0.0,0.3701,0.4512,0.3914,0.3341,0.2833,0.2488,0.1469,0.0,0.0,0.0,0.0,0.0,0.0,0.0,0.0,0.0,0.0,0.0,0.0,0.0,0.0,0.0,0.0,0.0,0.0,0.0,0.0,0.0,0.0,0.0,0.0,0.0,0.0,0.0,0.0,0.0,0.0,0.0,0.0,0.0,0.0,0.0,0.0,0.0,0.0,0.0,0.0,0.0,0.0,0.0,0.0,0.0,0.0,0.0,0.0,0.0,0.0,0.0,0.0,0.0,0.0,0.0,0.0,0.0,0.0,0.0,0.0,0.0,0.0,0.0,0.0,0.0,0.0,0.0,0.0,0.0,0.0,0.0,0.0,0.0,0.0,0.0,0.0,0.0,0.0,0.0,0.0,0.0,0.0,0.0,0.3306,0.0,0.2963,0.2963,0.2963,0.3013,0.3158,0.0,0.0,0.0,0.0,0.329,0.3114,0.294,0.0,0.0,0.0,0.0,0.0,0.0,0.0,0.0,0.0,0.0,0.0,0.0,0.0,0.0,0.3553,0.3172,0.2993,0.2774,0.1668,0.0,0.0,0.0,0.0,0.0,0.0,0.0,0.0,0.0,0.0,0.0,0.0,0.0,0.0,0.0,0.0,0.0,0.0,0.0,0.0,0.0,0.0,0.0,0.0,0.0,0.0,0.0,0.0,0.0,0.0,0.0,0.0,0.0,0.0,0.0,0.0,0.0,0.0,0.0,0.0,0.0,0.0,0.0,0.0,0.0,0.0,0.0,0.0,0.0,0.0,0.0,0.0,0.0,0.0,0.0,0.0,0.0,0.0,0.0,0.0,0.0,0.0,0.0,0.0,0.0,0.0,0.0,0.0,0.0,0.0,0.0,0.0,0.0,0.0,0.0,0.0,0.0,0.0,0.0,0.0,0.3573,0.3438,0.3313,0.3313,0.3189,0.3108,0.3108,0.3108,0.3162,0.3293,0.0,0.0,0.0,0.0,0.0,0.3128,0.3111,0.3047,0.2905,0.0,0.0,0.0,0.0,0.0,0.0,0.0,0.0,0.0,0.0,0.0,0.0,0.0,0.3842,0.352,0.2609,0.1372,0.0031,0.0,0.0,0.0,0.0,0.0,0.0,0.0,0.0,0.0,0.0,0.0,0.0,0.0,0.0,0.0,0.0,0.0,0.0,0.0,0.0,0.0,0.0,0.0,0.0,0.0,0.0,0.0,0.0,0.0,0.0,0.0,0.0,0.0,0.0,0.0,0.0,0.0,0.0,0.0,0.0,0.0,0.0,0.0,0.0,0.0,0.0,0.0,0.0,0.0,0.0,0.0,0.0,0.0,0.0,0.0,0.0,0.0,0.0,0.0,0.0,0.0,0.0,0.0,0.0,0.0,0.0,0.0,0.0,0.0,0.0,0.0,0.0,0.0,0.0,0.0,0.0,0.0,0.0,0.0,0.3593,0.3548,0.3517,0.3517,0.3367,0.3246,0.3246,0.3246,0.332,0.0,0.0,0.0,0.3727,0.3602,0.35,0.3456,0.3372,0.3245,0.3054,0.2983,0.3044,0.3236,0.3202,0.0,0.0,0.0,0.0,0.0,0.0,0.0,0.0,0.0,0.0,0.0,0.2232,0.1455,0.0616,0.0191,0.0,0.0,0.0,0.0,0.0,0.0,0.0,0.0,0.0,0.0,0.0,0.0,0.0,0.0,0.0,0.0,0.0,0.0,0.0,0.0,0.0,0.0,0.0,0.0,0.0,0.0,0.0,0.0,0.0,0.0,0.0,0.0,0.0,0.0,0.0,0.0,0.0,0.0,0.0,0.0,0.0,0.0,0.0,0.0,0.0,0.0,0.0,0.0,0.0,0.0,0.0,0.0,0.0,0.0,0.0,0.0,0.0,0.0,0.0,0.0,0.0,0.0,0.0,0.0,0.0,0.0,0.0,0.0,0.0,0.0,0.0,0.0,0.0,0.0,0.0,0.0,0.0,0.0,0.359,0.3604,0.3621,0.3679,0.3592,0.3532,0.3574,0.3584,0.364,0.0,0.0,0.0,0.3887,0.387,0.3805,0.3703,0.361,0.3464,0.3209,0.306,0.3084,0.3296,0.3162,0.3266,0.0,0.0,0.0,0.0,0.0,0.0,0.0,0.0,0.0,0.0,0.2141,0.1611,0.1207,0.0372,0.0,0.0,0.0,0.0,0.0,0.0,0.0,0.0,0.0,0.0,0.0,0.0,0.0,0.0,0.0,0.0,0.0,0.0,0.0,0.0,0.0,0.0,0.0,0.0,0.0,0.0,0.0,0.0,0.0,0.0,0.0,0.0,0.0,0.0,0.0,0.0,0.0,0.0,0.0,0.0,0.0,0.0,0.0,0.0,0.0,0.0,0.0,0.0,0.0,0.0,0.0,0.0,0.0,0.0,0.0,0.0,0.0,0.0,0.0,0.0,0.0,0.0,0.0,0.0,0.0,0.0,0.0,0.0,0.0,0.0,0.0,0.0,0.0,0.0,0.0,0.0,0.0,0.0,0.0,0.3614,0.3665,0.3771,0.3805,0.3863,0.3974,0.3994,0.4001,0.0,0.4035,0.4055,0.4092,0.4186,0.4136,0.389,0.3836,0.3697,0.3373,0.3219,0.3195,0.3326,0.3209,0.3263,0.3593,0.0,0.0,0.0,0.0,0.0,0.0,0.0,0.0,0.0,0.2305,0.1852,0.1711,0.0585,0.0,0.0,0.0,0.0,0.0,0.0,0.0,0.0,0.0,0.0,0.0,0.0,0.0,0.0,0.0,0.0,0.0,0.0,0.0,0.0,0.0,0.0,0.0,0.0,0.0,0.0,0.0,0.0,0.0,0.0,0.0,0.0,0.0,0.0,0.0,0.0,0.0,0.0,0.0,0.0,0.0,0.0,0.0,0.0,0.0,0.0,0.0,0.0,0.0,0.0,0.0,0.0,0.0,0.0,0.0,0.0,0.0,0.0,0.0,0.0,0.0,0.0,0.0,0.0,0.0,0.0,0.0,0.0,0.0,0.0,0.0,0.0,0.0,0.0,0.0,0.0,0.0,0.0,0.3597,0.3696,0.3761,0.3785,0.3894,0.396,0.3991,0.3994,0.4038,0.4133,0.4304,0.4498,0.4688,0.4548,0.4423,0.4365,0.4114,0.3897,0.3717,0.3477,0.3395,0.3527,0.3364,0.3371,0.36,0.3604,0.0,0.0,0.0,0.0,0.0,0.0,0.0,0.0,0.2597,0.2095,0.1609,0.0982,0.0,0.0,0.0,0.0,0.0,0.0,0.0,0.0,0.0,0.0,0.0,0.0,0.0,0.0,0.0,0.0,0.0,0.0,0.0,0.0,0.0,0.0,0.0,0.0,0.0,0.0,0.0,0.0,0.0,0.0,0.0,0.0,0.0,0.0,0.0,0.0,0.0,0.0,0.0,0.0,0.0,0.0,0.0,0.0,0.0,0.0,0.0,0.0,0.0,0.0,0.0,0.0,0.0,0.0,0.0,0.0,0.0,0.0,0.0,0.0,0.0,0.0,0.0,0.0,0.0,0.0,0.0,0.0,0.0,0.0,0.0,0.0,0.0,0.0,0.0,0.0,0.0,0.0,0.3617,0.3754,0.3907,0.3907,0.4008,0.4132,0.4229,0.4239,0.4324,0.4523,0.4772,0.4945,0.4918,0.0,0.0,0.0,0.0,0.0,0.0,0.0,0.3522,0.36,0.3432,0.3422,0.36,0.3604,0.0,0.0,0.0,0.0,0.0,0.0,0.0,0.0,0.2473,0.201,0.1741,0.0,0.0283,0.0,0.0,0.0,0.0,0.0,0.0,0.0,0.0,0.0,0.0,0.0,0.0,0.0,0.0,0.0,0.0,0.0,0.0,0.0,0.0,0.0,0.0,0.0,0.0,0.0,0.0,0.0,0.0,0.0,0.0,0.0,0.0,0.0,0.0,0.0,0.0,0.0,0.0,0.0,0.0,0.0,0.0,0.0,0.0,0.0,0.0,0.0,0.0,0.0,0.0,0.0,0.0,0.0,0.0,0.0,0.0,0.0,0.0,0.0,0.0,0.0,0.0,0.0,0.0,0.0,0.0,0.0,0.0,0.0,0.0,0.0,0.0,0.0,0.0,0.0,0.0,0.0,0.3631,0.3819,0.3994,0.3994,0.4142,0.4301,0.447,0.4491,0.461,0.0,0.0,0.0,0.0,0.0,0.0,0.0,0.0,0.0,0.0,0.0,0.0,0.3689,0.3539,0.3537,0.3641,0.3617,0.3604,0.0,0.0,0.0,0.0,0.0,0.0,0.0,0.0,0.0,0.0,0.0,0.0,0.0,0.0,0.0,0.0,0.0,0.0,0.0,0.0,0.0,0.0,0.0,0.0,0.0,0.0,0.0,0.0,0.0,0.0,0.0,0.0,0.0,0.0,0.0,0.0,0.0,0.0,0.0,0.0,0.0,0.0,0.0,0.0,0.0,0.0,0.0,0.0,0.0,0.0,0.0,0.0,0.0,0.0,0.0,0.0,0.0,0.0,0.0,0.0,0.0,0.0,0.0,0.0,0.0,0.0,0.0,0.0,0.0,0.0,0.0,0.0,0.0,0.0,0.0,0.0,0.0,0.0,0.0,0.0,0.0,0.0,0.0,0.0,0.0,0.0,0.0,0.0,0.0,0.3631,0.3819,0.3994,0.3994,0.4253,0.447,0.4487,0.4491,0.4644,0.0,0.0,0.0,0.0,0.0,0.0,0.0,0.0,0.0,0.4763,0.0,0.0,0.395,0.3822,0.3771,0.3768,0.3665,0.3604,0.0,0.0,0.0,0.0,0.0,0.3179,0.3284,0.28,0.0,0.0,0.0,0.049,0.0,0.0,0.0,0.0,0.0,0.0,0.0,0.0,0.0,0.0,0.0,0.0,0.0,0.0,0.0,0.0,0.0,0.0,0.0,0.0,0.0,0.0,0.0,0.0,0.0,0.0,0.0,0.0,0.0,0.0,0.0,0.0,0.0,0.0,0.0,0.0,0.0,0.0,0.0,0.0,0.0,0.0,0.0,0.0,0.0,0.0,0.0,0.0,0.0,0.0,0.0,0.0,0.0,0.0,0.0,0.0,0.0,0.0,0.0,0.0,0.0,0.0,0.0,0.0,0.0,0.0,0.0,0.0,0.0,0.0,0.0,0.0,0.0,0.0,0.0,0.0,0.0,0.3614,0.389,0.4099,0.4011,0.4267,0.4491,0.4491,0.4863,0.5184,0.0,0.0,0.0,0.0,0.0,0.0,0.0,0.0,0.5233,0.0,0.0,0.0,0.4284,0.405,0.3924,0.3924,0.3778,0.3686,0.0,0.334,0.0,0.0,0.0,0.3383,0.3662,0.2624,0.0,0.2122,0.0,0.0,0.0,0.0,0.0,0.0,0.0,0.0,0.0,0.0,0.0,0.0,0.0,0.0,0.0,0.0,0.0,0.0,0.0,0.0,0.0,0.0,0.0,0.0,0.0,0.0,0.0,0.0,0.0,0.0,0.0,0.0,0.0,0.0,0.0,0.0,0.0,0.0,0.0,0.0,0.0,0.0,0.0,0.0,0.0,0.0,0.0,0.0,0.0,0.0,0.0,0.0,0.0,0.0,0.0,0.0,0.0,0.0,0.0,0.0,0.0,0.0,0.0,0.0,0.0,0.0,0.0,0.0,0.0,0.0,0.0,0.0,0.0,0.0,0.0,0.0,0.0,0.0,0.0,0.3693,0.3937,0.4139,0.4068,0.4294,0.4518,0.4604,0.5084,0.5467,0.0,0.0,0.0,0.6409,0.6183,0.0,0.0,0.0,0.5783,0.0,0.0,0.49,0.4747,0.4385,0.0,0.0,0.0,0.0,0.3662,0.3425,0.0,0.0,0.0,0.0,0.3898,0.0,0.227,0.2281,0.0,0.0,0.0,0.0,0.0,0.0,0.0,0.0,0.0,0.0,0.0,0.0,0.0,0.0,0.0,0.0,0.0,0.0,0.0,0.0,0.0,0.0,0.0,0.0,0.0,0.0,0.0,0.0,0.0,0.0,0.0,0.0,0.0,0.0,0.0,0.0,0.0,0.0,0.0,0.0,0.0,0.0,0.0,0.0,0.0,0.0,0.0,0.0,0.0,0.0,0.0,0.0,0.0,0.0,0.0,0.0,0.0,0.0,0.0,0.0,0.0,0.0,0.0,0.0,0.0,0.0,0.0,0.0,0.0,0.0,0.0,0.0,0.0,0.0,0.0,0.0,0.0,0.0,0.0,0.395,0.3994,0.0,0.0,0.0,0.459,0.486,0.5009,0.5268,0.0,0.0,0.0,0.0,0.0,0.0,0.0,0.0,0.66,0.648,0.0,0.5528,0.0,0.0,0.467,0.0,0.0,0.0,0.3785,0.3472,0.3404,0.0,0.0,0.0,0.0,0.0,0.2805,0.1986,0.1667,0.0934,0.0,0.0,0.0,0.0,0.0,0.0,0.0,0.0,0.0,0.0,0.0,0.0,0.0,0.0,0.0,0.0,0.0,0.0,0.0,0.0,0.0,0.0,0.0,0.0,0.0,0.0,0.0,0.0,0.0,0.0,0.0,0.0,0.0,0.0,0.0,0.0,0.0,0.0,0.0,0.0,0.0,0.0,0.0,0.0,0.0,0.0,0.0,0.0,0.0,0.0,0.0,0.0,0.0,0.0,0.0,0.0,0.0,0.0,0.0,0.0,0.0,0.0,0.0,0.0,0.0,0.0,0.0,0.0,0.0,0.0,0.0,0.0,0.0,0.0,0.0,0.0,0.0,0.0,0.0,0.0,0.0,0.0,0.4627,0.4968,0.5406,0.585,0.0,0.0,0.0,0.0,0.0,0.7285,0.0,0.0,0.7078,0.6926,0.6363,0.0,0.0,0.0,0.5167,0.0,0.0,0.0,0.4068,0.3869,0.3795,0.0,0.0,0.0,0.0,0.0,0.2774,0.0,0.0,0.0,0.0,0.0,0.0,0.0,0.0,0.0,0.0,0.0,0.0,0.0,0.0,0.0,0.0,0.0,0.0,0.0,0.0,0.0,0.0,0.0,0.0,0.0,0.0,0.0,0.0,0.0,0.0,0.0,0.0,0.0,0.0,0.0,0.0,0.0,0.0,0.0,0.0,0.0,0.0,0.0,0.0,0.0,0.0,0.0,0.0,0.0,0.0,0.0,0.0,0.0,0.0,0.0,0.0,0.0,0.0,0.0,0.0,0.0,0.0,0.0,0.0,0.0,0.0,0.0,0.0,0.0,0.0,0.0,0.0,0.0,0.0,0.0,0.0,0.0,0.0,0.0,0.0,0.4277,0.0,0.0,0.0,0.0,0.0,0.0,0.0,0.0,0.0,0.6817,0.0,0.7556,0.0,0.7573,0.0,0.7668,0.7417,0.7112,0.6783,0.0,0.6556,0.6078,0.0,0.0,0.0,0.0,0.0,0.428,0.4151,0.0,0.0,0.0,0.0,0.0,0.0,0.0,0.0,0.1161,0.0,0.0,0.0,0.0,0.0,0.0,0.0,0.0,0.0,0.0,0.0,0.0,0.0,0.0,0.0,0.0,0.0,0.0,0.0,0.0,0.0,0.0,0.0,0.0,0.0,0.0,0.0,0.0,0.0,0.0,0.0,0.0,0.0,0.0,0.0,0.0,0.0,0.0,0.0,0.0,0.0,0.0,0.0,0.0,0.0,0.0,0.0,0.0,0.0,0.0,0.0,0.0,0.0,0.0,0.0,0.0,0.0,0.0,0.0,0.0,0.0,0.0,0.0,0.0,0.0,0.0,0.0,0.0,0.0,0.0,0.0,0.0,0.0,0.0,0.0,0.0,0.0,0.0,0.0,0.0,0.0,0.4752,0.0,0.0,0.0,0.6422,0.0,0.694,0.7233,0.7587,0.7621,0.7736,0.7965,0.7906,0.0,0.7169,0.7125,0.0,0.0,0.6597,0.6542,0.6535,0.0,0.0,0.0,0.0,0.0,0.0,0.0,0.0,0.0,0.4646,0.0,0.204,0.2599,0.1727,0.0,0.0,0.0,0.0,0.0,0.0,0.0,0.0,0.0,0.0,0.0,0.0,0.0,0.0,0.0,0.0,0.0,0.0,0.0,0.0,0.0,0.0,0.0,0.0,0.0,0.0,0.0,0.0,0.0,0.0,0.0,0.0,0.0,0.0,0.0,0.0,0.0,0.0,0.0,0.0,0.0,0.0,0.0,0.0,0.0,0.0,0.0,0.0,0.0,0.0,0.0,0.0,0.0,0.0,0.0,0.0,0.0,0.0,0.0,0.0,0.0,0.0,0.0,0.0,0.0,0.0,0.0,0.0,0.0,0.0,0.0,0.0,0.0,0.0,0.0,0.0,0.0,0.4662,0.4931,0.5201,0.0,0.5303,0.5399,0.0,0.0,0.0,0.0,0.7363,0.7597,0.7843,0.7877,0.7907,0.7982,0.7955,0.0,0.0,0.0,0.0,0.7526,0.7166,0.6919,0.6814,0.6112,0.0,0.5279,0.0,0.0,0.4429,0.0,0.0,0.0,0.0,0.0,0.2141,0.1835,0.1043,0.0,0.0,0.0,0.0,0.0,0.0,0.0,0.0,0.0,0.0,0.0,0.0,0.0,0.0,0.0,0.0,0.0,0.0,0.0,0.0,0.0,0.0,0.0,0.0,0.0,0.0,0.0,0.0,0.0,0.0,0.0,0.0,0.0,0.0,0.0,0.0,0.0,0.0,0.0,0.0,0.0,0.0,0.0,0.0,0.0,0.0,0.0,0.0,0.0,0.0,0.0,0.0,0.0,0.0,0.0,0.0,0.0,0.0,0.0,0.0,0.0,0.0,0.0,0.0,0.0,0.0,0.0,0.0,0.0,0.0,0.0,0.0,0.0,0.0,0.0,0.0,0.0,0.5003,0.0,0.0,0.5904,0.0,0.0,0.6285,0.0,0.0,0.7364,0.756,0.0,0.7874,0.7948,0.7988,0.7988,0.7988,0.0,0.0,0.0,0.0,0.7723,0.7536,0.7321,0.7224,0.661,0.0,0.5586,0.0,0.0,0.4487,0.0,0.0,0.0,0.0,0.2785,0.0,0.1008,0.0429,0.0,0.0,0.0,0.0,0.0,0.0,0.0,0.0,0.0,0.0,0.0,0.0,0.0,0.0,0.0,0.0,0.0,0.0,0.0,0.0,0.0,0.0,0.0,0.0,0.0,0.0,0.0,0.0,0.0,0.0,0.0,0.0,0.0,0.0,0.0,0.0,0.0,0.0,0.0,0.0,0.0,0.0,0.0,0.0,0.0,0.0,0.0,0.0,0.0,0.0,0.0,0.0,0.0,0.0,0.0,0.0,0.0,0.0,0.0,0.0,0.0,0.0,0.0,0.0,0.0,0.0,0.0,0.0,0.0,0.0,0.0,0.0,0.0,0.0,0.0,0.0,0.0,0.0,0.0,0.0,0.0,0.0,0.0,0.0,0.7021,0.0,0.7407,0.0,0.7841,0.7841,0.7911,0.7988,0.7988,0.0,0.788,0.7675,0.7847,0.7877,0.7668,0.7777,0.7773,0.7631,0.717,0.0,0.0,0.0,0.0,0.0,0.0,0.0,0.0,0.0,0.0,0.0,0.0288,0.0,0.0,0.0,0.0,0.0,0.0,0.0,0.0,0.0,0.0,0.0,0.0,0.0,0.0,0.0,0.0,0.0,0.0,0.0,0.0,0.0,0.0,0.0,0.0,0.0,0.0,0.0,0.0,0.0,0.0,0.0,0.0,0.0,0.0,0.0,0.0,0.0,0.0,0.0,0.0,0.0,0.0,0.0,0.0,0.0,0.0,0.0,0.0,0.0,0.0,0.0,0.0,0.0,0.0,0.0,0.0,0.0,0.0,0.0,0.0,0.0,0.0,0.0,0.0,0.0,0.0,0.0,0.0,0.0,0.0,0.0,0.0,0.0,0.0,0.0,0.0,0.0,0.0,0.0,0.0,0.0,0.0,0.0,0.7299,0.7424,0.738,0.7428,0.7699,0.7889,0.0,0.7948,0.7975,0.7988,0.7988,0.7988,0.0,0.0,0.0,0.0,0.7914,0.7938,0.788,0.7777,0.7217,0.6579,0.0,0.5406,0.4837,0.4234,0.0,0.0,0.0,0.0,0.0,0.0183,0.0041,0.0,0.0,0.0,0.0,0.0,0.0,0.0,0.0,0.0,0.0,0.0,0.0,0.0,0.0,0.0,0.0,0.0,0.0,0.0,0.0,0.0,0.0,0.0,0.0,0.0,0.0,0.0,0.0,0.0,0.0,0.0,0.0,0.0,0.0,0.0,0.0,0.0,0.0,0.0,0.0,0.0,0.0,0.0,0.0,0.0,0.0,0.0,0.0,0.0,0.0,0.0,0.0,0.0,0.0,0.0,0.0,0.0,0.0,0.0,0.0,0.0,0.0,0.0,0.0,0.0,0.0,0.0,0.0,0.0,0.0,0.0,0.0,0.0,0.0,0.0,0.0,0.0,0.0,0.0,0.0,0.0,0.0,0.0,0.0,0.0,0.7712,0.0,0.7801,0.7875,0.7874,0.7874,0.7941,0.7988,0.7988,0.7988,0.7988,0.7988,0.7988,0.7988,0.7988,0.7988,0.0,0.7814,0.7383,0.6827,0.6149,0.5623,0.5064,0.0,0.0,0.0,0.0,0.0,0.0674,0.0,0.0,0.0,0.0,0.0,0.0,0.0,0.0,0.0,0.0,0.0,0.0,0.0,0.0,0.0,0.0,0.0,0.0,0.0,0.0,0.0,0.0,0.0,0.0,0.0,0.0,0.0,0.0,0.0,0.0,0.0,0.0,0.0,0.0,0.0,0.0,0.0,0.0,0.0,0.0,0.0,0.0,0.0,0.0,0.0,0.0,0.0,0.0,0.0,0.0,0.0,0.0,0.0,0.0,0.0,0.0,0.0,0.0,0.0,0.0,0.0,0.0,0.0,0.0,0.0,0.0,0.0,0.0,0.0,0.0,0.0,0.0,0.0,0.0,0.0,0.0,0.0,0.0,0.0,0.0,0.0,0.7458,0.0,0.0,0.7719,0.0,0.0,0.7891,0.7944,0.7875,0.7862,0.7862,0.7862,0.7917,0.7988,0.7988,0.7988,0.7988,0.7988,0.7988,0.7988,0.7988,0.7988,0.7934,0.7862,0.76,0.716,0.0,0.0,0.0,0.0,0.447,0.3843,0.2897,0.0,0.0,0.0,0.0,0.0,0.0,0.0,0.0,0.0,0.0,0.0,0.0,0.0,0.0,0.0,0.0,0.0,0.0,0.0,0.0,0.0,0.0,0.0,0.0,0.0,0.0,0.0,0.0,0.0,0.0,0.0,0.0,0.0,0.0,0.0,0.0,0.0,0.0,0.0,0.0,0.0,0.0,0.0,0.0,0.0,0.0,0.0,0.0,0.0,0.0,0.0,0.0,0.0,0.0,0.0,0.0,0.0,0.0,0.0,0.0,0.0,0.0,0.0,0.0,0.0,0.0,0.0,0.0,0.0,0.0,0.0,0.0,0.0,0.0,0.0,0.0,0.0,0.0,0.0,0.0,0.0,0.0,0.0,0.0,0.0,0.0,0.0,0.0,0.0,0.7891,0.7985,0.7971,0.7968,0.7968,0.7968,0.7982,0.7988,0.7988,0.7988,0.7988,0.7988,0.7988,0.7988,0.7988,0.7988,0.7982,0.7968,0.7855,0.7472,0.0,0.0,0.0,0.0,0.0,0.3009,0.149,0.0,0.0,0.0,0.0,0.0,0.0,0.0,0.0,0.0,0.0,0.0,0.0,0.0,0.0,0.0,0.0,0.0,0.0,0.0,0.0,0.0,0.0,0.0,0.0,0.0,0.0,0.0,0.0,0.0,0.0,0.0,0.0,0.0,0.0,0.0,0.0,0.0,0.0,0.0,0.0,0.0,0.0,0.0,0.0,0.0,0.0,0.0,0.0,0.0,0.0,0.0,0.0,0.0,0.0,0.0,0.0,0.0,0.0,0.0,0.0,0.0,0.0,0.0,0.0,0.0,0.0,0.0,0.0,0.0,0.0,0.0,0.0,0.0,0.0,0.0,0.0,0.0,0.0,0.0,0.0,0.0,0.0,0.0,0.0,0.0,0.0,0.0,0.0,0.0,0.8265,0.8306,0.8306,0.8231,0.8143,0.8002,0.8123,0.814,0.7998,0.7988,0.7988,0.7988,0.7988,0.7988,0.7988,0.7988,0.7988,0.7988,0.7889,0.7607,0.0,0.0,0.0,0.0,0.0,0.0,0.0,0.0,0.1556,0.0,0.0,0.0,0.0,0.0,0.0,0.0,0.0,0.0,0.0,0.0,0.0,0.0,0.0,0.0,0.0,0.0,0.0,0.0,0.0,0.0,0.0,0.0,0.0,0.0,0.0,0.0,0.0,0.0,0.0,0.0,0.0,0.0,0.0,0.0,0.0,0.0,0.0,0.0,0.0,0.0,0.0,0.0,0.0,0.0,0.0,0.0,0.0,0.0,0.0,0.0,0.0,0.0,0.0,0.0,0.0,0.0,0.0,0.0,0.0,0.0,0.0,0.0,0.0,0.0,0.0,0.0,0.0,0.0,0.0,0.0,0.0,0.0,0.0,0.0,0.0,0.0,0.0,0.0,0.0,0.8385,0.0,0.8364,0.0,0.8397,0.8367,0.8465,0.8482,0.8482,0.8482,0.8435,0.834,0.8187,0.8265,0.8272,0.8119,0.8106,0.8089,0.7992,0.7988,0.7988,0.7988,0.7988,0.0,0.7988,0.7884,0.7753,0.7502,0.7095,0.0,0.0,0.619,0.0,0.0,0.3384,0.2254,0.0555,0.0146,0.0,0.0,0.0,0.0,0.0,0.0,0.0,0.0,0.0,0.0,0.0,0.0,0.0,0.0,0.0,0.0,0.0,0.0,0.0,0.0,0.0,0.0,0.0,0.0,0.0,0.0,0.0,0.0,0.0,0.0,0.0,0.009,0.0449,0.0219,0.0129,0.0469,0.0,0.0,0.0,0.0,0.0,0.0,0.0,0.255,0.0,0.0,0.0,0.0,0.0,0.0258,0.0,0.0,0.0,0.0,0.0,0.0,0.0,0.0,0.0,0.0,0.0,0.0,0.0,0.0,0.0,0.0,0.0,0.0,0.0,0.0,0.0,0.0,0.0,0.0,0.0,0.0,0.0,0.0,0.8479,0.8479,0.8479,0.8482,0.8479,0.8479,0.8482,0.8482,0.8482,0.8482,0.8611,0.8648,0.8492,0.8479,0.8421,0.833,0.832,0.8204,0.8002,0.7988,0.7988,0.0,0.0,0.7988,0.7988,0.7988,0.7911,0.7804,0.0,0.0,0.6873,0.6763,0.6205,0.5317,0.4142,0.2972,0.1908,0.055,0.0,0.0,0.0,0.0,0.0,0.0,0.0,0.0,0.0,0.0,0.0,0.0,0.0,0.0,0.0,0.0,0.0,0.0,0.0,0.0,0.0,0.0,0.0,0.0,0.0,0.0,0.0,0.0,0.0,0.0,0.0,0.0359,0.1567,0.0807,0.0395,0.1599,0.0,0.0,0.0,0.0,0.0,0.0,0.0,0.2702,0.3231,0.0,0.0,0.0,0.0,0.0,0.0,0.0,0.0,0.0,0.0,0.0,0.0,0.0,0.0,0.0,0.0,0.0,0.0,0.0,0.0,0.0,0.0,0.0,0.0,0.0,0.0,0.0,0.0,0.0,0.0,0.0,0.0,0.0,0.8638,0.872,0.8794,0.8794,0.8794,0.8794,0.8794,0.8794,0.8794,0.8794,0.8835,0.8849,0.8798,0.8699,0.8577,0.0,0.8378,0.8248,0.0,0.8099,0.7988,0.7988,0.7988,0.7988,0.7988,0.7988,0.7965,0.7917,0.0,0.0,0.0,0.7434,0.6802,0.5658,0.5366,0.4553,0.3336,0.2907,0.2213,0.136,0.136,0.0807,0.0,0.0,0.0,0.0,0.0,0.0,0.0,0.0,0.0,0.0,0.0,0.0,0.0,0.0,0.0,0.0,0.0,0.0,0.0,0.0,0.0,0.0,0.0,0.0,0.0,0.0,0.0673,0.1344,0.1746,0.2147,0.2332,0.1882,0.0,0.0,0.0,0.0,0.0,0.0,0.0,0.2224,0.0,0.2645,0.0,0.0,0.0,0.0,0.0,0.0,0.0,0.0,0.0,0.0,0.0,0.0,0.0,0.0,0.0,0.0,0.0,0.0,0.0,0.0,0.0,0.0,0.0,0.0,0.0,0.0,0.0,0.0,0.0,0.0,0.0,0.0,0.8798,0.8817,0.8885,0.8885,0.8885,0.8885,0.8885,0.8885,0.8885,0.8885,0.8885,0.8885,0.8885,0.8797,0.0,0.8581,0.8486,0.8411,0.8353,0.8211,0.8126,0.8126,0.8019,0.7988,0.7988,0.0,0.0,0.7988,0.7894,0.7851,0.7767,0.7855,0.7452,0.6617,0.6197,0.5525,0.4718,0.4216,0.3516,0.2764,0.2764,0.1963,0.0756,0.0756,0.0454,0.0,0.0,0.0,0.0,0.0,0.0,0.0,0.0,0.0,0.0,0.0,0.0,0.0,0.0,0.0,0.0,0.0,0.0,0.0,0.0,0.0,0.0136,0.059,0.1262,0.2058,0.2995,0.3393,0.3345,0.2616,0.243,0.1925,0.0,0.0,0.0,0.0,0.0,0.0,0.0,0.3343,0.0,0.0,0.0,0.0,0.0,0.0,0.0,0.0,0.0,0.0,0.0,0.0,0.0,0.0,0.0,0.0,0.0,0.0,0.0,0.0,0.0,0.0,0.0,0.0,0.0,0.0,0.0,0.0,0.0,0.0,0.0,0.0,0.8885,0.8885,0.0,0.0,0.8885,0.0,0.8885,0.8885,0.8885,0.8885,0.8885,0.8885,0.8885,0.8885,0.8824,0.8737,0.0,0.0,0.0,0.8364,0.8337,0.8337,0.8147,0.8015,0.8005,0.8005,0.8002,0.7988,0.7988,0.7988,0.7988,0.7988,0.7988,0.7939,0.6681,0.6129,0.6079,0.4818,0.4216,0.4116,0.4116,0.3316,0.2163,0.2163,0.131,0.0151,0.0151,0.0101,0.0,0.0,0.0,0.0,0.0,0.0,0.0,0.0,0.0,0.0,0.0,0.0,0.0,0.0,0.005,0.015,0.0246,0.0286,0.0602,0.1709,0.2,0.2731,0.5003,0.4552,0.3829,0.3712,0.3555,0.2939,0.1598,0.0,0.0,0.0,0.0,0.0,0.0,0.4724,0.4273,0.0,0.0,0.0,0.0,0.0,0.019,0.0,0.0085,0.0134,0.0139,0.0047,0.0,0.0,0.0,0.0051,0.0151,0.0151,0.0202,0.0303,0.0303,0.0202,0.0151,0.0151,0.0101,0.0,0.0,0.0,0.0,0.0,0.0,0.0,0.0,0.0,0.8885,0.8885,0.8885,0.8885,0.8885,0.8885,0.8885,0.8885,0.8885,0.8885,0.8885,0.8885,0.8868,0.8834,0.8777,0.8696,0.8659,0.8516,0.8431,0.8431,0.8397,0.8326,0.8218,0.8214,0.816,0.7988,0.7988,0.7988,0.7988,0.7988,0.7988,0.7988,0.7686,0.7537,0.7487,0.7182,0.6478,0.5525,0.5525,0.472,0.3516,0.3516,0.2715,0.1511,0.1511,0.0857,0.0,0.0,0.0,0.0,0.0,0.0,0.0,0.0,0.0,0.0,0.0,0.0,0.0,0.0,0.0748,0.1771,0.284,0.3072,0.3099,0.3282,0.4038,0.4827,0.5329,0.5891,0.5938,0.493,0.462,0.4064,0.2703,0.3444,0.0,0.0,0.4365,0.478,0.5982,0.528,0.498,0.0,0.0,0.0,0.0,0.0,0.1883,0.0042,0.0885,0.1418,0.1524,0.0527,0.0,0.0,0.0,0.0555,0.1511,0.1511,0.2063,0.3065,0.3065,0.2464,0.1511,0.1511,0.0907,0.0,0.0,0.0,0.0,0.0,0.0,0.0,0.8885,0.8885,0.8885,0.8885,0.8885,0.8885,0.8885,0.8885,0.8885,0.8885,0.8885,0.8885,0.8885,0.8885,0.8885,0.8885,0.8807,0.8815,0.8815,0.8672,0.8584,0.8584,0.852,0.8445,0.837,0.8367,0.8296,0.8143,0.8025,0.7988,0.7988,0.7988,0.7988,0.7988,0.7988,0.7988,0.7988,0.7988,0.7587,0.6933,0.6933,0.6126,0.492,0.492,0.4067,0.2914,0.2914,0.2465,0.1812,0.1812,0.1812,0.1711,0.1109,0.0907,0.0807,0.0202,0.0,0.0,0.0,0.0454,0.1058,0.1661,0.2396,0.3117,0.3811,0.4001,0.4126,0.46,0.5178,0.574,0.6217,0.6691,0.6575,0.5299,0.5417,0.5151,0.3837,0.46,0.0,0.5339,0.5068,0.5299,0.6381,0.5644,0.5472,0.6274,0.0,0.0,0.4918,0.5174,0.4229,0.1816,0.239,0.2791,0.2892,0.2197,0.1843,0.1812,0.1812,0.2213,0.2914,0.2914,0.3316,0.4016,0.4016,0.3565,0.2914,0.2914,0.2464,0.1812,0.1812,0.146,0.0907,0.0907,0.0907,0.0807,0.8885,0.8885,0.8885,0.8885,0.8885,0.8885,0.8885,0.8885,0.8885,0.8885,0.8885,0.8885,0.8885,0.8885,0.8885,0.8885,0.8885,0.8885,0.8885,0.8818,0.8747,0.8747,0.8621,0.854,0.8516,0.8492,0.8425,0.8354,0.815,0.8025,0.8022,0.8002,0.7988,0.7988,0.7988,0.7988,0.7988,0.7988,0.7988,0.7988,0.7988,0.7335,0.6282,0.6282,0.5475,0.4316,0.4316,0.4166,0.4016,0.4016,0.4016,0.3815,0.2665,0.2314,0.2063,0.0958,0.0605,0.0555,0.0353,0.126,0.2614,0.3967,0.4316,0.4368,0.4568,0.4615,0.4903,0.5909,0.5994,0.6219,0.724,0.7166,0.6625,0.5505,0.6009,0.6113,0.4892,0.0,0.6358,0.6334,0.5691,0.5632,0.6669,0.6087,0.5931,0.6689,0.6937,0.6587,0.0,0.6687,0.646,0.4482,0.4191,0.4069,0.4023,0.4185,0.4216,0.4016,0.4016,0.4116,0.4316,0.4316,0.4416,0.4616,0.4616,0.4468,0.4316,0.4316,0.4166,0.4016,0.4016,0.3316,0.2314,0.2314,0.2314,0.2163,0.8885,0.8885,0.8885,0.8885,0.8885,0.8885,0.8885,0.8885,0.8885,0.8885,0.8885,0.8885,0.8885,0.8885,0.8885,0.8885,0.8885,0.8885,0.8885,0.8861,0.8848,0.8848,0.8824,0.8808,0.8676,0.855,0.8472,0.8448,0.8306,0.8235,0.8231,0.8099,0.7988,0.7988,0.7988,0.7988,0.7988,0.7988,0.7988,0.7988,0.7988,0.7889,0.7686,0.7686,0.6883,0.5677,0.5677,0.497,0.4016,0.4016,0.4016,0.3966,0.3765,0.3665,0.3667,0.3416,0.3366,0.3115,0.2013,0.2665,0.4017,0.5372,0.5677,0.5977,0.7132,0.7369,0.7421,0.7495,0.7481,0.7428,0.7417,0.7378,0.7125,0.6553,0.6554,0.6475,0.5858,0.0,0.6583,0.6494,0.6622,0.6826,0.7024,0.681,0.6751,0.7021,0.696,0.697,0.706,0.7252,0.7333,0.7168,0.6085,0.4988,0.3999,0.5116,0.5122,0.4016,0.4016,0.4568,0.5677,0.5677,0.6329,0.7385,0.7385,0.6731,0.5677,0.5677,0.5022,0.4016,0.4016,0.3865,0.3665,0.3665,0.3665,0.3665,0.8885,0.8885,0.8885,0.8885,0.8885,0.8885,0.8885,0.8885,0.8885,0.8885,0.8885,0.8885,0.8885,0.8885,0.8885,0.8885,0.8885,0.8885,0.8885,0.8885,0.8885,0.8885,0.8885,0.8851,0.8835,0.8682,0.8604,0.8604,0.8459,0.8384,0.8384,0.8309,0.8279,0.8275,0.8197,0.8208,0.8272,0.8194,0.8208,0.8279,0.8279,0.8231,0.8163,0.8163,0.7708,0.7083,0.7083,0.6678,0.6174,0.6174,0.6174,0.6024,0.5322,0.5072,0.492,0.4216,0.4016,0.4017,0.4119,0.462,0.5422,0.6731,0.7083,0.7235,0.7839,0.7988,0.7971,0.7897,0.7868,0.777,0.7634,0.7411,0.7207,0.7082,0.6858,0.0,0.0,0.665,0.6797,0.6725,0.6923,0.7095,0.7095,0.7156,0.7193,0.7258,0.7282,0.735,0.7489,0.7567,0.7672,0.7807,0.725,0.672,0.6174,0.6781,0.6781,0.6174,0.6174,0.6476,0.7083,0.7083,0.7434,0.7988,0.7988,0.7637,0.7083,0.7083,0.6728,0.6174,0.6174,0.5722,0.5072,0.5072,0.5072,0.497,0.8988,0.8905,0.8885,0.8885,0.8885,0.8885,0.8885,0.8885,0.8885,0.8885,0.8885,0.8885,0.8885,0.8885,0.8885,0.8885,0.8885,0.8885,0.8885,0.8885,0.8885,0.8885,0.8885,0.8885,0.8885,0.8821,0.8764,0.8764,0.8611,0.8533,0.8533,0.8499,0.8482,0.8476,0.8367,0.8381,0.8476,0.8367,0.8384,0.8482,0.8482,0.8418,0.8371,0.8371,0.8245,0.8093,0.8093,0.8093,0.8086,0.8106,0.8092,0.7882,0.6792,0.6481,0.6279,0.522,0.4918,0.507,0.5827,0.6232,0.6731,0.7739,0.7988,0.7988,0.7988,0.7988,0.7988,0.7988,0.7897,0.7851,0.7818,0.7529,0.7312,0.7363,0.0,0.0,0.0,0.6997,0.7071,0.7037,0.7115,0.7203,0.7203,0.7356,0.7424,0.7424,0.7533,0.7614,0.7648,0.775,0.7828,0.7865,0.7928,0.7988,0.7988,0.7988,0.7988,0.7988,0.7988,0.7988,0.7988,0.7988,0.7988,0.7988,0.7988,0.7988,0.7988,0.7988,0.7988,0.7988,0.7988,0.7385,0.6481,0.6481,0.6481,0.6329,0.9193,0.9028,0.8885,0.8885,0.8885,0.8885,0.8885,0.8885,0.8885,0.8885,0.8885,0.8885,0.8885,0.8885,0.8885,0.8885,0.8885,0.8885,0.8885,0.8885,0.8885,0.8885,0.8885,0.8885,0.8885,0.8871,0.8865,0.8865,0.8767,0.8693,0.8693,0.855,0.8482,0.8482,0.8472,0.8472,0.8482,0.8472,0.8472,0.8482,0.8482,0.8476,0.8465,0.8465,0.8459,0.8448,0.8448,0.8448,0.8428,0.8299,0.8252,0.8228,0.7932,0.7839,0.7839,0.7736,0.7686,0.7434,0.6331,0.6883,0.7889,0.7988,0.7988,0.7988,0.7988,0.7988,0.7988,0.7988,0.7982,0.7931,0.7838,0.7784,0.7675,0.746,0.0,0.0,0.7119,0.737,0.7499,0.7356,0.7472,0.7567,0.7567,0.7577,0.7584,0.7584,0.7594,0.7658,0.7787,0.7804,0.7875,0.7968,0.7985,0.7988,0.7988,0.7988,0.7988,0.7988,0.7988,0.7988,0.7988,0.7988,0.7988,0.7988,0.7988,0.7988,0.7988,0.7988,0.7988,0.7988,0.7988,0.7939,0.7839,0.7839,0.7839,0.7839,0.9354,0.9201,0.9087,0.9201,0.9164,0.9113,0.9079,0.8994,0.8885,0.8885,0.8885,0.8885,0.8885,0.8885,0.8885,0.8885,0.8885,0.8885,0.8885,0.8885,0.8885,0.8885,0.8885,0.8885,0.8885,0.8885,0.8885,0.8885,0.8824,0.8797,0.8797,0.8794,0.8764,0.876,0.8665,0.8676,0.876,0.8665,0.8679,0.8764,0.8764,0.871,0.8625,0.8625,0.8564,0.8482,0.8482,0.8482,0.8472,0.8421,0.8401,0.8377,0.8228,0.8184,0.8163,0.8019,0.7988,0.7889,0.7385,0.7637,0.7988,0.7988,0.7988,0.7988,0.7988,0.7988,0.7988,0.7988,0.7988,0.7971,0.7914,0.7875,0.7804,0.7787,0.0,0.759,0.756,0.758,0.758,0.7519,0.7563,0.76,0.76,0.7678,0.7729,0.7729,0.7818,0.7847,0.7901,0.7904,0.7931,0.7988,0.7988,0.7988,0.7988,0.7988,0.7988,0.7988,0.7988,0.7988,0.7988,0.7988,0.7988,0.7988,0.7988,0.7988,0.7988,0.7988,0.7988,0.7988,0.7988,0.7988,0.7988,0.7988,0.7988,0.7988,0.9452,0.9361,0.9303,0.9371,0.9327,0.9269,0.9286,0.914,0.9079,0.9079,0.9035,0.9008,0.9008,0.8964,0.8885,0.8885,0.8885,0.8885,0.8885,0.8885,0.8885,0.8885,0.8885,0.8885,0.8885,0.8885,0.8885,0.8885,0.8885,0.8885,0.8885,0.8885,0.8885,0.8878,0.8828,0.8842,0.8875,0.8825,0.8842,0.8885,0.8885,0.8821,0.8781,0.8781,0.8716,0.8625,0.8625,0.8625,0.8618,0.857,0.8554,0.8526,0.8384,0.8336,0.8306,0.8157,0.8113,0.8102,0.8002,0.7988,0.7988,0.7988,0.7988,0.7988,0.7988,0.7988,0.7988,0.7988,0.7988,0.7988,0.7988,0.7904,0.7916,0.7971,0.7823,0.7773,0.7868,0.7797,0.774,0.774,0.774,0.774,0.774,0.7824,0.7882,0.7882,0.7931,0.7988,0.7988,0.7988,0.7988,0.7988,0.7988,0.7988,0.7988,0.7988,0.7988,0.7988,0.7988,0.7988,0.7988,0.7988,0.7988,0.7988,0.7988,0.7988,0.7988,0.7988,0.7988,0.7988,0.7988,0.7988,0.7988,0.7988,0.7988,0.7988,0.9612,0.949,0.9384,0.9384,0.9384,0.9384,0.9384,0.9381,0.9381,0.9381,0.9306,0.921,0.921,0.9025,0.8885,0.8885,0.8885,0.8885,0.8885,0.8885,0.8885,0.8885,0.8885,0.8885,0.8885,0.8885,0.8885,0.8885,0.8885,0.8885,0.8885,0.8885,0.8885,0.8885,0.8885,0.8885,0.8885,0.8885,0.8885,0.8885,0.8885,0.8885,0.8885,0.8885,0.8885,0.8885,0.8885,0.8885,0.8861,0.8764,0.8713,0.8686,0.8533,0.8482,0.8455,0.8364,0.8323,0.8238,0.8032,0.7992,0.7988,0.7988,0.7988,0.7988,0.7988,0.7988,0.7988,0.7988,0.7988,0.7988,0.7988,0.7988,0.7988,0.7988,0.7988,0.7988,0.7988,0.7988,0.7988,0.7988,0.7988,0.7988,0.7988,0.7988,0.7988,0.7988,0.7988,0.7988,0.7988,0.7988,0.7988,0.7988,0.7988,0.7988,0.7988,0.7988,0.7988,0.7988,0.7988,0.7988,0.7988,0.7988,0.7988,0.7988,0.7988,0.7988,0.7988,0.7988,0.7988,0.7988,0.7988,0.7988,0.7988,0.7988,0.7988,0.7988,0.9758,0.972,0.969,0.969,0.9608,0.954,0.954,0.9449,0.9381,0.9381,0.9306,0.9251,0.9303,0.9089,0.8981,0.9079,0.8998,0.8885,0.8885,0.8885,0.8885,0.8885,0.8885,0.8885,0.8885,0.8885,0.8885,0.8885,0.8885,0.8885,0.8885,0.8885,0.8885,0.8885,0.8885,0.8885,0.8885,0.8885,0.8885,0.8885,0.8885,0.8885,0.8885,0.8885,0.8885,0.8885,0.8885,0.8885,0.8875,0.8831,0.8814,0.8845,0.8693,0.8567,0.8472,0.8431,0.8398,0.831,0.8214,0.8123,0.7988,0.7988,0.7988,0.7988,0.7988,0.7988,0.7988,0.7988,0.7988,0.7988,0.7988,0.7988,0.7988,0.7988,0.7988,0.7988,0.7988,0.7988,0.7988,0.7988,0.7988,0.7988,0.7988,0.7988,0.7988,0.7988,0.7988,0.7988,0.7988,0.7988,0.7988,0.7988,0.7988,0.7988,0.7988,0.7988,0.7988,0.7988,0.7988,0.7988,0.7988,0.7988,0.7988,0.7988,0.7988,0.7988,0.7988,0.7988,0.7988,0.7988,0.7988,0.7988,0.7988,0.7988,0.7988,0.7988,0.9822,0.9822,0.9822,0.9822,0.9751,0.9693,0.9693,0.9615,0.9554,0.9554,0.9425,0.9367,0.9462,0.9256,0.9147,0.9292,0.9106,0.8998,0.8888,0.8885,0.8885,0.8885,0.8885,0.8885,0.8885,0.8885,0.8885,0.8885,0.8885,0.8885,0.8885,0.8885,0.8885,0.8885,0.8885,0.8885,0.8885,0.8885,0.8885,0.8885,0.8885,0.8885,0.8885,0.8885,0.8885,0.8885,0.8885,0.8885,0.8885,0.8885,0.8885,0.8868,0.8828,0.8737,0.8652,0.8591,0.8513,0.8418,0.8354,0.8204,0.8116,0.8005,0.7988,0.7988,0.7988,0.7988,0.7988,0.7988,0.7988,0.7988,0.7988,0.7988,0.7988,0.7988,0.7988,0.7988,0.7988,0.7988,0.7988,0.7988,0.7988,0.7988,0.7988,0.7988,0.7988,0.7988,0.7988,0.7988,0.7988,0.7988,0.7988,0.7988,0.7988,0.7988,0.7988,0.7988,0.7988,0.7988,0.7988,0.7988,0.7988,0.7988,0.7988,0.7988,0.7988,0.7988,0.7988,0.7988,0.7988,0.7988,0.7988,0.7988,0.7988,0.7988,0.7988,0.7988,0.9822,0.9822,0.9822,0.9822,0.9822,0.9822,0.9822,0.9822,0.9822,0.9822,0.9696,0.9615,0.9629,0.9483,0.9388,0.9401,0.932,0.912,0.8932,0.8922,0.8922,0.8922,0.8922,0.8915,0.8902,0.8892,0.8885,0.8885,0.8885,0.8885,0.8885,0.8885,0.8885,0.8885,0.8885,0.8885,0.8885,0.8885,0.8885,0.8885,0.8885,0.8885,0.8885,0.8885,0.8885,0.8885,0.8885,0.8885,0.8885,0.8885,0.8885,0.8885,0.8885,0.8885,0.8854,0.8771,0.872,0.8652,0.8384,0.834,0.8238,0.8096,0.8002,0.7988,0.7988,0.7988,0.7988,0.7988,0.7988,0.7988,0.7988,0.7988,0.7988,0.7988,0.7988,0.7988,0.7988,0.7988,0.7988,0.7988,0.7988,0.7988,0.7988,0.7988,0.7988,0.7988,0.7988,0.7988,0.7988,0.7988,0.7988,0.7988,0.7988,0.7988,0.7988,0.7988,0.7988,0.7988,0.7988,0.7988,0.7988,0.7988,0.7988,0.7988,0.7988,0.7988,0.7988,0.7988,0.7988,0.7988,0.7988,0.7988,0.7988,0.7988,0.7988,0.7988,0.9822,0.9822,0.9822,0.9822,0.9822,0.9822,0.9822,0.9822,0.9822,0.9822,0.9696,0.9652,0.9764,0.954,0.9429,0.9551,0.9418,0.9317,0.9286,0.9286,0.9286,0.9286,0.9286,0.9228,0.9166,0.8994,0.8885,0.8885,0.8885,0.8885,0.8885,0.8885,0.8885,0.8885,0.8885,0.8885,0.8885,0.8885,0.8885,0.8885,0.8885,0.8885,0.8885,0.8885,0.8885,0.8885,0.8885,0.8885,0.8885,0.8885,0.8885,0.8885,0.8885,0.8885,0.8875,0.8844,0.8804,0.8696,0.8632,0.8445,0.8313,0.8231,0.813,0.7988,0.7988,0.7988,0.7988,0.7988,0.7988,0.7988,0.7988,0.7988,0.7988,0.7988,0.7988,0.7988,0.7988,0.7988,0.7988,0.7988,0.7988,0.7988,0.7988,0.7988,0.7988,0.7988,0.7988,0.7988,0.7988,0.7988,0.7988,0.7988,0.7988,0.7988,0.7988,0.7988,0.7988,0.7988,0.7988,0.7988,0.7988,0.7988,0.7988,0.7988,0.7988,0.7988,0.7988,0.7988,0.7988,0.7988,0.7988,0.7988,0.7988,0.7988,0.7988,0.7988,0.9822,0.9822,0.9822,0.9822,0.9822,0.9822,0.9822,0.9822,0.9822,0.9822,0.9754,0.9737,0.9812,0.9683,0.9595,0.9608,0.9537,0.9459,0.9388,0.9381,0.9381,0.9381,0.9381,0.9344,0.932,0.9188,0.9079,0.8885,0.8885,0.8885,0.8885,0.8885,0.8885,0.8885,0.8885,0.8885,0.8885,0.8885,0.8885,0.8885,0.8885,0.8885,0.8885,0.8885,0.8885,0.8885,0.8885,0.8885,0.8885,0.8885,0.8885,0.8885,0.8885,0.8885,0.8885,0.8885,0.8828,0.8804,0.873,0.8598,0.8462,0.8391,0.8258,0.813,0.8005,0.7988,0.7988,0.7988,0.7988,0.7988,0.7988,0.7988,0.7988,0.7988,0.7988,0.7988,0.7988,0.7988,0.7988,0.7988,0.7988,0.7988,0.7988,0.7988,0.7988,0.7988,0.7988,0.7988,0.7988,0.7988,0.7988,0.7988,0.7988,0.7988,0.7988,0.7988,0.7988,0.7988,0.7988,0.7988,0.7988,0.7988,0.7988,0.7988,0.7988,0.7988,0.7988,0.7988,0.7988,0.7988,0.7988,0.7988,0.7988,0.7988,0.7988,0.7988,0.9822,0.9822,0.9822,0.9822,0.9822,0.9822,0.9822,0.9822,0.9822,0.9822,0.9822,0.9822,0.9822,0.9822,0.9774,0.9656,0.9646,0.9591,0.9462,0.9456,0.9456,0.9456,0.9456,0.9445,0.9422,0.9418,0.9276,0.8977,0.8977,0.8905,0.8885,0.8908,0.8977,0.8977,0.9001,0.8998,0.8977,0.8977,0.8905,0.8885,0.8885,0.8885,0.8885,0.8885,0.8885,0.8885,0.8885,0.8885,0.8885,0.8885,0.8885,0.8885,0.8885,0.8885,0.8885,0.8885,0.8885,0.8854,0.8784,0.873,0.8679,0.8554,0.8414,0.8275,0.8143,0.8025,0.7988,0.7988,0.7988,0.7988,0.7988,0.7988,0.7988,0.7988,0.7988,0.7988,0.7988,0.7988,0.7988,0.7988,0.7988,0.7988,0.7988,0.7988,0.7988,0.7988,0.7988,0.7988,0.7988,0.7988,0.7988,0.7988,0.7988,0.7988,0.7988,0.7988,0.7988,0.7988,0.7988,0.7988,0.7988,0.7988,0.7988,0.7988,0.7988,0.7988,0.7988,0.7988,0.7988,0.7988,0.7988,0.7988,0.7988,0.7988,0.7988,0.7988,0.9822,0.9822,0.9822,0.9822,0.9822,0.9822,0.9822,0.9822,0.9822,0.9822,0.9822,0.9822,0.9822,0.9822,0.9815,0.9795,0.9791,0.9785,0.9764,0.9761,0.9761,0.9761,0.9761,0.9703,0.9581,0.9578,0.9429,0.918,0.918,0.9059,0.8888,0.9066,0.918,0.9187,0.9262,0.9249,0.918,0.918,0.9052,0.8885,0.8885,0.8885,0.8885,0.8885,0.8885,0.8885,0.8885,0.8885,0.8885,0.8885,0.8885,0.8885,0.8885,0.8885,0.8885,0.8885,0.8885,0.8878,0.8858,0.8811,0.8706,0.8682,0.8567,0.8448,0.8428,0.8225,0.7988,0.7988,0.7988,0.7988,0.7988,0.7988,0.7988,0.7988,0.7988,0.7988,0.7988,0.7988,0.7988,0.7988,0.7988,0.7988,0.7988,0.7988,0.7988,0.7988,0.7988,0.7988,0.7988,0.7988,0.7988,0.7988,0.7988,0.7988,0.7988,0.7988,0.7988,0.7988,0.7988,0.7988,0.7988,0.7988,0.7988,0.7988,0.7988,0.7988,0.7988,0.7988,0.7988,0.7988,0.7988,0.7988,0.7988,0.7988,0.7988,0.7988,0.9822,0.9822,0.9822,0.9822,0.9822,0.9822,0.9822,0.9822,0.9822,0.9822,0.9822,0.9822,0.9822,0.9822,0.9822,0.9822,0.9822,0.9822,0.9822,0.9822,0.9822,0.9822,0.9822,0.9791,0.973,0.9727,0.9622,0.9408,0.932,0.9249,0.9188,0.9252,0.934,0.934,0.9351,0.9344,0.934,0.934,0.9242,0.9188,0.9188,0.9188,0.9178,0.9093,0.911,0.9174,0.9089,0.9008,0.8885,0.8885,0.8885,0.8885,0.8885,0.8885,0.8885,0.8885,0.8885,0.8885,0.8885,0.8834,0.8838,0.8838,0.8723,0.8611,0.8611,0.8442,0.8265,0.8184,0.8099,0.7988,0.7988,0.7988,0.7988,0.7988,0.7988,0.7988,0.7988,0.7988,0.7988,0.7988,0.7988,0.7988,0.7988,0.7988,0.7988,0.7988,0.7988,0.7988,0.7988,0.7988,0.7988,0.7988,0.7988,0.7988,0.7988,0.7988,0.7988,0.7988,0.7988,0.7988,0.7988,0.7988,0.7988,0.7988,0.7988,0.7988,0.7988,0.7988,0.7988,0.7988,0.7988,0.7988,0.7988,0.7988,0.7988,0.7988]}]]